[[{"header":{"parameterUnit":"m.s-1","parameterCategory":1,"la1":31.0,"la2":29.5877,"lo1":-88.7671,"lo2":-86.6584,"dy":0.0162,"dx":0.0185,"nx":115,"ny":88,"refTime":"2023-10-01T06:00:00:Z","depth":0,"parameterNumber":2,"parameterNumberName":"U-component_of_WINDS"},"data":[0.0,0.0,0.0,0.0,0.0,0.0,0.0,0.0,0.0,0.0,0.0,0.0,0.0,0.0,0.0,0.0,0.0,0.0,0.0,0.0,0.0,0.0,0.0,0.0,0.0,0.0,0.0,0.0,0.0,0.0,0.0,0.0,0.0,0.0,0.0,0.0,0.0,0.0,0.0,0.0,0.0,0.0,0.0,0.0,0.0,0.0,0.0,0.0,0.0,0.0,0.0,0.0,0.0,0.0,0.0,0.0,0.0,0.0,0.0,0.0,0.0,0.0,0.0,0.0,0.0,0.0,0.0,0.0,0.0,0.0,0.0,0.0,0.0,0.0,0.0,0.0,0.0,0.0,0.0,0.0,0.0,0.0,0.0,0.0,0.0,0.0,0.0,0.0,0.0,0.0,0.0,0.0,0.0,0.0,0.0,0.0,0.0,0.0,0.0,0.0,0.0,0.0,0.0,0.0,0.0,0.0,0.0,0.0,0.0,0.0,0.0,0.0,0.0,0.0,0.0,0.0,0.0,0.0,0.0,0.0,0.0,0.0,0.0,0.0,0.0,0.0,0.0,0.0,0.0,0.0,0.0,0.0,0.0,0.0,0.0,0.0,0.0,0.0,0.0,0.0,0.0,0.0,0.0,0.0,0.0,0.0,0.0,0.0,0.0,0.0,0.0,0.0,0.0,0.0,0.0,0.0,0.0,0.0,0.0,0.0,0.0,0.0,0.0,0.0,0.0,0.0,0.0,0.0,0.0,0.0,0.0,0.0,0.0,0.0,0.0,0.0,0.0,0.0,0.0,0.0,0.0,0.0,0.0,0.0,0.0,0.0,0.0,0.0,0.0,0.0,0.0,0.0,0.0,0.0,0.0,0.0,0.0,0.0,0.0,0.0,0.0,0.0,0.0,0.0,0.0,0.0,0.0,0.0,0.0,0.0,0.0,0.0,0.0,0.0,0.0,0.0,0.0,0.0,0.0,0.0,0.0,0.0,0.0,0.0,0.0,0.0,0.0,0.0,0.0,0.0,0.0,0.0,0.0,0.0,0.0,0.0,0.0,0.0,0.0,0.0,0.0,0.0,0.0,0.0,0.0,0.0,0.0,0.0,0.0,0.0,0.0,0.0,0.0,0.0,0.0,0.0,0.0,0.0,0.0,0.0,0.0,0.0,0.0,0.0,0.0,0.0,0.0,0.0,0.0,0.0,0.0,0.0,0.0,0.0,0.0,0.0,0.0,0.0,0.0,0.0,0.0,0.0,0.0,0.0,0.0,0.0,0.0,0.0,0.0,0.0,0.0,0.0,0.0,0.0,0.0,0.0,0.0,0.0,0.0,0.0,0.0,0.0,0.0,0.0,0.0,0.0,0.0,0.0,0.0,0.0,0.0,0.0,0.0,0.0,0.0,0.0,0.0,0.0,0.0,0.0,0.0,0.0,0.0,0.0,0.0,0.0,0.0,0.0,0.0,0.0,0.0,0.0,0.0,0.0,0.0,0.0,0.0,0.0,0.0,0.0,0.0,0.0,0.0,0.0,0.0,0.0,0.0,0.0,0.0,0.0,0.0,0.0,0.0,0.0,0.0,0.0,0.0,0.0,0.0,0.0,0.0,0.0,0.0,0.0,0.0,0.0,0.0,0.0,0.0,0.0,0.0,0.0,0.0,0.0,0.0,0.0,0.0,0.0,0.0,0.0,0.0,0.0,0.0,0.0,0.0,0.0,0.0,0.0,0.0,0.0,0.0,0.0,0.0,0.0,0.0,0.0,0.0,0.0,0.0,0.0,0.0,0.0,0.0,0.0,0.0,0.0,0.0,0.0,0.0,0.0,0.0,0.0,0.0,0.0,0.0,0.0,0.0,0.0,0.0,0.0,0.0,0.0,0.0,0.0,0.0,0.0,0.0,0.0,0.0,0.0,0.0,0.0,0.0,0.0,0.0,0.0,0.0,0.0,0.0,0.0,0.0,0.0,0.0,0.0,0.0,0.0,0.0,0.0,0.0,0.0,0.0,0.0,0.0,0.0,0.0,0.0,0.0,0.0,0.0,0.0,0.0,0.0,0.0,0.0,0.0,0.0,0.0,0.0,0.0,0.0,0.0,0.0,0.0,0.0,0.0,0.0,0.0,0.0,0.0,0.0,0.0,0.0,0.0,0.0,0.0,0.0,0.0,0.0,0.0,0.0,0.0,0.0,0.0,0.0,0.0,0.0,0.0,0.0,0.0,0.0,0.0,0.0,0.0,0.0,0.0,0.0,0.0,0.0,0.0,0.0,0.0,0.0,0.0,0.0,0.0,0.0,0.0,0.0,0.0,0.0,0.0,0.0,0.0,0.0,0.0,0.0,0.0,0.0,0.0,0.0,0.0,0.0,0.0,0.0,0.0,0.0,0.0,0.0,0.0,0.0,0.0,0.0,0.0,0.0,0.0,0.0,0.0,0.0,0.0,0.0,0.0,0.0,0.0,0.0,0.0,0.0,0.0,0.0,0.0,0.0,0.0,0.0,0.0,0.0,0.0,0.0,0.0,0.0,0.0,0.0,0.0,0.0,0.0,0.0,0.0,0.0,0.0,0.0,0.0,0.0,0.0,0.0,0.0,0.0,0.0,0.0,0.0,0.0,0.0,0.0,0.0,0.0,0.0,0.0,0.0,0.0,0.0,0.0,0.0,0.0,0.0,0.0,0.0,0.0,0.0,0.0,0.0,0.0,0.0,0.0,0.0,0.0,0.0,0.0,0.0,0.0,0.0,0.0,0.0,0.0,0.0,0.0,0.0,0.0,0.0,0.0,0.0,0.0,0.0,0.0,0.0,0.0,0.0,0.0,0.0,0.0,0.0,0.0,0.0,0.0,0.0,0.0,0.0,0.0,0.0,0.0,0.0,0.0,0.0,0.0,0.0,0.0,0.0,0.0,0.0,0.0,0.0,0.0,0.0,0.0,0.0,0.0,0.0,0.0,0.0,0.0,0.0,0.0,0.0,0.0,0.0,0.0,0.0,0.0,0.0,0.0,0.0,0.0,0.0,0.0,0.0,0.0,0.0,0.0,0.0,0.0,0.0,0.0,0.0,0.0,0.0,0.0,0.0,0.0,0.0,0.0,0.0,0.0,0.0,0.0,0.0,0.0,0.0,0.0,0.0,0.0,0.0,0.0,0.0,0.0,0.0,0.0,0.0,0.0,0.0,0.0,0.0,0.0,0.0,0.0,0.0,0.0,0.0,0.0,0.0,0.0,0.0,0.0,0.0,0.0,0.0,0.0,0.0,0.0,0.0,0.0,0.0,0.0,0.0,0.0,0.0,0.0,0.0,0.0,0.0,0.0,0.0,0.0,0.0,0.0,0.0,0.0,0.0,0.0,0.0,0.0,0.0,0.0,0.0,0.0,0.0,0.0,0.0,0.0,0.0,0.0,0.0,0.0,0.0,0.0,0.0,0.0,0.0,0.0,0.0,0.0,0.0,0.0,0.0,0.0,0.0,0.0,0.0,0.0,0.0,0.0,0.0,0.0,0.0,0.0,0.0,0.0,0.0,0.0,0.0,0.0,0.0,0.0,0.0,0.0,0.0,0.0,0.0,0.0,0.0,0.0,0.0,0.0,0.0,0.0,0.0,0.0,0.0,0.0,0.0,0.0,0.0,0.0,0.0,0.0,0.0,0.0,0.0,0.0,0.0,0.0,0.0,0.0,0.0,0.0,0.0,0.0,0.0,0.0,0.0,0.0,0.0,0.0,0.0,0.0,0.0,0.0,0.0,0.0,0.0,0.0,0.0,0.0,0.0,0.0,0.0,0.0,0.0,0.0,0.0,0.0,0.0,0.0,0.0,0.0,0.0,0.0,0.0,0.0,0.0,0.0,0.0,0.0,0.0,0.0,0.0,0.0,0.0,0.0,0.0,0.0,0.0,0.0,0.0,0.0,0.0,0.0,0.0,0.0,0.0,0.0,0.0,0.0,0.0,0.0,0.0,0.0,0.0,0.0,0.0,0.0,0.0,0.0,0.0,0.0,0.0,0.0,0.0,0.0,0.0,0.0,0.0,0.0,0.0,0.0,0.0,0.0,0.0,0.0,0.0,0.0,0.0,0.0,0.0,0.0,0.0,0.0,0.0,0.0,0.0,0.0,0.0,0.0,0.0,0.0,0.0,0.0,0.0,0.0,0.0,0.0,0.0,0.0,0.0,0.0,0.0,0.0,0.0,0.0,0.0,0.0,0.0,0.0,0.0,0.0,0.0,0.0,0.0,0.0,0.0,0.0,0.0,0.0,0.0,0.0,0.0,0.0,0.0,0.0,0.0,0.0,1.4307,0.0,0.0,0.0,0.0,0.0,0.0,0.0,0.0,0.0,0.0,0.0,0.0,0.0,0.0,0.0,0.0,0.0,0.0,0.0,0.0,0.0,0.0,0.0,0.0,0.0,0.0,0.0,0.0,0.0,0.0,0.0,0.0,0.0,0.0,0.0,0.0,0.0,0.0,0.0,0.0,0.0,0.0,0.0,0.0,0.0,0.0,0.0,0.0,0.0,0.0,0.0,0.0,0.0,0.0,0.0,0.0,0.0,0.0,0.0,0.0,0.0,0.0,0.0,0.0,0.0,0.0,0.0,0.0,0.0,0.0,0.0,0.0,0.0,0.0,0.0,0.0,0.0,0.0,0.0,0.0,0.0,0.0,0.0,0.0,0.0,0.0,0.0,0.0,0.0,0.0,0.0,0.0,0.0,0.0,0.0,0.0,0.0,0.0,0.0,0.0,0.0,0.0,0.0,0.0,0.0,0.0,0.0,0.0,0.0,0.0,1.4874,1.566,1.509,1.503,1.5556,0.0,0.0,0.0,0.0,0.0,0.0,0.0,0.0,0.0,0.0,0.0,0.0,0.0,0.0,0.0,0.0,0.0,0.0,0.0,0.0,0.0,0.0,0.0,0.0,0.0,0.0,0.0,0.0,0.0,0.0,0.0,0.0,0.0,0.0,0.0,0.0,0.0,0.0,0.0,0.0,0.0,0.0,0.0,0.0,0.0,0.0,0.0,0.0,0.0,0.0,0.0,0.0,0.0,0.0,0.0,0.0,0.0,0.0,0.0,0.0,0.0,0.0,0.0,0.0,0.0,0.0,0.0,0.0,0.0,0.0,0.0,0.0,0.0,0.0,0.0,0.0,0.0,0.0,0.0,0.0,0.0,0.0,0.0,0.0,0.0,0.0,0.0,0.0,0.0,0.0,0.0,0.0,0.0,0.0,0.0,0.0,0.0,0.0,0.0,0.0,0.0,0.0,0.0,0.0,0.0,0.0,0.0,0.0,0.0,0.0,0.0,0.0,1.5972,1.5892,1.672,0.0,0.0,0.0,0.0,0.0,0.0,0.0,0.0,0.0,0.0,0.0,0.0,0.0,0.0,0.0,0.0,0.0,0.0,0.0,0.0,0.0,0.0,0.0,0.0,0.0,0.0,0.0,0.0,0.0,0.0,0.0,0.0,0.0,0.0,0.0,0.0,0.0,0.0,0.0,0.0,0.0,0.0,0.0,0.0,0.0,0.0,0.0,0.0,0.0,0.0,0.0,0.0,0.0,0.0,0.0,0.0,0.0,0.0,0.0,0.0,0.0,0.0,0.0,0.0,0.0,0.0,0.0,0.0,0.0,0.0,0.0,0.0,0.0,0.0,0.0,0.0,0.0,0.0,0.0,0.0,0.0,0.0,0.0,0.0,0.0,0.0,0.0,0.0,0.0,0.0,0.0,0.0,0.0,0.0,0.0,0.0,0.0,0.0,0.0,0.0,0.0,0.0,0.0,0.0,0.0,0.0,0.0,0.0,0.0,0.0,1.63,1.8219,1.7675,0.0,1.7114,0.0,0.0,0.0,0.0,0.0,0.0,0.0,0.0,0.0,0.0,0.0,0.0,0.0,0.0,0.0,0.0,0.0,0.0,0.0,0.0,0.0,0.0,0.0,0.0,0.0,0.0,0.0,0.0,0.0,0.0,0.0,0.0,0.0,0.0,0.0,0.0,0.0,0.0,0.0,0.0,0.0,0.0,0.0,0.0,0.0,0.0,0.0,0.0,0.0,0.0,0.0,0.0,0.0,0.0,0.0,0.0,0.0,0.0,0.0,0.0,0.0,0.0,0.0,0.0,0.0,0.0,0.0,0.0,0.0,0.0,0.0,0.0,0.0,0.0,0.0,0.0,0.0,0.0,0.0,0.0,0.0,0.0,0.0,0.0,0.0,0.0,0.0,0.0,0.0,0.0,0.0,0.0,0.0,0.0,0.0,0.0,0.0,0.0,0.0,0.0,0.0,0.0,0.0,0.0,0.0,0.0,0.0,0.0,0.0,0.0,1.6938,1.797,1.7568,1.7001,0.0,0.0,0.0,0.0,0.0,0.0,0.0,0.0,0.0,0.0,0.0,0.0,0.0,0.0,0.0,0.0,0.0,0.0,0.0,0.0,0.0,0.0,0.0,0.0,0.0,0.0,0.0,0.0,0.0,0.0,0.0,0.0,0.0,0.0,0.0,0.0,0.0,0.0,0.0,0.0,0.0,0.0,0.0,0.0,0.0,0.0,0.0,0.0,0.0,0.0,0.0,0.0,0.0,0.0,0.0,0.0,0.0,0.0,0.0,0.0,0.0,0.0,0.0,0.0,0.0,0.0,0.0,0.0,0.0,0.0,0.0,0.0,0.0,0.0,0.0,0.0,0.0,0.0,0.0,0.0,0.0,0.0,0.0,0.0,0.0,0.0,0.0,0.0,0.0,0.0,0.0,0.0,0.0,0.0,0.0,0.0,0.0,0.0,0.0,0.0,0.0,0.0,0.0,0.0,0.0,0.0,0.0,0.0,0.0,0.0,1.7048,1.7274,1.7649,1.7081,1.6406,1.5719,0.0,0.0,0.0,0.0,0.0,0.0,0.0,0.0,0.0,0.0,0.0,0.0,0.0,0.0,0.0,0.0,0.0,0.0,0.0,0.0,0.0,0.0,0.0,0.0,0.0,0.0,0.0,0.0,0.0,0.0,0.0,0.0,0.0,0.0,0.0,0.0,0.0,0.0,0.0,0.0,0.0,0.0,0.0,0.0,0.0,0.0,0.0,0.0,0.0,0.0,0.0,0.0,0.0,0.0,0.0,0.0,0.0,0.0,0.0,0.0,0.0,0.0,0.0,0.0,0.0,0.0,0.0,0.0,0.0,0.0,0.0,0.0,0.0,0.0,0.0,0.0,0.0,0.0,0.0,0.0,0.0,0.0,0.0,0.0,0.0,0.0,0.0,0.0,0.0,0.0,0.0,0.0,0.0,0.0,0.0,0.0,0.0,0.0,0.0,0.0,0.0,0.0,0.0,0.0,0.0,0.0,0.0,0.0,1.7809,1.7129,1.7115,1.7915,1.6399,1.5687,0.0,0.0,0.0,0.0,0.0,0.0,0.0,0.0,0.0,0.0,0.0,0.0,0.0,0.0,0.0,0.0,0.0,0.0,0.0,0.0,0.0,0.0,0.0,0.0,0.0,0.0,0.0,0.0,0.0,0.0,0.0,0.0,0.0,0.0,0.0,0.0,0.0,0.0,0.0,0.0,0.0,0.0,0.0,0.0,0.0,0.0,0.0,0.0,0.0,0.0,0.0,0.0,0.0,0.0,0.0,0.0,0.0,0.0,0.0,0.0,0.0,0.0,0.0,0.0,0.0,0.0,0.0,0.0,0.0,0.0,0.0,0.0,0.0,0.0,0.0,0.0,0.0,0.0,0.0,0.0,0.0,0.0,0.0,0.0,0.0,0.0,0.0,0.0,0.0,0.0,0.0,0.0,0.0,0.0,0.0,0.0,0.0,0.0,0.0,0.0,0.0,0.0,0.0,0.0,0.0,0.0,0.0,0.0,0.0,1.582,1.5947,1.6471,1.7332,1.5713,1.4522,0.0,0.0,0.0,0.0,0.0,0.0,0.0,0.0,0.0,0.0,0.0,0.0,0.0,0.0,0.0,0.0,0.0,0.0,0.0,0.0,0.0,0.0,0.0,0.0,0.0,0.0,0.0,0.0,0.0,0.0,0.0,0.0,0.0,0.0,0.0,0.0,0.0,0.0,0.0,0.0,0.0,0.0,0.0,0.0,0.0,0.0,0.0,0.0,0.0,0.0,0.0,0.0,0.0,0.0,0.0,0.0,0.0,0.0,0.0,0.0,0.0,0.0,0.0,0.0,0.0,0.0,0.0,0.0,0.0,0.0,0.0,0.0,0.0,0.0,0.0,0.0,0.0,0.0,0.0,0.0,0.0,0.0,0.0,0.0,0.0,0.0,0.0,0.0,0.0,0.0,0.0,0.0,0.0,0.0,0.0,0.0,0.0,0.0,0.0,0.0,0.0,0.0,0.0,0.0,0.0,0.0,0.0,0.0,0.0,1.4407,0.0,1.5261,1.6196,1.4507,1.3237,0.0,0.0,0.0,0.0,0.0,0.0,0.0,0.0,0.0,0.0,0.0,0.0,0.0,0.0,0.0,0.0,0.0,0.0,0.0,0.0,0.0,0.0,0.0,0.0,0.0,0.0,0.0,0.0,0.0,0.0,0.0,0.0,0.0,0.0,0.0,0.0,0.0,0.0,0.0,0.0,0.0,0.0,0.0,0.0,0.0,0.0,0.0,0.0,0.0,0.0,0.0,0.0,0.0,0.0,0.0,0.0,0.0,0.0,0.0,0.0,0.0,0.0,0.0,0.0,0.0,0.0,0.0,0.0,0.0,0.0,0.0,0.0,0.0,0.0,0.0,0.0,0.0,0.0,0.0,0.0,0.0,0.0,0.0,0.0,0.0,0.0,0.0,0.0,0.0,0.0,0.0,0.0,0.0,0.0,0.0,0.0,0.0,0.0,0.0,0.0,0.0,0.0,0.0,0.0,0.0,0.0,0.0,0.0,1.2488,1.3776,1.333,1.3682,1.4649,1.293,1.1897,0.0,0.0,0.0,0.0,0.0,0.0,0.0,0.0,0.0,0.0,0.0,0.0,0.0,0.0,0.0,0.0,0.0,0.0,0.0,0.0,0.0,0.0,0.0,0.0,0.0,0.0,0.0,0.0,0.0,0.0,0.0,0.0,0.0,0.0,0.0,0.0,0.0,0.0,0.0,0.0,0.0,0.0,0.0,0.0,0.0,0.0,0.0,0.0,0.0,0.0,0.0,0.0,0.0,0.0,0.0,0.0,0.0,0.0,0.0,0.0,0.0,0.0,0.0,0.0,0.0,0.0,0.0,0.0,0.0,0.0,0.0,0.0,0.0,0.0,0.0,0.0,0.0,0.0,0.0,0.0,0.0,0.0,0.0,0.0,0.0,0.0,0.0,0.0,0.0,0.0,0.0,0.0,0.0,0.0,0.0,0.0,0.0,0.0,0.0,0.0,0.0,0.0,0.0,0.0,0.0,0.0,0.0,0.0,0.0,1.213,1.29,1.3762,1.4732,1.3171,1.2219,0.0,0.0,0.0,0.0,0.0,0.0,0.0,0.0,0.0,0.0,0.0,0.0,0.0,0.0,0.0,0.0,0.0,0.0,0.0,0.0,0.0,0.0,0.0,0.0,0.0,0.0,0.0,0.0,0.0,0.0,0.0,0.0,0.0,0.0,0.0,0.0,0.0,0.0,0.0,0.0,0.0,0.0,0.0,0.0,0.0,0.0,0.0,0.0,0.0,0.0,0.0,0.0,0.0,0.0,0.0,0.0,0.0,0.0,0.0,0.0,0.0,0.0,0.0,0.0,0.0,0.0,0.0,0.0,0.0,0.0,0.0,0.0,0.0,0.0,0.0,0.0,0.0,0.0,0.0,0.0,0.0,0.0,0.0,0.0,0.0,0.0,0.0,0.0,0.0,0.0,0.0,0.0,0.0,0.0,0.0,0.0,0.0,0.0,0.0,0.0,0.0,0.0,0.0,0.0,0.0,0.0,0.0,0.0,0.0,1.0783,1.1862,1.3032,1.4272,1.3122,1.2237,1.1686,0.0,0.0,0.0,0.0,0.0,0.0,0.0,0.0,0.0,0.0,0.0,0.0,0.0,0.0,0.0,0.0,0.0,0.0,0.0,0.0,0.0,0.0,0.0,0.0,0.0,0.0,0.0,0.0,0.0,0.0,0.0,0.0,0.0,0.0,0.0,0.0,0.0,0.0,0.0,0.0,0.0,0.0,0.0,0.0,0.0,0.0,0.0,0.0,0.0,0.0,0.0,0.0,0.0,0.0,0.0,0.0,0.0,0.0,0.0,0.0,0.0,0.0,0.0,0.0,0.0,0.0,0.0,0.0,0.0,0.0,0.0,0.0,0.0,0.0,0.0,0.0,0.0,0.0,0.0,0.0,0.0,0.0,0.0,0.0,0.0,0.0,0.0,0.0,0.0,0.0,0.0,0.0,0.0,0.0,0.0,0.0,0.0,0.0,0.0,0.0,0.0,0.0,0.0,0.0,0.0,0.0,0.0,0.0,0.9761,1.0455,1.162,1.3287,1.2812,1.206,0.0,0.0,0.0,0.0,0.0,0.0,0.0,0.0,0.0,0.0,0.0,0.0,0.0,0.0,0.0,0.0,0.0,0.0,0.0,0.0,0.0,0.0,0.0,0.0,0.0,0.0,0.0,0.0,0.0,0.0,0.0,0.0,0.0,0.0,0.0,0.0,0.0,0.0,0.0,0.0,0.0,0.0,0.0,0.0,0.0,0.0,0.0,0.0,0.0,0.0,0.0,0.0,0.0,0.0,0.0,0.0,0.0,0.0,0.0,0.0,0.0,0.0,0.0,0.0,0.0,0.0,0.0,0.0,0.0,0.0,0.0,0.0,0.0,0.0,0.0,0.0,0.0,0.0,0.0,0.0,0.0,0.0,0.0,0.0,0.0,0.0,0.0,0.0,0.0,0.0,0.0,0.0,0.0,0.0,0.0,0.0,0.0,0.0,0.0,0.0,0.0,0.0,0.0,0.0,0.0,0.0,0.0,0.0,0.0,0.9358,1.0283,1.169,1.3508,1.3019,1.2344,0.0,0.0,0.0,0.0,0.0,0.0,0.0,0.0,0.0,0.0,0.0,0.0,0.0,0.0,0.0,0.0,0.0,0.0,0.0,0.0,0.0,0.0,0.0,0.0,0.0,0.0,0.0,0.0,0.0,0.0,0.0,0.0,0.0,0.0,0.0,0.0,0.0,0.0,0.0,0.0,0.0,0.0,0.0,0.0,0.0,0.0,0.0,0.0,0.0,0.0,0.0,0.0,0.0,0.0,0.0,0.0,0.0,0.0,0.0,0.0,0.0,0.0,0.0,0.0,0.0,0.0,0.0,0.0,0.0,0.0,0.0,0.0,0.0,0.0,0.0,0.0,0.0,0.0,0.0,0.0,0.0,0.0,0.0,0.0,0.0,0.0,0.0,0.0,0.0,0.0,0.0,0.0,0.0,0.0,0.0,0.0,0.0,0.0,0.0,0.0,0.0,0.0,0.0,0.0,0.0,0.0,0.0,0.0,0.8436,0.908,1.0081,1.1148,1.2302,1.2677,1.239,0.0,0.0,0.0,0.0,0.0,0.0,0.0,0.0,0.0,0.0,0.0,0.0,0.0,0.0,0.0,0.0,0.0,0.0,0.0,0.0,0.0,0.0,0.0,0.0,0.0,0.0,0.0,0.0,0.0,0.0,0.0,0.0,0.0,0.0,0.0,0.0,0.0,0.0,0.0,0.0,0.0,0.0,0.0,0.0,0.0,0.0,0.0,0.0,0.0,0.0,0.0,0.0,0.0,0.0,0.0,0.0,0.0,0.0,0.0,0.0,0.0,0.0,0.0,0.0,0.0,0.0,0.0,0.0,0.0,0.0,0.0,0.0,0.0,0.0,0.0,0.0,0.0,0.0,0.0,0.0,0.0,0.0,0.0,0.0,0.0,0.0,0.0,0.0,0.0,0.0,0.0,0.0,0.0,0.0,0.0,0.0,0.0,0.0,0.0,0.0,0.0,0.0,0.0,0.0,0.0,0.0,0.0,0.0,0.8421,0.8815,0.9825,1.0406,1.0573,1.1941,1.2075,0.0,0.0,0.0,0.0,0.0,0.0,0.0,0.0,0.0,0.0,0.0,0.0,0.0,0.0,0.0,0.0,0.0,0.0,0.0,0.0,0.0,0.0,0.0,0.0,0.0,0.0,0.0,0.0,0.0,0.0,0.0,0.0,0.0,0.0,0.0,0.0,0.0,0.0,0.0,0.0,0.0,0.0,0.0,0.0,0.0,0.0,0.0,0.0,0.0,0.0,0.0,0.0,0.0,0.0,0.0,0.0,0.0,0.0,0.0,0.0,0.0,0.0,0.0,0.0,0.0,0.0,0.0,0.0,0.0,0.0,0.0,0.0,0.0,0.0,0.0,0.0,0.0,0.0,0.0,0.0,0.0,0.0,0.0,0.0,0.0,0.0,0.0,0.0,0.0,0.0,0.0,0.0,0.0,0.0,0.0,0.0,0.0,0.0,0.0,0.0,0.0,0.0,0.0,0.0,0.0,0.0,0.0,0.0,0.8053,0.8367,0.9828,1.0715,1.0895,1.1133,1.0697,0.0,0.0,0.0,0.0,0.0,0.0,0.0,0.0,0.0,0.0,0.0,0.0,0.0,0.0,0.0,0.0,0.0,0.0,0.0,0.0,0.0,0.0,0.0,0.0,0.0,0.0,0.0,0.0,0.0,0.0,0.0,0.0,0.0,0.0,0.0,0.0,0.0,0.0,0.0,0.0,0.0,0.0,0.0,0.0,0.0,0.0,0.0,0.0,1.7767,0.0,0.0,0.0,0.0,0.0,0.0,0.0,0.0,0.0,0.0,0.0,0.0,0.0,0.0,0.0,0.0,0.0,0.0,0.0,0.0,0.0,0.0,0.0,0.0,0.0,0.0,0.0,0.0,0.0,0.0,0.0,0.0,0.0,0.0,0.0,0.0,0.0,0.0,0.0,0.0,0.0,0.0,0.0,0.0,0.0,0.0,0.0,0.0,0.0,0.0,0.0,0.0,0.0,0.0,0.0,0.0,0.0,0.0,0.0,0.8446,0.8941,1.0204,1.0868,1.0841,1.1065,1.1018,0.0,0.0,0.0,0.0,0.0,0.0,0.0,0.0,0.0,0.0,0.0,0.0,0.0,0.0,0.0,0.0,0.0,0.0,0.0,0.0,0.0,0.0,0.0,0.0,0.0,0.0,0.0,0.0,0.0,0.0,0.0,0.0,0.0,0.0,0.0,0.0,0.0,0.0,0.0,0.0,0.0,0.0,0.0,0.0,0.0,0.0,0.0,0.0,0.0,0.0,0.0,0.0,0.0,0.0,0.0,0.0,0.0,0.0,0.0,0.0,0.0,0.0,0.0,0.0,0.0,0.0,0.0,0.0,0.0,0.0,0.0,0.0,0.0,0.0,0.0,0.0,0.0,0.0,0.0,0.0,0.0,0.0,0.0,0.0,0.0,0.0,0.0,0.0,0.0,0.0,0.0,0.0,0.0,0.0,0.0,0.0,0.0,0.0,0.0,0.0,0.0,0.0,0.0,0.0,0.0,0.0,0.0,0.8765,0.9157,0.9766,1.0727,1.1088,1.0806,1.1587,1.2081,1.2161,0.0,0.0,0.0,0.0,0.0,0.0,0.0,0.0,0.0,0.0,0.0,0.0,0.0,0.0,0.0,0.0,0.0,0.0,0.0,0.0,0.0,0.0,0.0,0.0,0.0,0.0,0.0,0.0,0.0,0.0,0.0,0.0,0.0,0.0,0.0,0.0,0.0,0.0,1.1464,1.3281,0.0,0.0,0.0,0.0,0.0,0.0,0.0,0.0,1.7833,0.0,0.0,0.0,0.0,0.0,0.0,0.0,0.0,0.0,0.0,0.0,0.0,0.0,0.0,0.0,0.0,0.0,0.0,0.0,0.0,0.0,0.0,0.0,0.0,0.0,0.0,0.0,0.0,0.0,0.0,0.0,0.0,0.0,0.0,0.0,0.0,0.0,0.0,0.0,0.0,0.0,0.0,0.0,0.0,0.0,0.0,0.0,0.0,0.0,0.0,0.0,0.0,0.0,0.0,0.0,0.0,0.8909,0.9371,0.9758,1.0039,1.1107,1.1651,1.1635,1.2802,1.3066,1.2187,0.0,0.0,0.0,0.0,0.0,0.0,0.0,0.0,0.0,0.0,0.0,0.0,0.0,0.0,0.0,0.0,0.0,0.0,0.0,0.0,0.0,0.0,0.0,0.0,0.0,0.0,0.0,0.0,0.0,0.0,0.0,0.0,0.0,0.0,0.0,0.0,0.0,0.0,0.0,1.0551,1.1384,0.0,0.0,0.0,0.0,0.0,0.0,0.0,0.0,1.7205,0.0,0.0,0.0,0.0,0.0,0.0,0.0,0.0,0.0,0.0,0.0,0.0,0.0,0.0,0.0,0.0,0.0,0.0,0.0,0.0,0.0,0.0,0.0,0.0,0.0,0.0,0.0,0.0,0.0,0.0,0.0,0.0,0.0,0.0,0.0,0.0,0.0,0.0,0.0,0.0,0.0,0.0,0.0,0.0,0.0,0.0,0.0,0.0,0.0,0.0,0.0,0.0,0.0,0.0,0.0,0.9592,1.0012,1.0457,1.0987,1.1651,1.2083,1.2256,1.2463,1.2162,0.0,0.0,0.0,0.0,0.0,0.0,0.0,0.0,0.0,0.0,0.0,0.0,0.0,0.0,0.0,0.0,0.0,0.0,0.0,0.0,0.0,0.0,0.0,0.0,0.0,0.0,0.0,0.0,0.0,0.0,0.0,0.0,0.0,0.0,0.0,0.0,0.0,0.0,0.0,0.0,0.9634,0.9922,1.0211,0.0,0.0,0.0,0.0,0.0,0.0,1.5848,1.5821,0.0,0.0,0.0,0.0,0.0,0.0,0.0,0.0,0.0,0.0,0.0,0.0,0.0,0.0,0.0,0.0,0.0,0.0,0.0,0.0,0.0,0.0,0.0,0.0,0.0,0.0,0.0,0.0,0.0,0.0,0.0,0.0,0.0,0.0,0.0,0.0,0.0,0.0,0.0,0.0,0.0,0.0,0.0,0.0,0.0,0.0,0.0,0.0,0.0,0.0,0.0,0.0,0.0,0.0,0.0,1.0178,1.0647,1.1183,1.1774,1.2062,1.2264,1.2406,1.1785,1.1042,0.0,0.0,0.0,0.0,0.0,0.0,0.0,0.0,0.0,0.0,0.0,0.0,0.0,0.0,0.0,0.0,0.0,0.0,0.0,0.0,0.0,0.0,0.0,0.0,0.0,0.0,0.0,0.0,0.0,0.0,0.0,0.0,0.0,0.0,0.0,0.0,0.0,0.0,0.0,0.0,0.0,0.9188,0.8827,1.0153,0.0,0.0,0.0,0.0,1.5942,1.4643,0.0,0.0,0.0,0.0,0.0,0.0,0.0,0.0,0.0,0.0,0.0,0.0,0.0,0.0,0.0,0.0,0.0,0.0,0.0,0.0,0.0,0.0,0.0,0.0,0.0,0.0,0.0,0.0,0.0,0.0,0.0,0.0,0.0,0.0,0.0,0.0,0.0,0.0,0.0,0.0,0.0,0.0,0.0,0.0,0.0,0.0,0.0,0.0,0.0,0.0,0.0,0.0,0.0,0.0,0.0,0.0,1.0248,1.1227,1.177,1.1796,1.2062,1.1963,1.1464,1.1607,1.0871,0.0,0.0,0.0,0.0,0.0,0.0,0.0,0.0,0.0,0.0,0.0,0.0,0.0,0.0,0.0,0.0,0.0,0.0,0.0,0.0,0.0,0.0,0.0,0.0,0.0,0.0,0.0,0.0,0.0,0.0,0.0,0.0,0.0,0.0,0.0,0.0,0.0,0.0,0.0,0.0,0.0,0.9324,0.8414,0.9199,1.0307,0.0,0.0,1.0239,1.2986,1.22,0.0,0.0,0.0,0.0,0.0,0.0,0.0,0.0,0.0,0.0,0.0,0.0,0.0,0.0,0.0,0.0,0.0,0.0,0.0,0.0,0.0,0.0,0.0,0.0,0.0,0.0,0.0,0.0,0.0,0.0,0.0,0.0,0.0,0.0,0.0,0.0,0.0,0.0,0.0,0.0,0.0,0.0,0.0,0.0,0.0,0.0,0.0,0.0,0.0,0.0,0.0,0.0,0.0,0.0,0.0,1.0096,1.0611,1.1419,1.1657,1.1269,1.1337,1.1178,1.0725,1.0097,0.953,0.0,0.0,0.0,0.0,0.0,0.0,0.0,0.0,0.0,0.0,0.0,0.0,0.0,0.0,0.0,0.0,0.0,0.0,0.0,0.0,0.0,0.0,0.0,0.0,0.0,0.0,0.0,0.0,0.0,0.0,0.0,0.0,0.0,0.0,0.0,0.0,0.0,0.0,0.0,0.0,0.0,0.0,0.8617,0.8901,0.0,0.0,0.0,1.0133,1.2955,0.0,0.0,0.0,0.0,0.0,0.0,0.0,0.0,0.0,0.0,0.0,0.0,0.0,0.0,0.0,0.0,0.0,0.0,0.0,0.0,0.0,0.0,0.0,0.0,0.0,0.0,0.0,0.0,0.0,0.0,0.0,0.0,0.0,0.0,0.0,0.0,0.0,0.0,0.0,0.0,0.0,0.0,0.0,0.0,0.0,0.0,0.0,0.0,0.0,0.0,0.0,0.0,0.0,0.0,0.0,0.0,0.0,1.0463,1.1022,1.1042,1.0543,1.0543,1.0368,0.9923,0.8864,0.0,0.0,0.0,0.0,0.0,0.0,0.0,0.0,0.0,0.0,0.0,0.0,0.0,0.0,0.0,0.0,0.0,0.0,0.0,0.0,0.0,0.0,0.0,0.0,0.0,0.0,0.0,0.8435,0.0,0.0,0.0,0.0,0.0,0.0,0.0,0.0,0.0,0.0,0.0,0.0,0.0,0.0,0.8468,0.8859,0.8798,0.9012,0.0,0.0,0.9961,1.2071,1.0658,1.0093,0.0,0.0,0.0,0.0,0.0,0.0,0.0,0.0,0.0,0.0,0.0,0.0,0.0,0.0,0.0,0.0,0.0,0.0,0.0,0.0,0.0,0.0,0.0,0.0,0.0,0.0,0.0,0.0,0.0,0.0,0.0,0.0,0.0,0.0,0.0,0.0,0.0,0.0,0.0,0.0,0.0,0.0,0.0,0.0,0.0,0.0,0.0,0.0,0.0,0.0,0.0,0.0,0.0,0.0,0.0,0.9302,0.9744,0.9943,0.9852,0.9852,0.9548,0.8909,0.8472,0.8005,0.0,0.0,0.0,0.0,0.0,0.0,0.0,0.0,0.0,0.0,0.0,0.0,0.0,0.0,0.0,0.0,0.0,0.0,0.0,0.0,0.0,0.0,0.0,0.0,0.0,0.0,0.0,0.0,0.0,0.0,0.0,0.0,0.0,0.0,0.0,0.0,0.0,0.0,0.0,0.0,0.0,0.8593,0.8836,0.8897,0.8684,0.0,0.0,0.8857,0.8719,0.8073,0.8337,1.0541,0.0,0.0,0.0,0.0,0.0,0.0,0.0,0.0,0.0,0.0,0.0,0.0,0.0,0.0,0.0,0.0,0.0,0.0,0.0,0.0,0.0,0.0,0.0,0.0,0.0,0.0,0.0,0.0,0.0,0.0,0.0,0.0,0.0,0.0,0.0,0.0,0.0,0.0,0.0,0.0,0.0,0.0,0.0,0.0,0.0,0.0,0.0,0.0,0.0,0.0,0.0,0.0,0.0,0.8905,0.9182,0.9599,0.9557,0.902,0.8946,0.8548,0.7697,0.741,0.7216,0.0,0.0,0.0,0.0,0.0,0.0,0.0,0.0,0.0,0.0,0.0,0.0,0.0,0.0,0.0,0.0,0.0,0.0,0.0,0.0,0.0,0.0,0.0,0.0,0.0,0.0,0.0,0.0,0.7978,0.7972,0.8178,0.0,0.0,0.0,0.0,0.0,0.0,0.0,0.0,0.0,0.0,0.8371,0.8414,0.8413,0.0,0.0,0.8235,0.852,0.8846,0.8143,0.8025,0.9408,0.9563,0.0,0.0,0.0,0.0,0.0,0.0,0.0,0.0,0.0,0.0,0.0,0.0,0.0,0.0,0.0,0.0,0.0,0.0,0.0,0.0,0.0,0.0,0.0,0.0,0.0,0.0,0.0,0.0,0.0,0.0,0.0,0.0,0.0,0.0,0.0,0.0,0.0,0.0,0.0,0.0,0.0,0.0,0.0,0.0,0.0,0.0,0.0,0.0,0.0,0.0,0.0,0.0,0.8368,0.8606,0.8977,0.8809,0.8077,0.8033,0.7702,0.7084,0.6812,0.6738,0.0,0.0,0.0,0.0,0.0,0.0,0.0,0.0,0.0,0.0,0.0,0.0,0.0,0.0,0.0,0.0,0.0,0.0,0.0,0.0,0.0,0.0,0.0,0.0,0.0,0.0,0.0,0.0,0.7752,0.7326,0.7315,0.0,0.0,0.0,0.0,0.0,0.0,0.0,0.0,0.0,0.0,0.7628,0.7974,0.7983,0.7996,0.8073,0.8285,0.8574,0.891,0.7877,0.7347,0.8105,0.0,0.0,0.0,0.0,0.0,0.0,0.0,0.0,0.0,0.0,0.0,0.0,0.0,0.0,0.0,0.0,0.0,0.0,0.0,0.0,0.0,0.0,0.0,0.0,0.0,0.0,0.0,0.0,0.0,0.0,0.8363,0.0,0.0,0.0,0.0,0.0,0.0,0.0,0.0,0.0,0.0,0.0,0.0,0.0,0.0,0.0,0.0,0.0,0.0,0.0,0.0,0.0,0.0,0.7576,0.7257,0.7614,0.7536,0.706,0.7177,0.7198,0.7171,0.6874,0.6791,0.6976,0.0,0.0,0.0,0.0,0.0,0.0,0.0,0.0,0.0,0.0,0.0,0.0,0.0,0.0,0.0,0.0,0.0,0.0,0.0,0.0,0.0,0.0,0.0,0.0,0.0,0.0,0.9423,0.7573,0.6017,0.0,0.0,0.0,0.0,0.0,0.0,0.0,0.0,0.0,0.0,0.6871,0.6188,0.7599,0.766,0.7607,0.7942,0.8662,0.8946,0.816,0.6828,0.5991,0.0,0.0,0.0,0.0,0.0,0.0,0.0,0.0,0.0,0.0,0.0,0.0,0.0,0.0,0.0,0.0,0.0,0.0,0.0,0.0,0.0,0.0,0.0,0.0,0.0,0.0,0.0,0.8541,0.9088,0.0,0.0,0.0,0.0,0.0,0.0,0.0,0.0,0.0,0.0,0.0,0.9044,0.9099,0.0,0.0,0.0,0.0,0.0,0.0,0.0,0.0,0.0,0.0,0.0,0.0,0.7498,0.7472,0.7398,0.7194,0.6873,0.6873,0.679,0.6625,0.644,0.6464,0.6656,0.0,0.0,0.0,0.0,0.0,0.0,0.0,0.0,0.0,0.0,0.0,0.0,0.0,0.0,0.0,0.0,0.0,0.0,0.0,0.0,0.0,0.0,0.0,0.0,0.0,0.7896,0.0,0.0,0.0,0.0,0.0,0.0,0.0,0.0,0.0,0.0,0.0,0.765,0.754,0.6857,0.6467,0.6597,0.5607,0.4918,0.0,0.0,0.0,0.0,0.0,0.0,0.0,0.0,0.0,0.0,0.0,0.0,0.0,0.0,0.9019,0.7106,0.8434,0.9753,0.9371,0.0,0.0,0.0,0.0,0.0,0.0,0.0,0.0,0.0,0.0,0.0,0.0,0.0,0.0,0.7439,0.0,0.8033,0.0,0.0,0.0,0.0,0.0,0.0,0.0,0.0,0.6715,0.7744,0.8962,0.9047,0.9158,0.0,0.927,0.9088,0.0,0.0,0.0,0.0,0.0,0.0,0.0,0.0,0.7516,0.7484,0.7281,0.6945,0.6644,0.6619,0.6533,0.6362,0.6341,0.6355,0.6487,0.6549,0.6616,0.0,0.0,0.0,0.0,0.0,0.0,0.0,0.0,0.0,0.0,0.0,0.0,0.0,0.0,0.0,0.0,0.0,0.0,0.0,0.0,0.0,0.0,0.0,0.7717,0.0,0.0,0.0,0.0,0.0,0.0,0.0,0.0,0.0,0.7301,0.6777,0.6286,0.6045,0.5363,0.488,0.4905,0.0,0.0,0.0,0.0,0.0,0.0,0.0,0.3691,0.4075,0.3594,0.3462,0.4127,0.4743,0.5016,0.454,0.0,0.0,0.6344,0.7627,0.8889,0.9282,0.9788,1.0155,1.0209,1.0299,1.0335,0.0,0.0,0.0,0.0,0.0,0.0,0.0,0.0,0.622,0.6168,0.0,0.6501,0.0,0.0,0.0,0.0,0.0,0.268,0.0,0.0,0.6077,0.7213,0.8308,0.8383,0.879,0.9605,0.9794,0.9725,0.9431,0.8701,0.0,0.0,0.0,0.0,0.0,0.0,0.7646,0.7348,0.7125,0.6785,0.6341,0.6452,0.6497,0.6497,0.6497,0.6493,0.6514,0.6569,0.661,0.6618,0.6978,0.0,0.0,0.0,0.0,0.0,0.0,0.0,0.0,0.0,0.0,0.0,0.0,0.0,0.0,0.0,0.0,0.0,0.0,0.0,0.0,0.7916,0.0,0.0,0.0,0.0,0.0,0.0,0.0,0.0,0.0,0.0,0.8049,0.585,0.4094,0.4185,0.0,0.0,0.0,0.0,0.323,0.4345,0.4581,0.4565,0.4539,0.3284,0.2303,0.2281,0.0,0.0,0.1903,0.2491,0.3244,0.3976,0.5248,0.6167,0.658,0.7817,0.9143,1.0219,1.0264,1.0321,1.0684,1.0703,1.0753,0.162,0.0,0.0,0.0,0.0,0.2637,0.3268,0.4209,0.4668,0.5215,0.574,0.5997,0.0,0.0,0.0,0.0,0.0,0.0,0.3962,0.5729,0.6277,0.7558,0.9356,0.9356,0.9489,0.974,0.9772,0.9624,0.9342,0.9018,0.8797,0.8689,0.0,0.0,0.0,0.0,0.7968,0.7701,0.741,0.7014,0.6576,0.6635,0.6647,0.6613,0.6647,0.6647,0.6647,0.6651,0.6737,0.6814,0.7019,0.0,0.0,0.0,0.0,0.0,0.0,0.0,0.0,0.0,0.0,0.0,0.0,0.0,0.0,0.0,0.0,0.0,0.0,0.0,0.5756,0.7255,0.8153,0.0,0.0,0.0,0.0,0.0,0.0,0.0,0.0,0.0,0.8022,0.6522,0.4928,0.0,0.0,0.2354,0.2576,0.1854,0.139,0.1773,0.2095,0.0,0.0,0.1884,0.1601,0.1569,0.2398,0.3236,0.3813,0.4809,0.5632,0.5881,0.6485,0.7252,0.8212,0.8665,0.9031,0.93,0.9694,1.0075,1.0224,1.0455,1.0647,0.0121,0.0038,0.0942,0.1435,0.1568,0.1751,0.2327,0.3187,0.3555,0.3924,0.4295,0.4911,0.4474,0.3316,0.3823,0.0,0.0,0.0,0.5069,0.6606,0.6739,0.7734,0.9295,0.9381,0.9555,0.9867,0.984,0.9682,0.948,0.9339,0.9234,0.9079,0.0,0.0,0.9044,0.8437,0.8112,0.7954,0.7448,0.6881,0.6317,0.5971,0.5778,0.5778,0.5778,0.5778,0.5778,0.5778,0.5828,0.59,0.6374,0.6783,0.0,0.0,0.0,0.0,0.0,0.0,0.0,0.0,0.0,0.0,0.0,0.366,0.3733,0.0,0.0,0.0,0.5262,0.6348,0.688,0.796,0.0,0.0,0.0,0.0,0.0,0.0,0.0,0.9454,0.9617,0.9262,0.8193,0.7349,0.6,0.3731,0.301,0.269,0.2603,0.0,0.1507,0.1737,0.1985,0.2196,0.2345,0.2377,0.2372,0.2388,0.3397,0.4456,0.5156,0.6173,0.7139,0.768,0.814,0.8655,0.9529,0.9754,0.9782,0.952,0.9929,1.0363,1.0403,1.0758,1.1016,0.0211,0.0928,0.1389,0.1771,0.2044,0.1981,0.2169,0.2559,0.2881,0.269,0.2279,0.365,0.396,0.3456,0.4646,0.0,0.6261,0.6337,0.675,0.7435,0.7431,0.7929,0.8784,0.8827,0.9223,1.0019,1.0019,0.9905,0.9709,0.9641,0.9444,0.912,0.9019,0.8993,0.9088,0.8456,0.8088,0.8118,0.7358,0.6557,0.5668,0.4858,0.4439,0.4442,0.4439,0.4442,0.4439,0.4442,0.4439,0.4437,0.5369,0.5914,0.5971,0.0,0.0,0.0,0.0,0.0,0.0,0.0,0.0,0.0,0.0,0.0,0.0,0.0,0.0,0.0,0.5577,0.0,0.907,0.9345,0.0,0.0,0.0,1.0548,1.0075,1.0863,1.1204,1.0749,0.0,0.0,0.8491,0.8236,0.7239,0.4604,0.3446,0.286,0.2887,0.2901,0.302,0.3542,0.3593,0.3775,0.4143,0.4235,0.4275,0.4402,0.4705,0.5413,0.6202,0.7083,0.8136,0.9119,0.9841,1.0206,1.0397,1.0859,1.1108,1.0578,1.0786,1.1016,1.1028,1.1382,1.166,0.2004,0.1943,0.2694,0.2795,0.2462,0.2414,0.2684,0.3105,0.3177,0.3699,0.4507,0.4841,0.5184,0.5648,0.6621,0.6987,0.6857,0.7453,0.8058,0.8572,0.8537,0.8944,0.9666,0.971,0.9798,1.0019,1.0019,0.9905,0.9758,0.9747,0.9313,0.8474,0.8447,0.8804,0.9423,0.8523,0.8156,0.8404,0.7168,0.6202,0.5481,0.4949,0.4718,0.4718,0.4718,0.4718,0.4718,0.4718,0.4718,0.4715,0.4932,0.5111,0.525,0.527,0.0,0.0,0.0,0.0,0.0,0.0,0.0,0.0,0.0,0.3178,0.4454,0.0,0.7782,0.0,0.8147,0.7988,0.7955,0.8767,0.0,0.0,1.0148,1.1106,1.1915,1.157,1.1335,1.1567,1.1269,1.0609,0.954,0.9309,0.8746,0.7328,0.5455,0.4349,0.4691,0.4435,0.4488,0.5231,0.5371,0.5559,0.5951,0.6047,0.6301,0.7014,0.7429,0.791,0.8342,0.9196,0.9789,0.9723,1.0378,1.0891,1.1009,1.1476,1.1753,1.1516,1.1496,1.1521,1.1424,1.1717,1.1989,0.4056,0.4436,0.4944,0.4937,0.451,0.3475,0.3362,0.3908,0.4157,0.4918,0.5969,0.6663,0.7223,0.7692,0.8923,0.9223,0.8832,0.9466,0.9898,1.0195,1.017,1.0256,1.0414,1.0403,1.0297,1.0101,1.0008,0.9921,0.9807,0.9802,0.937,0.8551,0.8419,0.853,0.8858,0.7543,0.6937,0.7088,0.5686,0.4832,0.4647,0.406,0.365,0.346,0.344,0.3376,0.3192,0.3175,0.3209,0.3226,0.3518,0.3729,0.3818,0.4704,0.5135,0.0,0.0,0.0,0.0,0.0,0.0,0.0,0.0,0.0,0.0,0.0,0.9404,1.0287,0.9688,0.9253,0.932,0.9856,1.019,1.004,1.0741,1.1386,1.1777,1.1444,1.1216,1.1435,1.1175,1.0833,1.033,1.0277,1.0101,0.9545,0.8172,0.7062,0.669,0.6394,0.6483,0.7108,0.7195,0.7376,0.7847,0.7893,0.806,0.8566,0.8859,0.9212,0.9781,1.0262,1.0659,1.0768,1.1206,1.1564,1.1558,1.1971,1.2351,1.2477,1.2636,1.2511,1.1997,1.2198,1.2509,0.6123,0.7239,0.7328,0.7283,0.7075,0.5046,0.4511,0.5135,0.5557,0.6288,0.7237,0.8874,0.9516,0.9552,1.1091,1.1535,1.1172,1.1575,1.1776,1.1736,1.1736,1.1488,1.1062,1.1032,1.0781,1.0379,1.0274,1.013,0.9949,0.9911,0.9573,0.8928,0.8512,0.8159,0.7821,0.6154,0.5204,0.5086,0.3773,0.3242,0.3519,0.2705,0.2095,0.1759,0.1732,0.1593,0.1245,0.1232,0.1232,0.1246,0.184,0.2241,0.2379,0.4598,0.5618,0.0,0.6369,0.0,0.0,0.0,0.0,0.0,0.0,0.0,0.0,0.8587,0.9889,1.0951,1.0622,1.0679,1.1456,1.1382,1.1314,1.1245,1.1509,1.1453,1.0904,1.1009,1.109,1.0998,1.1085,1.1101,1.0955,1.1063,1.1123,1.0988,1.0565,0.9768,0.8868,0.8399,0.8378,0.8863,0.8938,0.9054,0.9402,0.9527,0.9527,0.9532,0.9569,0.9856,1.058,1.074,1.1072,1.1842,1.2167,1.2243,1.2172,1.2636,1.3053,1.3329,1.3712,1.3705,1.2896,1.2902,1.3181,0.7586,0.7481,0.7851,0.7985,0.79,0.7847,0.7544,0.7134,0.7199,0.8049,0.954,1.0926,1.1476,1.1423,1.2068,1.2109,1.1749,1.2156,1.2197,1.1865,1.1865,1.1769,1.1557,1.1567,1.1515,1.1434,1.137,1.1181,1.0759,1.0434,0.9648,0.845,0.8059,0.7423,0.6617,0.0,0.0,0.0,0.3163,0.295,0.2769,0.1943,0.1458,0.1389,0.1384,0.0,0.1279,0.1289,0.1295,0.1264,0.1435,0.0,0.0,0.0,0.0,0.0,0.0,0.0,0.0,0.0,0.0,0.0,1.0419,1.0087,0.8463,1.011,1.1322,1.1295,1.1224,1.1138,1.1017,1.1025,1.1082,1.1247,1.1247,1.1242,1.1335,1.1319,1.1308,1.139,1.1417,1.1384,1.1264,1.127,1.1281,1.1324,1.1177,1.1031,1.0764,0.9815,0.9519,1.0153,1.0242,1.032,1.0445,1.0445,1.0404,1.0445,1.0445,1.0657,1.1035,1.1136,1.1411,1.2234,1.2685,1.3138,1.3431,1.3952,1.4215,1.4267,1.4349,1.4305,1.3913,1.3909,1.3908,0.9829,0.0,1.0514,1.0709,0.0,1.0932,1.0765,1.0327,0.9686,1.0121,1.1334,1.2222,1.248,1.2244,1.2872,1.2913,1.2579,1.2955,1.3039,1.283,1.283,1.2672,1.2436,1.2373,1.2218,1.2006,1.1871,1.1682,1.1445,1.079,0.9996,0.9087,0.8302,0.745,0.6481,0.5273,0.4062,0.2841,0.2661,0.2588,0.2617,0.2204,0.189,0.1673,0.1862,0.0,0.0,0.0,0.0,0.0,0.0,0.0,0.0,0.5111,0.0,0.6796,0.7719,0.8653,0.9572,0.9896,1.0331,1.1006,1.1503,1.128,1.0066,1.1104,1.1735,1.163,1.1805,1.1895,1.181,1.1784,1.1836,1.1952,1.1975,1.2009,1.21,1.2117,1.2111,1.2073,1.2175,1.2163,1.2036,1.2033,1.2067,1.2061,1.2053,1.1975,1.187,1.1037,1.0502,1.0767,1.0782,1.0844,1.0998,1.1029,1.1153,1.132,1.1403,1.1623,1.2183,1.2294,1.255,1.3343,1.3759,1.402,1.4232,1.4538,1.4732,1.4903,1.486,1.4835,1.4786,1.4447,1.4114,1.2057,1.284,1.3208,1.3425,1.3447,1.3492,1.3418,1.3321,0.0,0.0,0.0,1.3109,1.3109,1.2766,1.3452,1.3623,1.333,1.3666,1.3795,1.3795,1.3795,1.3623,1.3324,1.317,1.2942,1.2549,1.233,1.2177,1.2095,1.1293,1.0683,1.0237,0.9249,0.8243,0.7315,0.6221,0.5006,0.3688,0.2825,0.2607,0.3127,0.3071,0.294,0.2743,0.305,0.3096,0.2741,0.3753,0.4407,0.4497,0.5219,0.5722,0.6052,0.7405,0.8499,0.9188,1.0523,1.1509,1.1925,1.1897,1.1767,1.1665,1.1789,1.1782,1.1589,1.1804,1.1966,1.1983,1.2391,1.2662,1.2779,1.2809,1.2777,1.2821,1.2875,1.2894,1.2777,1.2889,1.2863,1.2797,1.2814,1.2839,1.2735,1.2808,1.292,1.2863,1.274,1.2736,1.263,1.1972,1.1387,1.1246,1.1238,1.1295,1.1438,1.1528,1.1694,1.1986,1.211,1.2484,1.3148,1.3521,1.3935,1.4567,1.4878,1.4919,1.4961,1.4961,1.5092,1.5422,1.5403,1.5327,1.5441,1.4924,1.4413,1.3439,1.358,1.3627,1.3793,1.4058,1.4098,1.4251,1.44,1.3501,1.3114,1.3116,1.3538,1.3666,1.3623,1.3752,1.3752,1.3716,1.3752,1.3795,1.3795,1.3795,1.3795,1.3709,1.3689,1.364,1.3597,1.3557,1.336,1.2996,1.2589,1.2168,1.179,1.133,1.0592,0.9719,0.9175,0.8433,0.7413,0.4753,0.3851,0.4793,0.4539,0.4728,0.5488,0.5448,0.5432,0.5364,0.5528,0.5637,0.5661,0.5901,0.635,0.7131,0.8177,0.9085,0.9946,1.1383,1.2233,1.2192,1.2708,1.306,1.2993,1.2575,1.2221,1.1946,1.2326,1.2654,1.272,1.2918,1.3048,1.3073,1.3153,1.3253,1.322,1.3245,1.3208,1.3073,1.3124,1.3093,1.2964,1.2907,1.2926,1.2945,1.2958,1.3008,1.292,1.3028,1.289,1.2773,1.2526,1.2313,1.2143,1.2107,1.2089,1.2105,1.2027,1.2193,1.2069,1.2484,1.2941,1.3397,1.4059,1.4638,1.5216,1.5587,1.5752,1.5801,1.5842,1.5834,1.5917,1.5835,1.5796,1.5748,1.5514,1.5353,1.4144,1.4254,1.4467,1.463,1.4865,1.4712,1.4745,1.4796,1.4331,1.4082,1.4022,1.4193,1.4282,1.4282,1.4282,1.4288,1.4282,1.4288,1.4282,1.4282,1.4288,1.4288,1.4288,1.4282,1.4282,1.4275,1.4245,1.4072,1.3859,1.3255,1.2843,1.2589,1.1804,1.1188,1.074,1.0281,0.9894,0.9388,0.6988,0.5961,0.6416,0.6242,0.6407,0.6838,0.7002,0.7088,0.7088,0.78,0.8377,0.8818,0.9079,0.953,1.0301,1.049,1.072,1.1145,1.1797,1.2202,1.2214,1.2668,1.3106,1.3376,1.3306,1.3228,1.3099,1.3266,1.3425,1.3495,1.379,1.3958,1.3958,1.4017,1.4055,1.4049,1.4055,1.4029,1.3978,1.3958,1.3932,1.3913,1.3835,1.379,1.3738,1.368,1.3679,1.3679,1.3679,1.3621,1.3528,1.3834,1.3614,1.2574,1.265,1.3049,1.3175,1.359,1.3762,1.3562,1.3894,1.4101,1.4183,1.4679,1.5216,1.5669,1.6254,1.6501,1.6172,1.6419,1.6501,1.6032,1.5951,1.5861,1.578,1.5707,1.5512,1.478,1.4919,1.5289,1.5567,1.5717,1.5461,1.5389,1.5375,1.5211,1.5163,1.5149,1.495,1.4922,1.5013,1.4922,1.4876,1.4876,1.474,1.4687,1.4694,1.4694,1.4694,1.4694,1.4694,1.4694,1.4681,1.4572,1.4563,1.4473,1.3868,1.3538,1.3484,1.2575,1.2039,1.1974,1.1644,1.1418,1.1212,0.9771,0.8811,0.8385,0.8416,0.8451,0.8623,0.889,0.909,0.9113,1.0156,1.1059,1.1685,1.2099,1.2533,1.304,1.2695,1.2443,1.2443,1.2509,1.2631,1.2857,1.2993,1.3307,1.3843,1.3994,1.4114,1.4238,1.4284,1.4251,1.4205,1.4493,1.4748,1.4709,1.4782,1.4841,1.4789,1.4796,1.4743,1.4755,1.4794,1.4819,1.4824,1.474,1.4733,1.4892,1.4876,1.4829,1.4962,1.4999,1.5023,1.4887,1.5494,1.5188,1.4132,1.3887,1.4348,1.466,1.5208,1.5489,1.5291,1.5661,1.5661,1.5497,1.562,1.5834,1.6163,1.6624,1.6747,1.6246,1.6501,1.6624,1.6114,1.5951,1.5853,1.5845,1.5715,1.5528,1.5505,1.5615,1.607,1.6527,1.6777,1.66,1.6479,1.6518,1.6496,1.6543,1.6413,1.5773,1.5651,1.5962,1.5605,1.543,1.543,1.4922,1.4746,1.4753,1.4694,1.4694,1.4708,1.4701,1.4694,1.4708,1.4694,1.4701,1.4708,1.4783,1.4858,1.4966,1.4899,1.4596,1.4374,1.4292,1.4116,1.3759,1.3566,1.2679,1.1071,1.1137,1.1428,1.1952,1.1947,1.1995,1.1905,1.2508,1.2847,1.2982,1.35,1.3909,1.3958,1.3806,1.3739,1.3686,1.3955,1.4416,1.4798,1.444,1.438,1.4899,1.4566,1.4533,1.4973,1.5086,1.4978,1.4796,1.4829,1.4943,1.5003,1.5052,1.5106,1.5099,1.516,1.5092,1.5023,1.495,1.508,1.5385,1.5317,1.5458,1.6189,1.6231,1.6373,1.6585,1.6928,1.6995,1.666,1.7259,1.7656,1.6891,1.6498,1.6201,1.6427,1.6484,1.6772,1.7009,1.7428,1.7264,1.6854,1.7018,1.7478,1.6698,1.6575,1.678,1.6336,1.613,1.6163,1.6089,1.5975,1.5966,1.5958,1.5918,1.5739,1.6119,1.6244,1.6686,1.6951,1.7068,1.7001,1.6979,1.6964,1.6915,1.7019,1.7217,1.6817,1.6572,1.648,1.6295,1.6202,1.6202,1.5971,1.5693,1.5422,1.5422,1.5283,1.4997,1.4997,1.5004,1.5011,1.5092,1.5133,1.516,1.5242,1.5398,1.5445,1.5452,1.539,1.5252,1.521,1.514,1.5006,1.5006,1.4482,1.3537,1.3218,1.3174,1.3373,1.3373,1.3421,1.3421,1.3614,1.3843,1.4207,1.4268,1.4348,1.4684,1.4261,1.4005,1.3925,1.3938,1.427,1.4954,1.4615,1.4677,1.5384,1.5087,1.4932,1.5174,1.5469,1.5547,1.541,1.5245,1.5099,1.5146,1.5194,1.5181,1.5228,1.5415,1.5629,1.5533,1.5839,1.6089,1.6202,1.6292,1.6507,1.6923,1.7258,1.7403,1.7576,1.7928,1.8113,1.7863,1.8499,1.8846,1.8724,1.8731,1.8611,1.8252,1.8434,1.8469,1.8287,1.8491,1.846,1.7796,1.796,1.8164,1.7592,1.7673,1.7469,1.6985,1.6789,1.6698,1.6419,1.6007,1.6007,1.6007,1.6188,1.6342,1.6796,1.6973,1.7314,1.7586,1.7683,1.7637,1.7622,1.7606,1.7532,1.7669,1.7931,1.7821,1.7569,1.7279,1.7053,1.7006,1.7043,1.6909,1.6634,1.6256,1.6256,1.6067,1.5783,1.5783,1.5736,1.5749,1.5847,1.5896,1.5869,1.5815,1.5828,1.578,1.569,1.5607,1.5696,1.5696,1.5716,1.5708,1.5757,1.5569,1.5221,1.483,1.4463,1.4195,1.4171,1.4189,1.4238,1.4336,1.4624,1.5112,1.4928,1.4984,1.5316,1.4892,1.4509,1.4377,1.4276,1.4451,1.5041,1.4852,1.4969,1.5491,1.5425,1.5404,1.5546,1.583,1.6114,1.6256,1.6208,1.6234,1.6032,1.6025,1.6119,1.6346,1.672,1.6821,1.6634,1.6915,1.7048,1.6946,1.725,1.7722,1.8019,1.8452,1.8708,1.8716,1.9021,1.9237,1.9272,1.9881,2.0433,2.019,2.0692,2.0625,1.9872,1.9909,1.9934,1.9486,1.9414,1.9231,1.8437,1.8573,1.8695,1.8205,1.8573,1.8573,1.7928,1.7723,1.76,1.6985,1.6575,1.6575,1.6944,1.71,1.7346,1.765,1.7734,1.8025,1.8452,1.8915,1.8729,1.8608,1.8608,1.8592,1.8624,1.864,1.8616,1.8608,1.8504,1.793,1.7772,1.7848,1.7424,1.7224,1.7128,1.7087,1.7102,1.7117,1.7117,1.7054,1.688,1.6862,1.6987,1.6987,1.656,1.6353,1.6367,1.5904,1.5716,1.5874,1.5894,1.5962,1.6015,1.6029,1.6049,1.6049,1.595,1.5387,1.4508,1.444,1.4539,1.4545,1.5005,1.526,1.5317,1.5715,1.6013,1.6056,1.5871,1.5624,1.5497,1.5463,1.547,1.5545,1.556,1.5663,1.5683,1.5898,1.5891,1.6577,1.6714,1.6954,1.715,1.8065,1.8335,1.8265,1.8092,1.8357,1.904,1.9294,1.8938,1.8192,1.8208,1.7904,1.7748,1.8269,1.8977,1.9919,2.01,2.0236,2.0433,2.0835,2.1065,2.1088,2.1867,2.2062,2.188,2.1915,2.198,2.1337,2.1056,2.0848,2.0517,2.0219,2.0056,1.9241,1.8695,1.8786,1.8818,1.8899,1.8899,1.8736,1.8614,1.8491,1.8083,1.76,1.76,1.7837,1.8369,1.8573,1.887,1.8912,1.9354,1.9478,1.9329,1.9378,1.9402,1.9394,1.9231,1.9232,1.9207,1.9118,1.9126,1.9174,1.8962,1.868,1.8448,1.824,1.7999,1.7758,1.771,1.7518,1.7236,1.7188,1.6987,1.6761,1.6751,1.6901,1.6946,1.6461,1.6412,1.6651,1.6553,1.6342,1.6136,1.6341,1.6425,1.6126,1.6133,1.6133,1.6139,1.6133,1.5897,1.5594,1.5548,1.5529,1.5529,1.5728,1.5827,1.5778,1.5983,1.6133,1.6119,1.599,1.5784,1.5614,1.5587,1.5627,1.5848,1.6313,1.6831,1.7258,1.7853,1.8328,1.8888,1.9223,1.951,1.9663,1.9623,2.011,2.0979,2.0404,1.9742,2.0064,2.0386,2.0463,2.0141,1.992,1.9888,2.0049,2.0455,2.073,2.0748,2.1303,2.1757,2.172,2.1959,2.2146,2.2211,2.2514,2.2643,2.2503,2.2482,2.2482,2.2289,2.1874,2.163,2.1504,2.1326,2.1233,2.0755,2.0302,2.0323,2.017,1.9956,1.9581,1.954,1.9021,1.9021,1.8899,1.8419,1.8419,1.8614,1.9103,1.9347,2.01,2.015,2.051,2.046,2.0167,2.0292,2.0342,2.0325,2.0158,1.9999,1.9874,1.9925,1.9842,1.969,1.9798,1.9576,1.9077,1.8964,1.8785,1.8534,1.8485,1.8321,1.8082,1.8041,1.7844,1.755,1.7545,1.7665,1.7734,1.717,1.712,1.7556,1.737,1.7071,1.6863,1.7121,1.7121,1.6827,1.6777,1.6777,1.6777,1.6777,1.6826,1.6903,1.6833,1.6549,1.6207,1.611,1.6133,1.6133,1.6133,1.6133,1.6119,1.6327,1.6426,1.6335,1.6606,1.6837,1.6973,1.7535,1.8105,1.8744,1.9345,1.9987,2.0702,2.1087,2.128,2.1385,2.1625,2.2212,2.2969,2.2586,2.1973,2.1821,2.2038,2.2038,2.1745,2.1574,2.1611,2.1702,2.1716,2.1689,2.1696,2.2171,2.2341,2.2327,2.2444,2.2566,2.2665,2.2686,2.2686,2.2686,2.2675,2.2665,2.2568,2.231,2.1758,2.1579,2.1568,2.1736,2.183,2.1586,2.1459,2.1425,2.1144,2.0691,2.0171,1.9611,1.9439,1.9439,1.9357,1.9307,1.9561,1.9845,2.0089,2.1355,2.1355,2.1405,2.1405,2.1364,2.1339,2.1372,2.1348,2.1331,2.1035,2.0731,2.1102,2.0765,2.0156,2.0477,2.0334,1.9947,1.9757,1.9525,1.9417,1.9467,1.9557,1.9586,1.9527,1.9468,1.9375,1.9422,1.9446,1.9407,1.866,1.8452,1.8718,1.8265,1.8021,1.8142,1.8155,1.8178,1.801,1.8003,1.8018,1.8149,1.8018,1.8025,1.8106,1.8032,1.7553,1.6472,1.6235,1.6223,1.616,1.6146,1.6139,1.6381,1.7055,1.7657,1.7783,1.8525,1.9076,1.9117,1.9199,1.9568,2.0085,2.0192,2.0885,2.1795,2.196,2.2116,2.2653,2.3209,2.391,2.4095,2.4452,2.4619,2.4541,2.4202,2.3884,2.3259,2.299,2.2879,2.2559,2.2294,2.2296,2.2738,2.2726,2.255,2.2517,2.2492,2.2562,2.2707,2.2751,2.2708,2.2686,2.2686,2.2686,2.2686,2.2622,2.1957,2.1446,2.1448,2.1534,2.1599,2.1505,2.1651,2.1639,2.1645,2.1229,2.0957,2.0477,2.0456,2.0405,2.0272,2.0171,2.0414,2.0658,2.0871,2.1965,2.1659,2.2016,2.1965,2.1685,2.1739,2.1801,2.1801,2.1801,2.1698,2.1595,2.1749,2.1595,2.1389,2.1492,2.1371,2.1097,2.0977,2.0536,1.993,2.0107,2.009,1.9894,1.9851,1.9581,1.9217,1.8815,1.8866,1.91,1.866,1.8523,1.8881,1.9178,1.8815,1.8368,1.8869,1.9022,1.8259,1.8208,1.8208,1.8208,1.8208,1.8267,1.8306,1.8275,1.8026,1.7734,1.7284,1.68,1.6425,1.6639,1.6935,1.7198,1.7523,1.8012,1.8647,1.8993,1.9577,2.0307,2.1005,2.1594,2.2182,2.2769,2.3502,2.4194,2.4194,2.4243,2.4389,2.4292,2.4205,2.4817,2.4449,2.4565,2.5147,2.5195,2.5035,2.4626,2.4351,2.3546,2.2512,2.2857,2.3193,2.2973,2.2926,2.3237,2.3213,2.3108,2.3016,2.2911,2.2869,2.2848,2.2729,2.2708,2.2686,2.2686,2.2686,2.2353,2.2021,2.1903,2.1797,2.1778,2.1736,2.1842,2.183,2.188,2.1782,2.1547,2.1379,2.1265,2.1159,2.0924,2.0984,2.1205,2.1316,2.1316,2.4242,2.3973,2.4284,2.4232,2.3931,2.4065,2.3814,2.3445,2.3384,2.2983,2.2453,2.2495,2.234,2.2132,2.2184,2.2166,2.1967,2.2122,2.1734,2.0968,2.0918,2.0875,2.0729,2.0703,2.055,2.0116,1.971,1.9607,1.9758,1.9543,1.9543,1.9852,2.0338,2.0346,1.9731,2.0309,2.0317,1.9687,1.9474,1.9312,1.9261,1.9107,1.9006,1.9143,1.9418,1.9529,1.9409,1.9367,1.8686,1.7545,1.7495,1.7836,1.8233,1.8803,1.9536,2.0275,2.0808,2.1348,2.1986,2.2632,2.3219,2.3756,2.4341,2.4876,2.5372,2.5518,2.5518,2.5372,2.4984,2.4789,2.5254,2.4868,2.475,2.5399,2.5399,2.5356,2.5249,2.5087,2.4471,2.3505,2.3693,2.3775,2.363,2.3529,2.3894,2.3797,2.3668,2.344,2.3235,2.3051,2.2966,2.2826,2.274,2.2718,2.2686,2.2686,2.2686,2.2622,2.2514,2.2449,2.2396,2.2289,2.2332,2.2128,2.2072,2.1933,2.1719,2.1719,2.1687,2.1577,2.1448,2.1437,2.1437,2.1308,2.1286,2.7596,2.7723,2.7659,2.7406,2.7354,2.7365,2.6557,2.5681,2.5577,2.4478,2.3234,2.3356,2.3087,2.2445,2.2751,2.2823,2.2573,2.295,2.2961,2.2565,2.2264,2.2054,2.2039,2.2065,2.1934,2.1795,2.1656,2.144,2.112,2.1208,2.1378,2.1224,2.1838,2.2168,2.2081,2.2354,2.258,2.2229,2.1786,2.1552,2.15,2.0912,2.0652,2.0712,2.1423,2.1674,2.1414,2.1906,2.1243,1.8959,1.894,1.9225,1.9643,2.0826,2.1701,2.2289,2.3424,2.3707,2.3951,2.4,2.4243,2.4643,2.474,2.4935,2.5421,2.5518,2.5518,2.5518,2.5421,2.5421,2.5469,2.5399,2.5399,2.5448,2.5378,2.5184,2.4915,2.5044,2.4762,2.4498,2.4484,2.4463,2.4338,2.4201,2.4054,2.3905,2.383,2.37,2.3472,2.33,2.3084,2.2933,2.2848,2.2751,2.2729,2.2686,2.2686,2.2686,2.2686,2.2686,2.2686,2.2643,2.2611,2.2406,2.2245,2.2094,2.1997,2.1997,2.1954,2.1836,2.1739,2.1674,2.1599,2.1502,2.1405,2.6787,2.767,2.7723,2.7723,2.7723,2.7723,2.6976,2.5816,2.5906,2.5216,2.4032,2.3979,2.4017,2.3728,2.3815,2.3871,2.375,2.3865,2.399,2.3859,2.3704,2.3164,2.2628,2.2539,2.261,2.2592,2.267,2.2232,2.2056,2.2397,2.231,2.21,2.3635,2.4122,2.3887,2.4969,2.54,2.5059,2.4702,2.4416,2.4283,2.3639,2.3357,2.3306,2.3211,2.3117,2.2962,2.3211,2.2894,2.1565,2.1322,2.143,2.1732,2.2088,2.271,2.3483,2.3863,2.4341,2.4935,2.5081,2.5178,2.5275,2.5227,2.5372,2.5469,2.5518,2.5518,2.5518,2.5518,2.5518,2.5518,2.5518,2.5518,2.5518,2.5443,2.5324,2.5141,2.5167,2.5055,2.4775,2.471,2.4646,2.4574,2.4445,2.4315,2.4075,2.3978,2.3924,2.3709,2.3569,2.3418,2.3094,2.2922,2.2848,2.2762,2.2708,2.2686,2.2686,2.2686,2.2686,2.2686,2.2665,2.2654,2.2589,2.2503,2.2374,2.2288,2.2202,2.2159,2.2094,2.1976,2.1889,2.1879,2.1856,2.1685,2.8543,2.9255,2.9255,2.9255,2.9267,2.9369,2.8646,2.7639,2.7493,2.6797,2.5716,2.5144,2.5,2.4948,2.4524,2.4368,2.4444,2.4444,2.4447,2.464,2.4996,2.4793,2.4262,2.4112,2.4343,2.4726,2.4726,2.4596,2.4414,2.4562,2.4534,2.4601,2.5655,2.6129,2.587,2.6669,2.7187,2.6766,2.642,2.6066,2.5651,2.5218,2.4726,2.4574,2.4451,2.4709,2.4935,2.5118,2.4512,2.3319,2.2946,2.32,2.349,2.3572,2.3906,2.4729,2.4705,2.4935,2.5324,2.5518,2.5518,2.5518,2.5518,2.5518,2.5518,2.5518,2.5518,2.5518,2.5518,2.5518,2.5518,2.5518,2.5518,2.5518,2.5518,2.5421,2.5206,2.527,2.5195,2.5044,2.4947,2.4926,2.4801,2.465,2.442,2.428,2.414,2.4054,2.3924,2.3873,2.3722,2.3408,2.3094,2.2955,2.2869,2.2805,2.2708,2.2697,2.2686,2.2686,2.2686,2.2686,2.2675,2.2675,2.2675,2.2654,2.2525,2.2449,2.2449,2.2395,2.2212,2.2126,2.2116,2.2114,2.1954,3.1291,3.1433,3.1433,3.1433,3.1363,3.1633,3.074,2.9876,2.9611,2.884,2.7556,2.6638,2.6286,2.6162,2.5573,2.4919,2.5146,2.5361,2.5296,2.5698,2.6259,2.6538,2.656,2.6299,2.6642,2.7208,2.7651,2.7271,2.6796,2.7218,2.7313,2.7039,2.7632,2.8067,2.7981,2.8269,2.8289,2.8232,2.7837,2.7415,2.6921,2.6545,2.613,2.5759,2.5954,2.6396,2.6758,2.6916,2.6099,2.3881,2.4199,2.4578,2.4899,2.5092,2.5282,2.5602,2.5501,2.5421,2.5518,2.5518,2.5518,2.5518,2.5518,2.5518,2.5518,2.5518,2.5518,2.5518,2.5518,2.5518,2.5518,2.5518,2.5518,2.5518,2.5518,2.5421,2.5313,2.5399,2.5432,2.5249,2.5216,2.5206,2.5113,2.4865,2.4531,2.4377,2.4247,2.4107,2.4021,2.3946,2.3873,2.3722,2.3418,2.3116,2.2987,2.2858,2.2783,2.2708,2.2686,2.2686,2.2686,2.2686,2.2686,2.2686,2.2686,2.2686,2.2654,2.2632,2.2675,2.2632,2.2428,2.2385,2.2363,2.2288,2.218,3.0776,3.1722,3.1722,3.1722,3.1735,3.1729,3.1065,2.9887,3.0006,2.934,2.8196,2.7813,2.7781,2.7781,2.7384,2.7458,2.7263,2.7274,2.7542,2.7606,2.7735,2.8511,2.8755,2.8381,2.8049,2.8306,2.822,2.808,2.7984,2.8197,2.808,2.8058,2.9063,2.9625,2.961,3.0111,3.0752,3.074,3.0107,2.97,2.9417,2.8832,2.837,2.8036,2.7844,2.7627,2.7539,2.7434,2.6886,2.6333,2.6031,2.5966,2.6001,2.5823,2.579,2.5813,2.5679,2.5529,2.5518,2.5529,2.5518,2.5518,2.5518,2.5518,2.5518,2.5518,2.5518,2.5518,2.5518,2.5518,2.5518,2.5518,2.5518,2.5518,2.5518,2.5496,2.5464,2.5437,2.5475,2.5453,2.5421,2.5378,2.5254,2.4947,2.4689,2.4495,2.4323,2.4151,2.4097,2.4064,2.3957,2.3884,2.3689,2.3408,2.3278,2.3128,2.2945,2.2815,2.2772,2.2697,2.2697,2.2686,2.2686,2.2686,2.2686,2.2686,2.2686,2.2686,2.2708,2.2643,2.2632,2.2579,2.2525,2.2471,2.2417,3.0464,3.1614,3.1614,3.1614,3.1638,3.1747,3.1403,3.0829,3.0869,3.0484,2.9816,2.9371,2.9135,2.9082,2.8597,2.8263,2.8274,2.8328,2.8597,2.8974,2.9189,2.9791,3.0607,3.0339,2.9964,2.9898,3.0006,2.9872,2.9838,2.9819,2.9979,2.9781,3.0549,3.0851,3.0874,3.1319,3.1556,3.1604,3.1421,3.1099,3.0741,3.0443,2.9865,2.9683,2.9336,2.9024,2.8572,2.812,2.7794,2.7432,2.7039,2.6756,2.6702,2.6412,2.6229,2.6153,2.5862,2.5701,2.5679,2.5583,2.5518,2.5518,2.5518,2.5518,2.5518,2.5518,2.5518,2.5518,2.5518,2.5518,2.5518,2.5518,2.5518,2.5518,2.5518,2.5518,2.5518,2.5518,2.5518,2.5518,2.5507,2.5453,2.5303,2.5076,2.498,2.4876,2.452,2.4312,2.4247,2.4204,2.4075,2.3946,2.3862,2.37,2.3582,2.3365,2.3138,2.2965,2.2869,2.2794,2.2708,2.2697,2.2686,2.2686,2.2686,2.2686,2.2686,2.2686,2.2686,2.2675,2.2665,2.2675,2.2665,2.2589,2.2557,3.044,3.1445,3.1457,3.1457,3.1493,3.171,3.1754,3.1742,3.1807,3.1581,3.1647,3.0767,3.0339,3.0167,2.9458,2.892,2.892,2.9028,2.9684,3.0274,3.0339,3.0821,3.1433,3.154,3.1486,3.1807,3.154,3.1516,3.1516,3.1754,3.1356,3.1635,3.1688,3.1593,3.1754,3.1759,3.1735,3.1759,3.159,3.131,3.0915,3.0874,3.0582,3.0212,3.0107,3.0014,2.941,2.8906,2.8514,2.8279,2.748,2.7125,2.6998,2.6735,2.6584,2.6602,2.6099,2.5912,2.5798,2.569,2.5583,2.5539,2.5572,2.555,2.5539,2.5518,2.5518,2.5518,2.5518,2.5518,2.5518,2.5518,2.5518,2.5518,2.5518,2.5518,2.5518,2.5518,2.5518,2.5518,2.5518,2.5486,2.541,2.526,2.5216,2.5167,2.4801,2.4531,2.4466,2.438,2.4215,2.4086,2.3946,2.384,2.3711,2.3635,2.3365,2.3116,2.3019,2.2966,2.2848,2.2912,2.2912,2.2718,2.2686,2.2697,2.2697,2.2686,2.2686,2.2686,2.2686,2.2686,2.2686,2.2686,2.2686,3.0709,3.1735,3.1735,3.1735,3.1747,3.1795,3.1807,3.1807,3.1807,3.1807,3.1754,3.1581,3.1421,3.1368,3.1368,3.1207,3.0886,3.0833,3.1047,3.1368,3.1368,3.1647,3.17,3.1807,3.1807,3.1807,3.1807,3.1807,3.1807,3.1807,3.1807,3.1807,3.1807,3.1807,3.1747,3.1614,3.1638,3.1735,3.1505,3.1243,3.1255,3.1111,3.0982,3.0714,3.0686,3.0446,3.0061,2.9549,2.911,2.8808,2.8096,2.774,2.7509,2.7029,2.6779,2.653,2.6196,2.6009,2.5987,2.5901,2.5712,2.5626,2.5701,2.5701,2.5604,2.5529,2.555,2.5529,2.5529,2.5529,2.5518,2.5518,2.5518,2.5518,2.5518,2.5518,2.5518,2.5518,2.5518,2.5518,2.5518,2.5518,2.5443,2.5378,2.5313,2.5206,2.4969,2.4757,2.465,2.4542,2.4366,2.4226,2.4086,2.397,2.3819,2.3765,2.3625,2.3321,2.317,2.3159,2.3149,2.3235,2.3181,2.2966,2.2815,2.2794,2.2772,2.2762,2.2783,2.2848,2.2783,2.2708,2.2794,2.288,2.2805,3.0767,3.1754,3.1807,3.1807,3.1807,3.1807,3.1807,3.1807,3.1807,3.1807,3.1807,3.1807,3.1807,3.1807,3.1807,3.1807,3.1807,3.1807,3.1807,3.1807,3.1807,3.1807,3.1807,3.1807,3.1807,3.1807,3.1807,3.1807,3.1807,3.1807,3.1807,3.1807,3.1807,3.1807,3.1795,3.1698,3.1674,3.171,3.1553,3.1457,3.159,3.1445,3.136,3.1195,3.1181,3.1147,3.0905,3.0306,2.988,2.9533,2.8866,2.8416,2.8127,2.7822,2.7377,2.6855,2.6473,2.6278,2.6196,2.6142,2.6002,2.5889,2.6002,2.6002,2.5884,2.5798,2.5669,2.5583,2.5658,2.5647,2.5539,2.5529,2.5518,2.5518,2.5518,2.5518,2.5518,2.5518,2.5518,2.5518,2.5518,2.5518,2.5507,2.5443,2.5378,2.526,2.512,2.4969,2.4844,2.4736,2.457,2.4452,2.4323,2.4161,2.4056,2.3991,2.3873,2.3569,2.3418,2.3408,2.3375,2.3418,2.3354,2.3192,2.3063,2.3052,2.3052,2.3128,2.3074,2.3031,2.3052,2.3063,2.3063,2.3052,2.2998,3.0767,3.1807,3.1807,3.1807,3.1807,3.1807,3.1807,3.1807,3.1807,3.1807,3.1807,3.1807,3.1807,3.1807,3.1807,3.1807,3.1807,3.1807,3.1807,3.1807,3.1807,3.1807,3.1807,3.1807,3.1807,3.1807,3.1807,3.1807,3.1807,3.1807,3.1807,3.1807,3.1807,3.1807,3.1795,3.1771,3.1807,3.1807,3.1807,3.1807,3.1807,3.1795,3.171,3.1505,3.1686,3.1729,3.1616,3.107,3.061,3.0205,2.9636,2.9043,2.8785,2.8637,2.8178,2.7378,2.6967,2.6819,2.6681,2.6422,2.6272,2.6114,2.6261,2.6272,2.6136,2.6013,2.5873,2.5744,2.5733,2.5798,2.5647,2.555,2.5529,2.5518,2.5518,2.5518,2.5518,2.5518,2.5518,2.5518,2.5518,2.5518,2.5507,2.5507,2.5443,2.5432,2.5292,2.5184,2.5033,2.4947,2.4829,2.471,2.457,2.442,2.4301,2.4272,2.4121,2.3849,2.3741,2.3709,2.3623,2.3558,2.3515,2.3548,2.3548,2.3537,2.3515,2.3418,2.3289,2.3257,2.3354,2.3365,2.3268,2.3257,2.3235,3.0767,3.1807,3.1807,3.1807,3.186,3.186,3.186,3.186,3.186,3.1807,3.186,3.1807,3.1807,3.1807,3.1807,3.1807,3.1807,3.1807,3.1807,3.1807,3.1807,3.1807,3.1807,3.1807,3.1807,3.1807,3.1807,3.1807,3.1807,3.1807,3.1807,3.1807,3.1807,3.1807,3.1807,3.1807,3.1807,3.1807,3.1807,3.1807,3.1807,3.1807,3.1771,3.1759,3.1783,3.1807,3.1783,3.1407,3.1154,3.0838,3.0137,2.9608,2.9283,2.8841,2.8637,2.8212,2.7812,2.7302,2.7263,2.6977,2.6688,2.6602,2.6595,2.6462,2.6376,2.6272,2.6157,2.6114,2.6024,2.5955,2.5819,2.5647,2.5561,2.5529,2.5539,2.5529,2.5518,2.5518,2.5518,2.5518,2.5518,2.5518,2.5518,2.5518,2.5507,2.5507,2.5475,2.5356,2.527,2.5173,2.5044,2.4904,2.4807,2.4657,2.4538,2.4463,2.4366,2.414,2.4097,2.4054,2.4,2.3967,2.4,2.4021,2.4021,2.3935,2.3817,2.3677,2.3494,2.3558,2.3752,2.3623,2.3397,2.3429,2.3591,3.2328,3.2754,3.2766,3.2766,3.2766,3.2766,3.2754,3.2713,3.2394,3.2275,3.218,3.1914,3.1807,3.1807,3.1807,3.1807,3.1807,3.1807,3.1807,3.1807,3.1807,3.1807,3.1807,3.1807,3.1807,3.1807,3.1807,3.1807,3.1807,3.1807,3.1807,3.1807,3.1807,3.1807,3.1807,3.1807,3.1807,3.1807,3.1807,3.1807,3.1807,3.1807,3.1807,3.1807,3.1807,3.1807,3.1771,3.171,3.1493,3.1187,3.0702,3.0347,3.0097,2.975,2.9503,2.944,2.8901,2.8426,2.8122,2.7857,2.7615,2.7593,2.7576,2.7492,2.7034,2.6692,2.6476,2.6189,2.6272,2.6257,2.6106,2.5852,2.5766,2.5739,2.5728,2.5626,2.5615,2.5518,2.5518,2.5518,2.5566,2.5664,2.5761,2.5712,2.5712,2.5615,2.5604,2.5599,2.5507,2.5399,2.5238,2.5066,2.498,2.4893,2.4775,2.4678,2.4667,2.4527,2.4517,2.4474,2.4452,2.4452,2.442,2.4452,2.4484,2.4344,2.4151,2.4075,2.4021,2.4097,2.4204,2.4121,2.4069,2.4196,2.4294,3.3935,3.3922,3.3604,3.3498,3.3498,3.3498,3.3498,3.3392,3.302,3.282,3.2766,3.2447,3.218,3.202,3.202,3.1967,3.1807,3.1807,3.1807,3.1807,3.1807,3.1807,3.1807,3.1807,3.1807,3.1807,3.1807,3.1807,3.1807,3.1807,3.1807,3.1807,3.1807,3.1807,3.1807,3.1807,3.1807,3.1807,3.1807,3.1807,3.1807,3.1807,3.1807,3.1807,3.1807,3.1807,3.1807,3.1795,3.1662,3.1384,3.1119,3.0738,3.0485,3.0194,3.0073,3.0011,2.962,2.9366,2.901,2.8705,2.8637,2.8586,2.8586,2.8178,2.7812,2.7414,2.7272,2.7041,2.6968,2.6946,2.6715,2.6552,2.6414,2.6342,2.6183,2.602,2.5906,2.6003,2.61,2.6197,2.6245,2.6148,2.6148,2.6051,2.5906,2.5809,2.5761,2.5858,2.5836,2.5776,2.5689,2.5589,2.5454,2.5326,2.5135,2.5038,2.4995,2.493,2.4908,2.4807,2.4721,2.47,2.4678,2.4753,2.484,2.4786,2.4603,2.4592,2.4581,2.4527,2.4517,2.4786,2.4841,2.4912,2.4822,3.5098,3.498,3.3975,3.3551,3.3551,3.3498,3.3551,3.3657,3.3498,3.3404,3.3339,3.3339,3.2967,3.2648,3.25,3.2287,3.1807,3.1807,3.1807,3.1807,3.1807,3.1807,3.1807,3.1807,3.1807,3.1807,3.1807,3.1807,3.1807,3.1807,3.1807,3.1807,3.1807,3.1807,3.1807,3.1807,3.1807,3.1807,3.1807,3.1807,3.1807,3.1807,3.1807,3.1807,3.1807,3.1807,3.1807,3.1807,3.1722,3.1445,3.1155,3.0926,3.0672,3.0371,3.0238,3.0163,3.0112,2.9909,2.9757,2.9248,2.8739,2.8637,2.8637,2.8677,2.8455,2.8439,2.8376,2.8144,2.793,2.7941,2.7799,2.7699,2.727,2.712,2.6909,2.673,2.6651,2.6681,2.6826,2.6971,2.6874,2.6681,2.6729,2.6632,2.6487,2.6342,2.6439,2.6476,2.6528,2.6517,2.6361,2.626,2.6016,2.5836,2.5544,2.5528,2.5567,2.5432,2.5315,2.5075,2.4883,2.4883,2.4969,2.4947,2.5012,2.5044,2.5066,2.498,2.4904,2.4818,2.4887,2.5064,2.5228,2.5286,2.509,3.5204,3.5151,3.4729,3.4557,3.4557,3.4557,3.4557,3.4451,3.4134,3.3763,3.3551,3.3498,3.3392,3.3179,3.3126,3.286,3.2328,3.2275,3.2074,3.186,3.1807,3.1807,3.1807,3.1807,3.1807,3.1807,3.1807,3.1807,3.1807,3.1807,3.1807,3.1807,3.1807,3.1807,3.1807,3.1807,3.1807,3.1807,3.1807,3.1807,3.1807,3.1807,3.1807,3.1807,3.1807,3.1807,3.1807,3.1807,3.1735,3.1566,3.1215,3.0998,3.0793,3.0455,3.0262,3.0226,3.0226,3.0214,3.0226,2.9808,2.9604,2.9503,2.935,2.9096,2.9045,2.8841,2.8637,2.854,2.8596,2.8555,2.842,2.8129,2.7874,2.781,2.7714,2.7522,2.7433,2.7412,2.732,2.7368,2.7212,2.6971,2.7164,2.7308,2.7115,2.6922,2.7019,2.7152,2.7203,2.718,2.6999,2.6854,2.6667,2.65,2.6297,2.6216,2.6186,2.5998,2.5751,2.553,2.5321,2.5249,2.5303,2.5249,2.5206,2.526,2.5292,2.5281,2.5227,2.5152,2.5184,2.5329,2.5462,2.5541,2.5369,3.5204,3.5204,3.5204,3.5204,3.5204,3.5204,3.5204,3.5151,3.4768,3.4398,3.4028,3.4028,3.3869,3.3763,3.371,3.3392,3.2914,3.2648,3.2394,3.2127,3.1914,3.1807,3.1807,3.1807,3.1807,3.1807,3.1807,3.1807,3.1807,3.1807,3.1807,3.1807,3.1807,3.1807,3.1807,3.1807,3.1807,3.1807,3.1807,3.1807,3.1807,3.1807,3.1807,3.1807,3.1807,3.1807,3.1807,3.1807,3.1807,3.165,3.1421,3.1167,3.0938,3.0684,3.0395,3.0259,3.0262,3.0226,3.0226,3.0298,3.0286,3.0035,2.9966,2.9726,2.9514,2.9299,2.9248,2.9197,2.9135,2.9045,2.9022,2.8906,2.8781,2.879,2.8506,2.832,2.8131,2.8085,2.7908,2.7766,2.7658,2.7646,2.7742,2.7935,2.7791,2.7658,2.7742,2.7839,2.7827,2.7767,2.7575,2.743,2.7262,2.7178,2.7056,2.6865,2.6687,2.6602,2.6375,2.6168,2.5974,2.5809,2.5566,2.5421,2.541,2.5496,2.5475,2.541,2.5443,2.5475,2.5572,2.5674,2.5577,2.5657,2.5608,3.5204,3.5204,3.5204,3.5204,3.5204,3.5204,3.5204,3.5204,3.5138,3.5032,3.498,3.498,3.4716,3.4398,3.4293,3.3975,3.3498,3.2967,3.2648,3.2435,3.2127,3.1914,3.1807,3.1807,3.1807,3.1807,3.1807,3.1807,3.1807,3.1807,3.1807,3.1807,3.1807,3.1807,3.1807,3.1807,3.1807,3.1807,3.1807,3.1807,3.1807,3.1807,3.1807,3.1807,3.1807,3.1807,3.1807,3.1807,3.1807,3.1735,3.1505,3.1324,3.1252,3.0853,3.0612,3.0552,3.0383,3.0286,3.0262,3.0479,3.0515,3.0383,3.0338,3.0314,3.0196,3.0085,3.0008,2.9828,2.9933,3.0011,3.0016,2.9857,2.9699,2.9529,2.9252,2.9023,2.8831,2.8664,2.8508,2.8306,2.8392,2.8536,2.8536,2.8524,2.8476,2.8476,2.8524,2.8524,2.838,2.8236,2.8043,2.7935,2.7791,2.7742,2.7598,2.7357,2.7152,2.7115,2.6971,2.6729,2.6536,2.6342,2.6051,2.5712,2.5615,2.5712,2.5615,2.5507,2.5518,2.5566,2.5858,2.5992,2.5858,2.5701,2.562,3.5204,3.5204,3.5204,3.5204,3.5204,3.5204,3.5204,3.5204,3.5204,3.5204,3.5204,3.5204,3.5098,3.494,3.4834,3.4557,3.4081,3.3922,3.3551,3.2648,3.2394,3.2127,3.1914,3.1807,3.1807,3.1807,3.1807,3.1807,3.1807,3.1807,3.1807,3.1807,3.1807,3.1807,3.1807,3.1807,3.1807,3.1807,3.1807,3.1807,3.1807,3.1807,3.1807,3.1807,3.1807,3.1807,3.1807,3.1807,3.1807,3.1783,3.1553,3.1433,3.1372,3.1022,3.0805,3.0733,3.06,3.0745,3.0793,3.095,3.0998,3.0829,3.066,3.0696,3.0684,3.0371,3.0358,3.0383,3.0322,3.0274,3.0115,3.0103,2.998,2.9932,2.9763,2.9607,2.945,2.927,2.9065,2.8872,2.8837,2.8777,2.8729,2.8777,2.8777,2.8657,2.8644,2.8596,2.8488,2.8476,2.838,2.838,2.8332,2.8236,2.8139,2.7887,2.7694,2.7598,2.7501,2.7308,2.7115,2.6874,2.6536,2.6197,2.6051,2.5954,2.5761,2.5615,2.5518,2.5615,2.5809,2.5906,2.5712,2.5615,2.5556,3.5204,3.5204,3.5204,3.5204,3.5204,3.5204,3.5204,3.5204,3.5204,3.5204,3.5204,3.5204,3.5204,3.5204,3.5151,3.5085,3.461,3.4346,3.4134,3.3126,3.2701,3.2447,3.2127,3.186,3.1807,3.1807,3.1807,3.1807,3.1807,3.1807,3.1807,3.1807,3.1807,3.1807,3.1807,3.1807,3.1807,3.1807,3.1807,3.1807,3.1807,3.1807,3.1807,3.1807,3.1807,3.1807,3.1807,3.1807,3.1807,3.1747,3.165,3.1529,3.1457,3.1276,3.1059,3.0986,3.0902,3.1046,3.1143,3.1228,3.1264,3.1288,3.1022,3.0926,3.0926,3.0588,3.0588,3.0576,3.0467,3.0395,3.0358,3.0346,3.0298,3.025,3.0117,2.9948,2.9755,2.9574,2.9441,2.926,2.9103,2.8982,2.891,2.8922,2.897,2.8862,2.8717,2.8669,2.8608,2.8584,2.8572,2.8572,2.8572,2.8476,2.8428,2.8428,2.8236,2.8079,2.7935,2.7791,2.755,2.7308,2.7019,2.6729,2.6584,2.639,2.5954,2.5712,2.5615,2.5566,2.5566,2.5566,2.5518,2.5518,2.5518,3.5204,3.5204,3.5204,3.5204,3.5204,3.5204,3.5204,3.5204,3.5204,3.5204,3.5204,3.5204,3.5204,3.5204,3.5204,3.5151,3.5085,3.461,3.4293,3.3922,3.3179,3.2807,3.2394,3.2074,3.186,3.1807,3.1807,3.1807,3.1807,3.1807,3.1807,3.1843,3.1831,3.1819,3.1807,3.1807,3.1807,3.1807,3.1807,3.1807,3.1807,3.1807,3.1807,3.1807,3.1807,3.1807,3.1807,3.1807,3.1807,3.1795,3.1783,3.1783,3.171,3.1541,3.1445,3.1336,3.1167,3.1203,3.136,3.1457,3.1529,3.1602,3.1493,3.1288,3.1059,3.0829,3.0745,3.0781,3.0733,3.066,3.0612,3.0564,3.0515,3.0407,3.0286,3.0105,2.99,2.9755,2.9658,2.9526,2.9381,2.9284,2.9248,2.9248,2.9188,2.9091,2.8994,2.8886,2.8753,2.8632,2.8632,2.8572,2.8572,2.8572,2.8584,2.8596,2.8524,2.8332,2.838,2.8284,2.7983,2.7791,2.755,2.7308,2.7115,2.6826,2.6439,2.6003,2.5664,2.5615,2.5626,2.5518,2.5518,2.5518,2.5518,3.5204,3.5204,3.5204,3.5204,3.5204,3.5204,3.5204,3.5204,3.5204,3.5204,3.5204,3.5204,3.5204,3.5204,3.5204,3.5204,3.5138,3.498,3.4663,3.4187,3.3604,3.3073,3.2607,3.2127,3.186,3.1807,3.1807,3.1807,3.1807,3.1807,3.1928,3.2048,3.1879,3.1831,3.1807,3.1807,3.1819,3.1807,3.1807,3.1807,3.1807,3.1807,3.1807,3.1807,3.1807,3.1807,3.1807,3.1807,3.1807,3.1807,3.1807,3.1807,3.1795,3.1722,3.1686,3.165,3.1481,3.1384,3.1626,3.1686,3.171,3.1836,3.1764,3.1698,3.1433,3.1159,3.0993,3.1102,3.1145,3.114,3.1164,3.1152,3.0915,3.0681,3.0572,3.0388,3.0206,2.9984,2.9888,2.9755,2.9622,2.955,2.9526,2.9489,2.9429,2.9344,2.9236,2.9115,2.8982,2.8837,2.8705,2.8705,2.8753,2.8801,2.8657,2.8644,2.8608,2.8572,2.862,2.8644,2.8512,2.8259,2.8055,2.7826,2.7583,2.7258,2.6922,2.658,2.6265,2.5901,2.5879,2.5674,2.5529,2.5572,2.5583,3.5204,3.5204,3.5204,3.5204,3.5204,3.5204,3.5204,3.5204,3.5204,3.5204,3.5204,3.5204,3.5204,3.5204,3.5204,3.5204,3.5204,3.5151,3.498,3.4663,3.4028,3.3551,3.2914,3.2394,3.202,3.1914,3.1807,3.1807,3.1819,3.1819,3.1916,3.1976,3.1855,3.1831,3.1843,3.1904,3.1904,3.1855,3.1807,3.1807,3.1807,3.1807,3.1807,3.1807,3.1807,3.1807,3.1807,3.1807,3.1807,3.1807,3.1807,3.1807,3.186,3.1967,3.2328,3.2345,3.2099,3.205,3.2066,3.1902,3.1955,3.2074,3.2127,3.2263,3.2156,3.1954,3.1809,3.1818,3.177,3.1701,3.18,3.1785,3.1395,3.1059,3.0871,3.0735,3.0499,3.0226,3.0105,2.9972,2.9876,2.9803,2.9755,2.9719,2.967,2.9598,2.9513,2.9405,2.9272,2.9127,2.8958,2.8874,2.8946,2.9019,2.891,2.8862,2.891,2.891,2.8813,2.8825,2.885,2.8656,2.8392,2.8161,2.7953,2.7747,2.7613,2.7278,2.6965,2.6646,2.6298,2.6087,2.5913,2.5755,2.5744,3.5204,3.5204,3.5204,3.5204,3.5204,3.5204,3.5204,3.5204,3.5204,3.5204,3.5204,3.5204,3.5204,3.5204,3.5204,3.5204,3.5204,3.5204,3.5204,3.5138,3.4451,3.3869,3.3339,3.286,3.2234,3.1914,3.1819,3.1843,3.1843,3.1843,3.1831,3.1831,3.1819,3.1807,3.1831,3.2036,3.2048,3.194,3.1904,3.1891,3.1819,3.1807,3.1807,3.1807,3.1807,3.1807,3.1807,3.1807,3.1807,3.1807,3.1807,3.1807,3.1914,3.2127,3.266,3.2914,3.261,3.2504,3.2369,3.218,3.2127,3.234,3.2594,3.2701,3.2564,3.2288,3.213,3.2294,3.2254,3.2349,3.2411,3.2319,3.2,3.1588,3.1287,3.1101,3.0851,3.0764,3.0915,3.0741,3.0542,3.0406,3.0117,3.0093,2.9936,2.9864,2.9803,2.9707,2.9574,2.9441,2.9284,2.9115,2.9139,2.9212,2.9224,2.92,2.9272,2.926,2.9139,2.9115,2.9139,2.8958,2.8669,2.8583,2.853,2.8455,2.8295,2.7972,2.7661,2.7403,2.7062,2.6678,2.642,2.6189,2.602,3.5204,3.5204,3.5204,3.5204,3.5204,3.5204,3.5204,3.5204,3.5204,3.5204,3.5204,3.5204,3.5204,3.5204,3.5204,3.5191,3.5111,3.5138,3.5191,3.4966,3.4597,3.4134,3.3498,3.2967,3.2394,3.1967,3.1831,3.1891,3.1964,3.1916,3.1904,3.2036,3.194,3.1807,3.1831,3.2073,3.2169,3.206,3.2133,3.2024,3.1867,3.1819,3.1807,3.1807,3.1807,3.1807,3.1807,3.1807,3.1807,3.1807,3.1807,3.1807,3.1807,3.1967,3.2287,3.2648,3.2807,3.2754,3.2701,3.2541,3.25,3.2328,3.2435,3.2594,3.2614,3.235,3.2353,3.2648,3.2869,3.3003,3.2965,3.2794,3.2614,3.2172,3.1757,3.1468,3.1244,3.1458,3.1736,3.1559,3.1306,3.0925,3.062,3.0358,3.0226,3.0153,3.0129,3.0045,2.9912,2.9779,2.9658,2.9489,2.9357,2.9393,2.9465,2.9513,2.9586,2.9513,2.9393,2.9393,2.9417,2.9332,2.9224,2.9224,2.9173,2.9073,2.8948,2.8678,2.8355,2.8088,2.7805,2.7435,2.7181,2.6932,2.6588,3.5204,3.5204,3.5204,3.5204,3.5204,3.5204,3.5204,3.5204,3.5204,3.5204,3.5204,3.5204,3.5204,3.5191,3.5204,3.4887,3.4807,3.5045,3.4807,3.4623,3.4729,3.4385,3.3816,3.3232,3.2766,3.2287,3.1926,3.1879,3.2,3.1928,3.1904,3.2,3.1867,3.1819,3.1867,3.2133,3.2302,3.2205,3.2386,3.2314,3.2012,3.1904,3.1819,3.1807,3.1807,3.1807,3.1807,3.1807,3.1807,3.1807,3.1807,3.2287,3.234,3.2394,3.2873,3.3339,3.3498,3.3126,3.3179,3.3126,3.2914,3.286,3.3073,3.3498,3.3922,3.3689,3.3161,3.3381,3.3527,3.366,3.3292,3.3043,3.2917,3.26,3.2373,3.2145,3.2031,3.2184,3.2286,3.2209,3.1814,3.1293,3.09,3.0448,3.0276,3.0189,3.0202,3.0214,3.0117,3.0093,2.9972,2.9888,2.9755,2.9743,2.9851,2.9864,2.9864,2.9767,2.9634,2.955,2.9526,2.9695,2.9755,2.961,2.9574,2.9645,2.9495,2.9307,2.9105,2.8909,2.8565,2.8238,2.7967,2.7756,2.7409,3.5204,3.5204,3.5204,3.5204,3.5204,3.5204,3.5204,3.5204,3.5204,3.5204,3.5204,3.5204,3.5191,3.5045,3.5138,3.4557,3.4413,3.4953,3.4649,3.4636,3.49,3.4584,3.4187,3.3763,3.3179,3.2553,3.2074,3.186,3.1855,3.1819,3.1819,3.1807,3.1807,3.1807,3.1964,3.2242,3.2459,3.2398,3.2483,3.2604,3.235,3.2024,3.1928,3.1867,3.1831,3.1831,3.1831,3.1807,3.1807,3.1807,3.1807,3.218,3.2553,3.2607,3.3392,3.3869,3.3922,3.3816,3.3975,3.3763,3.3816,3.3922,3.424,3.4451,3.4768,3.4663,3.4121,3.3909,3.4068,3.3936,3.3555,3.3227,3.3087,3.2988,3.2785,3.2826,3.2878,3.2878,3.289,3.2826,3.2274,3.1725,3.123,3.0764,3.04,3.0301,3.0238,3.0238,3.0238,3.0286,3.025,3.0226,3.0165,3.0189,3.0189,3.0117,3.0045,3.0033,2.99,2.9731,2.9658,2.9864,2.9924,2.9791,2.9791,2.9996,3.0129,3.0025,2.987,2.9652,2.9601,2.9327,2.892,2.8671,2.8314,3.5204,3.5204,3.5204,3.5204,3.5204,3.5204,3.5204,3.5204,3.5204,3.5204,3.5204,3.5125,3.4873,3.4229,3.4953,3.4715,3.4164,3.4794,3.5111,3.5111,3.5045,3.4755,3.4398,3.4134,3.3498,3.282,3.2127,3.186,3.1807,3.1807,3.1807,3.1807,3.1807,3.1843,3.1916,3.2229,3.2519,3.2507,3.2676,3.2845,3.2652,3.2374,3.2169,3.2085,3.2012,3.194,3.1879,3.1819,3.1807,3.1807,3.186,3.2074,3.234,3.266,3.3286,3.4028,3.4081,3.424,3.424,3.424,3.4293,3.4028,3.4187,3.4451,3.4716,3.498,3.4504,3.4134,3.4081,3.375,3.3394,3.3038,3.2819,3.2879,3.2807,3.3302,3.3576,3.3654,3.3733,3.3278,3.2722,3.2233,3.1732,3.1213,3.0623,3.0497,3.0521,3.0497,3.025,3.0358,3.0515,3.0503,3.0503,3.0371,3.025,3.0202,3.0153,3.0165,3.0153,2.9996,2.996,3.0081,3.0093,2.996,3.0141,3.0395,3.0515,3.0503,3.0609,3.0439,3.065,3.0507,3.0033,2.9606,2.9272]},{"header":{"parameterUnit":"m.s-1","parameterCategory":1,"la1":31.0,"la2":29.5877,"lo1":-88.7671,"lo2":-86.6584,"dy":0.0162,"dx":0.0185,"nx":115,"ny":88,"refTime":"2023-10-01T06:00:00:Z","depth":0,"parameterNumber":3,"parameterNumberName":"V-component_of_WINDS"},"data":[0.0,0.0,0.0,0.0,0.0,0.0,0.0,0.0,0.0,0.0,0.0,0.0,0.0,0.0,0.0,0.0,0.0,0.0,0.0,0.0,0.0,0.0,0.0,0.0,0.0,0.0,0.0,0.0,0.0,0.0,0.0,0.0,0.0,0.0,0.0,0.0,0.0,0.0,0.0,0.0,0.0,0.0,0.0,0.0,0.0,0.0,0.0,0.0,0.0,0.0,0.0,0.0,0.0,0.0,0.0,0.0,0.0,0.0,0.0,0.0,0.0,0.0,0.0,0.0,0.0,0.0,0.0,0.0,0.0,0.0,0.0,0.0,0.0,0.0,0.0,0.0,0.0,0.0,0.0,0.0,0.0,0.0,0.0,0.0,0.0,0.0,0.0,0.0,0.0,0.0,0.0,0.0,0.0,0.0,0.0,0.0,0.0,0.0,0.0,0.0,0.0,0.0,0.0,0.0,0.0,0.0,0.0,0.0,0.0,0.0,0.0,0.0,0.0,0.0,0.0,0.0,0.0,0.0,0.0,0.0,0.0,0.0,0.0,0.0,0.0,0.0,0.0,0.0,0.0,0.0,0.0,0.0,0.0,0.0,0.0,0.0,0.0,0.0,0.0,0.0,0.0,0.0,0.0,0.0,0.0,0.0,0.0,0.0,0.0,0.0,0.0,0.0,0.0,0.0,0.0,0.0,0.0,0.0,0.0,0.0,0.0,0.0,0.0,0.0,0.0,0.0,0.0,0.0,0.0,0.0,0.0,0.0,0.0,0.0,0.0,0.0,0.0,0.0,0.0,0.0,0.0,0.0,0.0,0.0,0.0,0.0,0.0,0.0,0.0,0.0,0.0,0.0,0.0,0.0,0.0,0.0,0.0,0.0,0.0,0.0,0.0,0.0,0.0,0.0,0.0,0.0,0.0,0.0,0.0,0.0,0.0,0.0,0.0,0.0,0.0,0.0,0.0,0.0,0.0,0.0,0.0,0.0,0.0,0.0,0.0,0.0,0.0,0.0,0.0,0.0,0.0,0.0,0.0,0.0,0.0,0.0,0.0,0.0,0.0,0.0,0.0,0.0,0.0,0.0,0.0,0.0,0.0,0.0,0.0,0.0,0.0,0.0,0.0,0.0,0.0,0.0,0.0,0.0,0.0,0.0,0.0,0.0,0.0,0.0,0.0,0.0,0.0,0.0,0.0,0.0,0.0,0.0,0.0,0.0,0.0,0.0,0.0,0.0,0.0,0.0,0.0,0.0,0.0,0.0,0.0,0.0,0.0,0.0,0.0,0.0,0.0,0.0,0.0,0.0,0.0,0.0,0.0,0.0,0.0,0.0,0.0,0.0,0.0,0.0,0.0,0.0,0.0,0.0,0.0,0.0,0.0,0.0,0.0,0.0,0.0,0.0,0.0,0.0,0.0,0.0,0.0,0.0,0.0,0.0,0.0,0.0,0.0,0.0,0.0,0.0,0.0,0.0,0.0,0.0,0.0,0.0,0.0,0.0,0.0,0.0,0.0,0.0,0.0,0.0,0.0,0.0,0.0,0.0,0.0,0.0,0.0,0.0,0.0,0.0,0.0,0.0,0.0,0.0,0.0,0.0,0.0,0.0,0.0,0.0,0.0,0.0,0.0,0.0,0.0,0.0,0.0,0.0,0.0,0.0,0.0,0.0,0.0,0.0,0.0,0.0,0.0,0.0,0.0,0.0,0.0,0.0,0.0,0.0,0.0,0.0,0.0,0.0,0.0,0.0,0.0,0.0,0.0,0.0,0.0,0.0,0.0,0.0,0.0,0.0,0.0,0.0,0.0,0.0,0.0,0.0,0.0,0.0,0.0,0.0,0.0,0.0,0.0,0.0,0.0,0.0,0.0,0.0,0.0,0.0,0.0,0.0,0.0,0.0,0.0,0.0,0.0,0.0,0.0,0.0,0.0,0.0,0.0,0.0,0.0,0.0,0.0,0.0,0.0,0.0,0.0,0.0,0.0,0.0,0.0,0.0,0.0,0.0,0.0,0.0,0.0,0.0,0.0,0.0,0.0,0.0,0.0,0.0,0.0,0.0,0.0,0.0,0.0,0.0,0.0,0.0,0.0,0.0,0.0,0.0,0.0,0.0,0.0,0.0,0.0,0.0,0.0,0.0,0.0,0.0,0.0,0.0,0.0,0.0,0.0,0.0,0.0,0.0,0.0,0.0,0.0,0.0,0.0,0.0,0.0,0.0,0.0,0.0,0.0,0.0,0.0,0.0,0.0,0.0,0.0,0.0,0.0,0.0,0.0,0.0,0.0,0.0,0.0,0.0,0.0,0.0,0.0,0.0,0.0,0.0,0.0,0.0,0.0,0.0,0.0,0.0,0.0,0.0,0.0,0.0,0.0,0.0,0.0,0.0,0.0,0.0,0.0,0.0,0.0,0.0,0.0,0.0,0.0,0.0,0.0,0.0,0.0,0.0,0.0,0.0,0.0,0.0,0.0,0.0,0.0,0.0,0.0,0.0,0.0,0.0,0.0,0.0,0.0,0.0,0.0,0.0,0.0,0.0,0.0,0.0,0.0,0.0,0.0,0.0,0.0,0.0,0.0,0.0,0.0,0.0,0.0,0.0,0.0,0.0,0.0,0.0,0.0,0.0,0.0,0.0,0.0,0.0,0.0,0.0,0.0,0.0,0.0,0.0,0.0,0.0,0.0,0.0,0.0,0.0,0.0,0.0,0.0,0.0,0.0,0.0,0.0,0.0,0.0,0.0,0.0,0.0,0.0,0.0,0.0,0.0,0.0,0.0,0.0,0.0,0.0,0.0,0.0,0.0,0.0,0.0,0.0,0.0,0.0,0.0,0.0,0.0,0.0,0.0,0.0,0.0,0.0,0.0,0.0,0.0,0.0,0.0,0.0,0.0,0.0,0.0,0.0,0.0,0.0,0.0,0.0,0.0,0.0,0.0,0.0,0.0,0.0,0.0,0.0,0.0,0.0,0.0,0.0,0.0,0.0,0.0,0.0,0.0,0.0,0.0,0.0,0.0,0.0,0.0,0.0,0.0,0.0,0.0,0.0,0.0,0.0,0.0,0.0,0.0,0.0,0.0,0.0,0.0,0.0,0.0,0.0,0.0,0.0,0.0,0.0,0.0,0.0,0.0,0.0,0.0,0.0,0.0,0.0,0.0,0.0,0.0,0.0,0.0,0.0,0.0,0.0,0.0,0.0,0.0,0.0,0.0,0.0,0.0,0.0,0.0,0.0,0.0,0.0,0.0,0.0,0.0,0.0,0.0,0.0,0.0,0.0,0.0,0.0,0.0,0.0,0.0,0.0,0.0,0.0,0.0,0.0,0.0,0.0,0.0,0.0,0.0,0.0,0.0,0.0,0.0,0.0,0.0,0.0,0.0,0.0,0.0,0.0,0.0,0.0,0.0,0.0,0.0,0.0,0.0,0.0,0.0,0.0,0.0,0.0,0.0,0.0,0.0,0.0,0.0,0.0,0.0,0.0,0.0,0.0,0.0,0.0,0.0,0.0,0.0,0.0,0.0,0.0,0.0,0.0,0.0,0.0,0.0,0.0,0.0,0.0,0.0,0.0,0.0,0.0,0.0,0.0,0.0,0.0,0.0,0.0,0.0,0.0,0.0,0.0,0.0,0.0,0.0,0.0,0.0,0.0,0.0,0.0,0.0,0.0,0.0,0.0,0.0,0.0,0.0,0.0,0.0,0.0,0.0,0.0,0.0,0.0,0.0,0.0,0.0,0.0,0.0,0.0,0.0,0.0,0.0,0.0,0.0,0.0,0.0,0.0,0.0,0.0,0.0,0.0,0.0,0.0,0.0,0.0,0.0,0.0,0.0,0.0,0.0,0.0,0.0,0.0,0.0,0.0,0.0,0.0,0.0,0.0,0.0,0.0,0.0,0.0,0.0,0.0,0.0,0.0,0.0,0.0,0.0,0.0,0.0,0.0,0.0,0.0,0.0,0.0,0.0,0.0,0.0,0.0,0.0,0.0,0.0,0.0,0.0,0.0,0.0,0.0,0.0,0.0,0.0,0.0,0.0,0.0,0.0,0.0,0.0,0.0,0.0,0.0,0.0,0.0,0.0,0.0,0.0,0.0,0.0,0.0,0.0,0.0,0.0,0.0,0.0,0.0,0.0,0.0,0.0,0.0,0.0,0.0,0.0,0.0,0.0,0.0,0.0,0.0,0.0,0.0,0.0,0.0,0.0,0.0,0.0,0.0,0.0,0.0,0.0,0.0,0.0,0.0,0.0,0.0,0.0,0.0,0.0,0.0,0.0,0.0,0.0,4.6889,0.0,0.0,0.0,0.0,0.0,0.0,0.0,0.0,0.0,0.0,0.0,0.0,0.0,0.0,0.0,0.0,0.0,0.0,0.0,0.0,0.0,0.0,0.0,0.0,0.0,0.0,0.0,0.0,0.0,0.0,0.0,0.0,0.0,0.0,0.0,0.0,0.0,0.0,0.0,0.0,0.0,0.0,0.0,0.0,0.0,0.0,0.0,0.0,0.0,0.0,0.0,0.0,0.0,0.0,0.0,0.0,0.0,0.0,0.0,0.0,0.0,0.0,0.0,0.0,0.0,0.0,0.0,0.0,0.0,0.0,0.0,0.0,0.0,0.0,0.0,0.0,0.0,0.0,0.0,0.0,0.0,0.0,0.0,0.0,0.0,0.0,0.0,0.0,0.0,0.0,0.0,0.0,0.0,0.0,0.0,0.0,0.0,0.0,0.0,0.0,0.0,0.0,0.0,0.0,0.0,0.0,0.0,0.0,0.0,0.0,4.9615,4.8922,4.8692,4.7851,4.6325,0.0,0.0,0.0,0.0,0.0,0.0,0.0,0.0,0.0,0.0,0.0,0.0,0.0,0.0,0.0,0.0,0.0,0.0,0.0,0.0,0.0,0.0,0.0,0.0,0.0,0.0,0.0,0.0,0.0,0.0,0.0,0.0,0.0,0.0,0.0,0.0,0.0,0.0,0.0,0.0,0.0,0.0,0.0,0.0,0.0,0.0,0.0,0.0,0.0,0.0,0.0,0.0,0.0,0.0,0.0,0.0,0.0,0.0,0.0,0.0,0.0,0.0,0.0,0.0,0.0,0.0,0.0,0.0,0.0,0.0,0.0,0.0,0.0,0.0,0.0,0.0,0.0,0.0,0.0,0.0,0.0,0.0,0.0,0.0,0.0,0.0,0.0,0.0,0.0,0.0,0.0,0.0,0.0,0.0,0.0,0.0,0.0,0.0,0.0,0.0,0.0,0.0,0.0,0.0,0.0,0.0,0.0,0.0,0.0,0.0,0.0,0.0,4.9067,4.8107,4.625,0.0,0.0,0.0,0.0,0.0,0.0,0.0,0.0,0.0,0.0,0.0,0.0,0.0,0.0,0.0,0.0,0.0,0.0,0.0,0.0,0.0,0.0,0.0,0.0,0.0,0.0,0.0,0.0,0.0,0.0,0.0,0.0,0.0,0.0,0.0,0.0,0.0,0.0,0.0,0.0,0.0,0.0,0.0,0.0,0.0,0.0,0.0,0.0,0.0,0.0,0.0,0.0,0.0,0.0,0.0,0.0,0.0,0.0,0.0,0.0,0.0,0.0,0.0,0.0,0.0,0.0,0.0,0.0,0.0,0.0,0.0,0.0,0.0,0.0,0.0,0.0,0.0,0.0,0.0,0.0,0.0,0.0,0.0,0.0,0.0,0.0,0.0,0.0,0.0,0.0,0.0,0.0,0.0,0.0,0.0,0.0,0.0,0.0,0.0,0.0,0.0,0.0,0.0,0.0,0.0,0.0,0.0,0.0,0.0,0.0,4.7846,5.0485,4.9145,0.0,4.7021,0.0,0.0,0.0,0.0,0.0,0.0,0.0,0.0,0.0,0.0,0.0,0.0,0.0,0.0,0.0,0.0,0.0,0.0,0.0,0.0,0.0,0.0,0.0,0.0,0.0,0.0,0.0,0.0,0.0,0.0,0.0,0.0,0.0,0.0,0.0,0.0,0.0,0.0,0.0,0.0,0.0,0.0,0.0,0.0,0.0,0.0,0.0,0.0,0.0,0.0,0.0,0.0,0.0,0.0,0.0,0.0,0.0,0.0,0.0,0.0,0.0,0.0,0.0,0.0,0.0,0.0,0.0,0.0,0.0,0.0,0.0,0.0,0.0,0.0,0.0,0.0,0.0,0.0,0.0,0.0,0.0,0.0,0.0,0.0,0.0,0.0,0.0,0.0,0.0,0.0,0.0,0.0,0.0,0.0,0.0,0.0,0.0,0.0,0.0,0.0,0.0,0.0,0.0,0.0,0.0,0.0,0.0,0.0,0.0,0.0,4.7583,4.9287,4.8186,4.727,0.0,0.0,0.0,0.0,0.0,0.0,0.0,0.0,0.0,0.0,0.0,0.0,0.0,0.0,0.0,0.0,0.0,0.0,0.0,0.0,0.0,0.0,0.0,0.0,0.0,0.0,0.0,0.0,0.0,0.0,0.0,0.0,0.0,0.0,0.0,0.0,0.0,0.0,0.0,0.0,0.0,0.0,0.0,0.0,0.0,0.0,0.0,0.0,0.0,0.0,0.0,0.0,0.0,0.0,0.0,0.0,0.0,0.0,0.0,0.0,0.0,0.0,0.0,0.0,0.0,0.0,0.0,0.0,0.0,0.0,0.0,0.0,0.0,0.0,0.0,0.0,0.0,0.0,0.0,0.0,0.0,0.0,0.0,0.0,0.0,0.0,0.0,0.0,0.0,0.0,0.0,0.0,0.0,0.0,0.0,0.0,0.0,0.0,0.0,0.0,0.0,0.0,0.0,0.0,0.0,0.0,0.0,0.0,0.0,0.0,4.6838,4.7379,4.8573,4.8237,4.7562,4.6641,0.0,0.0,0.0,0.0,0.0,0.0,0.0,0.0,0.0,0.0,0.0,0.0,0.0,0.0,0.0,0.0,0.0,0.0,0.0,0.0,0.0,0.0,0.0,0.0,0.0,0.0,0.0,0.0,0.0,0.0,0.0,0.0,0.0,0.0,0.0,0.0,0.0,0.0,0.0,0.0,0.0,0.0,0.0,0.0,0.0,0.0,0.0,0.0,0.0,0.0,0.0,0.0,0.0,0.0,0.0,0.0,0.0,0.0,0.0,0.0,0.0,0.0,0.0,0.0,0.0,0.0,0.0,0.0,0.0,0.0,0.0,0.0,0.0,0.0,0.0,0.0,0.0,0.0,0.0,0.0,0.0,0.0,0.0,0.0,0.0,0.0,0.0,0.0,0.0,0.0,0.0,0.0,0.0,0.0,0.0,0.0,0.0,0.0,0.0,0.0,0.0,0.0,0.0,0.0,0.0,0.0,0.0,0.0,4.9096,4.7141,4.7104,4.9473,4.9914,4.9282,0.0,0.0,0.0,0.0,0.0,0.0,0.0,0.0,0.0,0.0,0.0,0.0,0.0,0.0,0.0,0.0,0.0,0.0,0.0,0.0,0.0,0.0,0.0,0.0,0.0,0.0,0.0,0.0,0.0,0.0,0.0,0.0,0.0,0.0,0.0,0.0,0.0,0.0,0.0,0.0,0.0,0.0,0.0,0.0,0.0,0.0,0.0,0.0,0.0,0.0,0.0,0.0,0.0,0.0,0.0,0.0,0.0,0.0,0.0,0.0,0.0,0.0,0.0,0.0,0.0,0.0,0.0,0.0,0.0,0.0,0.0,0.0,0.0,0.0,0.0,0.0,0.0,0.0,0.0,0.0,0.0,0.0,0.0,0.0,0.0,0.0,0.0,0.0,0.0,0.0,0.0,0.0,0.0,0.0,0.0,0.0,0.0,0.0,0.0,0.0,0.0,0.0,0.0,0.0,0.0,0.0,0.0,0.0,0.0,4.5864,4.6068,4.7581,5.0425,4.8905,4.7967,0.0,0.0,0.0,0.0,0.0,0.0,0.0,0.0,0.0,0.0,0.0,0.0,0.0,0.0,0.0,0.0,0.0,0.0,0.0,0.0,0.0,0.0,0.0,0.0,0.0,0.0,0.0,0.0,0.0,0.0,0.0,0.0,0.0,0.0,0.0,0.0,0.0,0.0,0.0,0.0,0.0,0.0,0.0,0.0,0.0,0.0,0.0,0.0,0.0,0.0,0.0,0.0,0.0,0.0,0.0,0.0,0.0,0.0,0.0,0.0,0.0,0.0,0.0,0.0,0.0,0.0,0.0,0.0,0.0,0.0,0.0,0.0,0.0,0.0,0.0,0.0,0.0,0.0,0.0,0.0,0.0,0.0,0.0,0.0,0.0,0.0,0.0,0.0,0.0,0.0,0.0,0.0,0.0,0.0,0.0,0.0,0.0,0.0,0.0,0.0,0.0,0.0,0.0,0.0,0.0,0.0,0.0,0.0,0.0,4.5262,0.0,4.8311,4.9939,4.8012,4.6837,0.0,0.0,0.0,0.0,0.0,0.0,0.0,0.0,0.0,0.0,0.0,0.0,0.0,0.0,0.0,0.0,0.0,0.0,0.0,0.0,0.0,0.0,0.0,0.0,0.0,0.0,0.0,0.0,0.0,0.0,0.0,0.0,0.0,0.0,0.0,0.0,0.0,0.0,0.0,0.0,0.0,0.0,0.0,0.0,0.0,0.0,0.0,0.0,0.0,0.0,0.0,0.0,0.0,0.0,0.0,0.0,0.0,0.0,0.0,0.0,0.0,0.0,0.0,0.0,0.0,0.0,0.0,0.0,0.0,0.0,0.0,0.0,0.0,0.0,0.0,0.0,0.0,0.0,0.0,0.0,0.0,0.0,0.0,0.0,0.0,0.0,0.0,0.0,0.0,0.0,0.0,0.0,0.0,0.0,0.0,0.0,0.0,0.0,0.0,0.0,0.0,0.0,0.0,0.0,0.0,0.0,0.0,0.0,4.5707,4.7943,4.9,4.9025,4.801,4.753,4.6107,0.0,0.0,0.0,0.0,0.0,0.0,0.0,0.0,0.0,0.0,0.0,0.0,0.0,0.0,0.0,0.0,0.0,0.0,0.0,0.0,0.0,0.0,0.0,0.0,0.0,0.0,0.0,0.0,0.0,0.0,0.0,0.0,0.0,0.0,0.0,0.0,0.0,0.0,0.0,0.0,0.0,0.0,0.0,0.0,0.0,0.0,0.0,0.0,0.0,0.0,0.0,0.0,0.0,0.0,0.0,0.0,0.0,0.0,0.0,0.0,0.0,0.0,0.0,0.0,0.0,0.0,0.0,0.0,0.0,0.0,0.0,0.0,0.0,0.0,0.0,0.0,0.0,0.0,0.0,0.0,0.0,0.0,0.0,0.0,0.0,0.0,0.0,0.0,0.0,0.0,0.0,0.0,0.0,0.0,0.0,0.0,0.0,0.0,0.0,0.0,0.0,0.0,0.0,0.0,0.0,0.0,0.0,0.0,0.0,4.6692,4.7417,4.8394,4.9535,4.6896,4.5901,0.0,0.0,0.0,0.0,0.0,0.0,0.0,0.0,0.0,0.0,0.0,0.0,0.0,0.0,0.0,0.0,0.0,0.0,0.0,0.0,0.0,0.0,0.0,0.0,0.0,0.0,0.0,0.0,0.0,0.0,0.0,0.0,0.0,0.0,0.0,0.0,0.0,0.0,0.0,0.0,0.0,0.0,0.0,0.0,0.0,0.0,0.0,0.0,0.0,0.0,0.0,0.0,0.0,0.0,0.0,0.0,0.0,0.0,0.0,0.0,0.0,0.0,0.0,0.0,0.0,0.0,0.0,0.0,0.0,0.0,0.0,0.0,0.0,0.0,0.0,0.0,0.0,0.0,0.0,0.0,0.0,0.0,0.0,0.0,0.0,0.0,0.0,0.0,0.0,0.0,0.0,0.0,0.0,0.0,0.0,0.0,0.0,0.0,0.0,0.0,0.0,0.0,0.0,0.0,0.0,0.0,0.0,0.0,0.0,4.6821,4.7687,4.8636,4.967,4.6626,4.5371,4.612,0.0,0.0,0.0,0.0,0.0,0.0,0.0,0.0,0.0,0.0,0.0,0.0,0.0,0.0,0.0,0.0,0.0,0.0,0.0,0.0,0.0,0.0,0.0,0.0,0.0,0.0,0.0,0.0,0.0,0.0,0.0,0.0,0.0,0.0,0.0,0.0,0.0,0.0,0.0,0.0,0.0,0.0,0.0,0.0,0.0,0.0,0.0,0.0,0.0,0.0,0.0,0.0,0.0,0.0,0.0,0.0,0.0,0.0,0.0,0.0,0.0,0.0,0.0,0.0,0.0,0.0,0.0,0.0,0.0,0.0,0.0,0.0,0.0,0.0,0.0,0.0,0.0,0.0,0.0,0.0,0.0,0.0,0.0,0.0,0.0,0.0,0.0,0.0,0.0,0.0,0.0,0.0,0.0,0.0,0.0,0.0,0.0,0.0,0.0,0.0,0.0,0.0,0.0,0.0,0.0,0.0,0.0,0.0,4.7842,4.9454,4.9715,4.8526,4.6793,4.4812,0.0,0.0,0.0,0.0,0.0,0.0,0.0,0.0,0.0,0.0,0.0,0.0,0.0,0.0,0.0,0.0,0.0,0.0,0.0,0.0,0.0,0.0,0.0,0.0,0.0,0.0,0.0,0.0,0.0,0.0,0.0,0.0,0.0,0.0,0.0,0.0,0.0,0.0,0.0,0.0,0.0,0.0,0.0,0.0,0.0,0.0,0.0,0.0,0.0,0.0,0.0,0.0,0.0,0.0,0.0,0.0,0.0,0.0,0.0,0.0,0.0,0.0,0.0,0.0,0.0,0.0,0.0,0.0,0.0,0.0,0.0,0.0,0.0,0.0,0.0,0.0,0.0,0.0,0.0,0.0,0.0,0.0,0.0,0.0,0.0,0.0,0.0,0.0,0.0,0.0,0.0,0.0,0.0,0.0,0.0,0.0,0.0,0.0,0.0,0.0,0.0,0.0,0.0,0.0,0.0,0.0,0.0,0.0,0.0,4.7047,4.917,5.026,5.0085,4.7344,4.5868,0.0,0.0,0.0,0.0,0.0,0.0,0.0,0.0,0.0,0.0,0.0,0.0,0.0,0.0,0.0,0.0,0.0,0.0,0.0,0.0,0.0,0.0,0.0,0.0,0.0,0.0,0.0,0.0,0.0,0.0,0.0,0.0,0.0,0.0,0.0,0.0,0.0,0.0,0.0,0.0,0.0,0.0,0.0,0.0,0.0,0.0,0.0,0.0,0.0,0.0,0.0,0.0,0.0,0.0,0.0,0.0,0.0,0.0,0.0,0.0,0.0,0.0,0.0,0.0,0.0,0.0,0.0,0.0,0.0,0.0,0.0,0.0,0.0,0.0,0.0,0.0,0.0,0.0,0.0,0.0,0.0,0.0,0.0,0.0,0.0,0.0,0.0,0.0,0.0,0.0,0.0,0.0,0.0,0.0,0.0,0.0,0.0,0.0,0.0,0.0,0.0,0.0,0.0,0.0,0.0,0.0,0.0,0.0,4.6507,4.7261,4.997,5.1343,5.1119,4.8043,4.6341,0.0,0.0,0.0,0.0,0.0,0.0,0.0,0.0,0.0,0.0,0.0,0.0,0.0,0.0,0.0,0.0,0.0,0.0,0.0,0.0,0.0,0.0,0.0,0.0,0.0,0.0,0.0,0.0,0.0,0.0,0.0,0.0,0.0,0.0,0.0,0.0,0.0,0.0,0.0,0.0,0.0,0.0,0.0,0.0,0.0,0.0,0.0,0.0,0.0,0.0,0.0,0.0,0.0,0.0,0.0,0.0,0.0,0.0,0.0,0.0,0.0,0.0,0.0,0.0,0.0,0.0,0.0,0.0,0.0,0.0,0.0,0.0,0.0,0.0,0.0,0.0,0.0,0.0,0.0,0.0,0.0,0.0,0.0,0.0,0.0,0.0,0.0,0.0,0.0,0.0,0.0,0.0,0.0,0.0,0.0,0.0,0.0,0.0,0.0,0.0,0.0,0.0,0.0,0.0,0.0,0.0,0.0,0.0,4.7303,4.8145,5.1294,5.2614,5.1823,4.8915,4.6585,0.0,0.0,0.0,0.0,0.0,0.0,0.0,0.0,0.0,0.0,0.0,0.0,0.0,0.0,0.0,0.0,0.0,0.0,0.0,0.0,0.0,0.0,0.0,0.0,0.0,0.0,0.0,0.0,0.0,0.0,0.0,0.0,0.0,0.0,0.0,0.0,0.0,0.0,0.0,0.0,0.0,0.0,0.0,0.0,0.0,0.0,0.0,0.0,0.0,0.0,0.0,0.0,0.0,0.0,0.0,0.0,0.0,0.0,0.0,0.0,0.0,0.0,0.0,0.0,0.0,0.0,0.0,0.0,0.0,0.0,0.0,0.0,0.0,0.0,0.0,0.0,0.0,0.0,0.0,0.0,0.0,0.0,0.0,0.0,0.0,0.0,0.0,0.0,0.0,0.0,0.0,0.0,0.0,0.0,0.0,0.0,0.0,0.0,0.0,0.0,0.0,0.0,0.0,0.0,0.0,0.0,0.0,0.0,4.7644,4.9176,5.1612,5.3109,5.3551,5.0346,4.7882,0.0,0.0,0.0,0.0,0.0,0.0,0.0,0.0,0.0,0.0,0.0,0.0,0.0,0.0,0.0,0.0,0.0,0.0,0.0,0.0,0.0,0.0,0.0,0.0,0.0,0.0,0.0,0.0,0.0,0.0,0.0,0.0,0.0,0.0,0.0,0.0,0.0,0.0,0.0,0.0,0.0,0.0,0.0,0.0,0.0,0.0,0.0,0.0,5.3782,0.0,0.0,0.0,0.0,0.0,0.0,0.0,0.0,0.0,0.0,0.0,0.0,0.0,0.0,0.0,0.0,0.0,0.0,0.0,0.0,0.0,0.0,0.0,0.0,0.0,0.0,0.0,0.0,0.0,0.0,0.0,0.0,0.0,0.0,0.0,0.0,0.0,0.0,0.0,0.0,0.0,0.0,0.0,0.0,0.0,0.0,0.0,0.0,0.0,0.0,0.0,0.0,0.0,0.0,0.0,0.0,0.0,0.0,0.0,4.8052,5.0543,5.2494,5.3716,5.404,5.192,4.9571,0.0,0.0,0.0,0.0,0.0,0.0,0.0,0.0,0.0,0.0,0.0,0.0,0.0,0.0,0.0,0.0,0.0,0.0,0.0,0.0,0.0,0.0,0.0,0.0,0.0,0.0,0.0,0.0,0.0,0.0,0.0,0.0,0.0,0.0,0.0,0.0,0.0,0.0,0.0,0.0,0.0,0.0,0.0,0.0,0.0,0.0,0.0,0.0,0.0,0.0,0.0,0.0,0.0,0.0,0.0,0.0,0.0,0.0,0.0,0.0,0.0,0.0,0.0,0.0,0.0,0.0,0.0,0.0,0.0,0.0,0.0,0.0,0.0,0.0,0.0,0.0,0.0,0.0,0.0,0.0,0.0,0.0,0.0,0.0,0.0,0.0,0.0,0.0,0.0,0.0,0.0,0.0,0.0,0.0,0.0,0.0,0.0,0.0,0.0,0.0,0.0,0.0,0.0,0.0,0.0,0.0,0.0,4.6446,4.8518,5.206,5.3625,5.4349,5.4326,5.3086,5.081,4.7451,0.0,0.0,0.0,0.0,0.0,0.0,0.0,0.0,0.0,0.0,0.0,0.0,0.0,0.0,0.0,0.0,0.0,0.0,0.0,0.0,0.0,0.0,0.0,0.0,0.0,0.0,0.0,0.0,0.0,0.0,0.0,0.0,0.0,0.0,0.0,0.0,0.0,0.0,5.6505,5.767,0.0,0.0,0.0,0.0,0.0,0.0,0.0,0.0,5.5814,0.0,0.0,0.0,0.0,0.0,0.0,0.0,0.0,0.0,0.0,0.0,0.0,0.0,0.0,0.0,0.0,0.0,0.0,0.0,0.0,0.0,0.0,0.0,0.0,0.0,0.0,0.0,0.0,0.0,0.0,0.0,0.0,0.0,0.0,0.0,0.0,0.0,0.0,0.0,0.0,0.0,0.0,0.0,0.0,0.0,0.0,0.0,0.0,0.0,0.0,0.0,0.0,0.0,0.0,0.0,0.0,4.7492,4.6845,4.8919,5.3838,5.4744,5.511,5.5033,5.2565,4.996,4.7444,0.0,0.0,0.0,0.0,0.0,0.0,0.0,0.0,0.0,0.0,0.0,0.0,0.0,0.0,0.0,0.0,0.0,0.0,0.0,0.0,0.0,0.0,0.0,0.0,0.0,0.0,0.0,0.0,0.0,0.0,0.0,0.0,0.0,0.0,0.0,0.0,0.0,0.0,0.0,5.835,5.891,0.0,0.0,0.0,0.0,0.0,0.0,0.0,0.0,5.6828,0.0,0.0,0.0,0.0,0.0,0.0,0.0,0.0,0.0,0.0,0.0,0.0,0.0,0.0,0.0,0.0,0.0,0.0,0.0,0.0,0.0,0.0,0.0,0.0,0.0,0.0,0.0,0.0,0.0,0.0,0.0,0.0,0.0,0.0,0.0,0.0,0.0,0.0,0.0,0.0,0.0,0.0,0.0,0.0,0.0,0.0,0.0,0.0,0.0,0.0,0.0,0.0,0.0,0.0,0.0,4.7677,4.8668,5.097,5.4768,5.511,5.5217,5.5139,5.2164,4.9585,0.0,0.0,0.0,0.0,0.0,0.0,0.0,0.0,0.0,0.0,0.0,0.0,0.0,0.0,0.0,0.0,0.0,0.0,0.0,0.0,0.0,0.0,0.0,0.0,0.0,0.0,0.0,0.0,0.0,0.0,0.0,0.0,0.0,0.0,0.0,0.0,0.0,0.0,0.0,0.0,5.8153,5.8897,5.8847,0.0,0.0,0.0,0.0,0.0,0.0,5.5842,5.6214,0.0,0.0,0.0,0.0,0.0,0.0,0.0,0.0,0.0,0.0,0.0,0.0,0.0,0.0,0.0,0.0,0.0,0.0,0.0,0.0,0.0,0.0,0.0,0.0,0.0,0.0,0.0,0.0,0.0,0.0,0.0,0.0,0.0,0.0,0.0,0.0,0.0,0.0,0.0,0.0,0.0,0.0,0.0,0.0,0.0,0.0,0.0,0.0,0.0,0.0,0.0,0.0,0.0,0.0,0.0,4.7755,5.0092,5.2614,5.5244,5.5261,5.5177,5.5105,5.1561,4.9046,0.0,0.0,0.0,0.0,0.0,0.0,0.0,0.0,0.0,0.0,0.0,0.0,0.0,0.0,0.0,0.0,0.0,0.0,0.0,0.0,0.0,0.0,0.0,0.0,0.0,0.0,0.0,0.0,0.0,0.0,0.0,0.0,0.0,0.0,0.0,0.0,0.0,0.0,0.0,0.0,0.0,5.9055,5.9505,5.8897,0.0,0.0,0.0,0.0,5.6058,5.6492,0.0,0.0,0.0,0.0,0.0,0.0,0.0,0.0,0.0,0.0,0.0,0.0,0.0,0.0,0.0,0.0,0.0,0.0,0.0,0.0,0.0,0.0,0.0,0.0,0.0,0.0,0.0,0.0,0.0,0.0,0.0,0.0,0.0,0.0,0.0,0.0,0.0,0.0,0.0,0.0,0.0,0.0,0.0,0.0,0.0,0.0,0.0,0.0,0.0,0.0,0.0,0.0,0.0,0.0,0.0,0.0,4.7701,4.9364,5.1885,5.5199,5.5261,5.5243,5.5269,5.0399,4.7803,0.0,0.0,0.0,0.0,0.0,0.0,0.0,0.0,0.0,0.0,0.0,0.0,0.0,0.0,0.0,0.0,0.0,0.0,0.0,0.0,0.0,0.0,0.0,0.0,0.0,0.0,0.0,0.0,0.0,0.0,0.0,0.0,0.0,0.0,0.0,0.0,0.0,0.0,0.0,0.0,0.0,6.0141,5.8934,5.9765,6.0178,0.0,0.0,5.9199,5.8578,5.9305,0.0,0.0,0.0,0.0,0.0,0.0,0.0,0.0,0.0,0.0,0.0,0.0,0.0,0.0,0.0,0.0,0.0,0.0,0.0,0.0,0.0,0.0,0.0,0.0,0.0,0.0,0.0,0.0,0.0,0.0,0.0,0.0,0.0,0.0,0.0,0.0,0.0,0.0,0.0,0.0,0.0,0.0,0.0,0.0,0.0,0.0,0.0,0.0,0.0,0.0,0.0,0.0,0.0,0.0,0.0,4.6255,4.7741,5.1243,5.383,5.5389,5.5415,5.5407,5.5497,5.0046,4.7371,0.0,0.0,0.0,0.0,0.0,0.0,0.0,0.0,0.0,0.0,0.0,0.0,0.0,0.0,0.0,0.0,0.0,0.0,0.0,0.0,0.0,0.0,0.0,0.0,0.0,0.0,0.0,0.0,0.0,0.0,0.0,0.0,0.0,0.0,0.0,0.0,0.0,0.0,0.0,0.0,0.0,0.0,6.1311,6.1626,0.0,0.0,0.0,6.096,6.0304,0.0,0.0,0.0,0.0,0.0,0.0,0.0,0.0,0.0,0.0,0.0,0.0,0.0,0.0,0.0,0.0,0.0,0.0,0.0,0.0,0.0,0.0,0.0,0.0,0.0,0.0,0.0,0.0,0.0,0.0,0.0,0.0,0.0,0.0,0.0,0.0,0.0,0.0,0.0,0.0,0.0,0.0,0.0,0.0,0.0,0.0,0.0,0.0,0.0,0.0,0.0,0.0,0.0,0.0,0.0,0.0,0.0,4.7814,5.2847,5.5514,5.5531,5.5531,5.5604,5.5566,5.0755,0.0,0.0,0.0,0.0,0.0,0.0,0.0,0.0,0.0,0.0,0.0,0.0,0.0,0.0,0.0,0.0,0.0,0.0,0.0,0.0,0.0,0.0,0.0,0.0,0.0,0.0,0.0,4.8927,0.0,0.0,0.0,0.0,0.0,0.0,0.0,0.0,0.0,0.0,0.0,0.0,0.0,0.0,6.0977,6.3289,6.31,6.2636,0.0,0.0,6.2453,6.192,6.1822,6.0927,0.0,0.0,0.0,0.0,0.0,0.0,0.0,0.0,0.0,0.0,0.0,0.0,0.0,0.0,0.0,0.0,0.0,0.0,0.0,0.0,0.0,0.0,0.0,0.0,0.0,0.0,0.0,0.0,0.0,0.0,0.0,0.0,0.0,0.0,0.0,0.0,0.0,0.0,0.0,0.0,0.0,0.0,0.0,0.0,0.0,0.0,0.0,0.0,0.0,0.0,0.0,0.0,0.0,0.0,0.0,4.8133,5.3058,5.5682,5.5698,5.5698,5.5751,5.5856,5.3117,5.0542,0.0,0.0,0.0,0.0,0.0,0.0,0.0,0.0,0.0,0.0,0.0,0.0,0.0,0.0,0.0,0.0,0.0,0.0,0.0,0.0,0.0,0.0,0.0,0.0,0.0,0.0,0.0,0.0,0.0,0.0,0.0,0.0,0.0,0.0,0.0,0.0,0.0,0.0,0.0,0.0,0.0,6.163,6.3371,6.356,6.355,0.0,0.0,6.3526,6.3545,6.43,6.3596,5.9781,0.0,0.0,0.0,0.0,0.0,0.0,0.0,0.0,0.0,0.0,0.0,0.0,0.0,0.0,0.0,0.0,0.0,0.0,0.0,0.0,0.0,0.0,0.0,0.0,0.0,0.0,0.0,0.0,0.0,0.0,0.0,0.0,0.0,0.0,0.0,0.0,0.0,0.0,0.0,0.0,0.0,0.0,0.0,0.0,0.0,0.0,0.0,0.0,0.0,0.0,0.0,0.0,0.0,4.8049,4.8076,5.3084,5.5987,5.6551,5.6088,5.615,5.6785,5.3789,5.0739,0.0,0.0,0.0,0.0,0.0,0.0,0.0,0.0,0.0,0.0,0.0,0.0,0.0,0.0,0.0,0.0,0.0,0.0,0.0,0.0,0.0,0.0,0.0,0.0,0.0,0.0,0.0,0.0,5.3786,5.3945,5.3717,0.0,0.0,0.0,0.0,0.0,0.0,0.0,0.0,0.0,0.0,6.3316,6.5004,6.528,0.0,0.0,6.5303,6.5266,6.5262,6.4291,6.281,6.0681,5.9747,0.0,0.0,0.0,0.0,0.0,0.0,0.0,0.0,0.0,0.0,0.0,0.0,0.0,0.0,0.0,0.0,0.0,0.0,0.0,0.0,0.0,0.0,0.0,0.0,0.0,0.0,0.0,0.0,0.0,0.0,0.0,0.0,0.0,0.0,0.0,0.0,0.0,0.0,0.0,0.0,0.0,0.0,0.0,0.0,0.0,0.0,0.0,0.0,0.0,0.0,0.0,0.0,4.8542,4.85,5.3827,5.6821,5.7245,5.6936,5.7061,5.7692,5.5482,5.2735,0.0,0.0,0.0,0.0,0.0,0.0,0.0,0.0,0.0,0.0,0.0,0.0,0.0,0.0,0.0,0.0,0.0,0.0,0.0,0.0,0.0,0.0,0.0,0.0,0.0,0.0,0.0,0.0,5.5595,5.5416,5.4866,0.0,0.0,0.0,0.0,0.0,0.0,0.0,0.0,0.0,0.0,6.4747,6.6437,6.6515,6.6316,6.6346,6.6281,6.6244,6.6279,6.5032,6.3561,6.209,0.0,0.0,0.0,0.0,0.0,0.0,0.0,0.0,0.0,0.0,0.0,0.0,0.0,0.0,0.0,0.0,0.0,0.0,0.0,0.0,0.0,0.0,0.0,0.0,0.0,0.0,0.0,0.0,0.0,0.0,5.0484,0.0,0.0,0.0,0.0,0.0,0.0,0.0,0.0,0.0,0.0,0.0,0.0,0.0,0.0,0.0,0.0,0.0,0.0,0.0,0.0,0.0,0.0,4.9581,4.9668,5.5496,5.8225,5.7498,5.8192,5.8622,5.8665,5.8622,5.7373,5.4595,0.0,0.0,0.0,0.0,0.0,0.0,0.0,0.0,0.0,0.0,0.0,0.0,0.0,0.0,0.0,0.0,0.0,0.0,0.0,0.0,0.0,0.0,0.0,0.0,0.0,0.0,5.4662,5.4752,5.4945,0.0,0.0,0.0,0.0,0.0,0.0,0.0,0.0,0.0,0.0,6.5029,6.5764,6.7346,6.6907,6.6441,6.648,6.6351,6.6274,6.6454,6.7075,6.6802,0.0,0.0,0.0,0.0,0.0,0.0,0.0,0.0,0.0,0.0,0.0,0.0,0.0,0.0,0.0,0.0,0.0,0.0,0.0,0.0,0.0,0.0,0.0,0.0,0.0,0.0,0.0,5.6309,5.4125,0.0,0.0,0.0,0.0,0.0,0.0,0.0,0.0,0.0,0.0,0.0,5.7101,5.7448,0.0,0.0,0.0,0.0,0.0,0.0,0.0,0.0,0.0,0.0,0.0,0.0,5.0738,5.1531,5.6195,5.8859,5.9172,5.8897,5.9025,5.9594,5.9103,5.7568,5.495,0.0,0.0,0.0,0.0,0.0,0.0,0.0,0.0,0.0,0.0,0.0,0.0,0.0,0.0,0.0,0.0,0.0,0.0,0.0,0.0,0.0,0.0,0.0,0.0,0.0,5.6403,0.0,0.0,0.0,0.0,0.0,0.0,0.0,0.0,0.0,0.0,0.0,6.4941,6.5859,6.6994,6.7935,6.8511,6.7933,6.7673,0.0,0.0,0.0,0.0,0.0,0.0,0.0,0.0,0.0,0.0,0.0,0.0,0.0,0.0,7.0283,6.6221,6.4608,6.3829,6.365,0.0,0.0,0.0,0.0,0.0,0.0,0.0,0.0,0.0,0.0,0.0,0.0,0.0,0.0,5.8986,0.0,5.5831,0.0,0.0,0.0,0.0,0.0,0.0,0.0,0.0,5.809,5.9577,6.1104,6.1684,6.1509,0.0,5.9793,5.6777,0.0,0.0,0.0,0.0,0.0,0.0,0.0,0.0,5.2038,5.2832,5.7234,5.9793,6.0063,5.983,5.9957,6.0526,6.0017,5.8916,5.7211,5.3822,5.09,0.0,0.0,0.0,0.0,0.0,0.0,0.0,0.0,0.0,0.0,0.0,0.0,0.0,0.0,0.0,0.0,0.0,0.0,0.0,0.0,0.0,0.0,0.0,5.7886,0.0,0.0,0.0,0.0,0.0,0.0,0.0,0.0,0.0,6.4392,6.5863,6.7206,6.7817,6.8619,6.9242,6.9593,0.0,0.0,0.0,0.0,0.0,0.0,0.0,6.8299,6.9099,6.8578,6.8193,6.8704,7.117,7.2874,7.2279,0.0,0.0,6.9045,6.7264,6.64,6.6306,6.6234,6.5981,6.5379,6.5721,6.5953,0.0,0.0,0.0,0.0,0.0,0.0,0.0,0.0,6.0776,6.1253,0.0,5.9961,0.0,0.0,0.0,0.0,0.0,5.9158,0.0,0.0,6.2753,6.393,6.3915,6.3945,6.4324,6.4997,6.41,6.2727,6.0836,5.6126,0.0,0.0,0.0,0.0,0.0,0.0,5.3558,5.3994,5.8828,6.103,6.0332,6.1066,6.1494,6.1494,6.1494,6.1455,6.1335,5.8224,5.6372,5.6174,5.0654,0.0,0.0,0.0,0.0,0.0,0.0,0.0,0.0,0.0,0.0,0.0,0.0,0.0,0.0,0.0,0.0,0.0,0.0,0.0,0.0,5.8648,0.0,0.0,0.0,0.0,0.0,0.0,0.0,0.0,0.0,0.0,6.8002,6.8148,6.8784,7.0305,0.0,0.0,0.0,0.0,6.9612,7.0413,7.0476,7.0829,7.1653,7.2504,7.2776,7.2073,0.0,0.0,7.1185,7.363,7.5242,7.3564,7.4464,7.5216,7.4279,7.247,7.1252,7.1026,6.9717,6.88,6.8666,6.8544,6.8616,6.9082,0.0,0.0,0.0,0.0,6.6197,6.6521,6.7016,6.6751,6.5809,6.4393,6.2996,0.0,0.0,0.0,0.0,0.0,0.0,6.3079,6.4668,6.4814,6.6014,6.8189,6.8189,6.8328,6.849,6.7657,6.6376,6.468,6.2675,5.8641,5.2805,0.0,0.0,0.0,0.0,5.6472,5.8992,6.1744,6.3088,6.2899,6.3129,6.3245,6.3249,6.3245,6.3245,6.3245,6.2302,6.0603,5.8117,5.6912,0.0,0.0,0.0,0.0,0.0,0.0,0.0,0.0,0.0,0.0,0.0,0.0,0.0,0.0,0.0,0.0,0.0,0.0,0.0,6.0469,6.1015,6.1926,0.0,0.0,0.0,0.0,0.0,0.0,0.0,0.0,0.0,7.288,7.2716,7.2176,0.0,0.0,7.1914,7.1516,7.0796,7.0806,7.2244,7.247,0.0,0.0,7.3491,7.3381,7.3772,7.4492,7.5047,7.5098,7.5902,7.6355,7.5788,7.5542,7.5316,7.4981,7.3554,7.225,7.1546,7.0942,7.0573,7.0512,7.0479,7.045,7.3867,7.0039,6.9056,6.9243,7.0099,6.9783,6.9922,7.0357,7.0027,6.9107,6.7794,6.6577,6.5002,6.3272,6.25,0.0,0.0,0.0,6.5781,6.7451,6.6927,6.7881,7.0011,7.0078,7.0212,7.0484,7.0015,6.8893,6.7186,6.5667,6.2485,5.7728,0.0,0.0,5.6112,5.7746,5.9607,6.1716,6.3825,6.4792,6.4496,6.4215,6.4037,6.4037,6.4037,6.4037,6.4037,6.4037,6.3051,6.0926,6.0328,5.8121,0.0,0.0,0.0,0.0,0.0,0.0,0.0,0.0,0.0,0.0,0.0,5.8792,5.7927,0.0,0.0,0.0,6.0906,6.202,6.3142,6.3684,0.0,0.0,0.0,0.0,0.0,0.0,0.0,7.4638,7.3672,7.3442,7.5573,7.5463,7.4681,7.3499,7.3532,7.3583,7.3391,0.0,7.268,7.4042,7.427,7.4538,7.5393,7.5118,7.4962,7.547,7.59,7.6276,7.6741,7.6823,7.6778,7.6687,7.6246,7.56,7.4904,7.4087,7.3374,7.2621,7.2369,7.2308,7.2302,7.225,7.2093,7.7539,7.7299,7.4909,7.3768,7.3448,7.2629,7.2272,7.2142,7.1348,7.1434,7.2034,7.0374,6.9066,6.8076,6.6439,0.0,6.6934,6.7751,6.8535,6.929,6.9251,6.9589,7.0273,7.0307,7.065,7.1291,7.1291,7.0479,6.881,6.6492,6.4389,6.266,6.1964,6.0626,5.8833,6.1137,6.2486,6.2719,6.5211,6.6199,6.5615,6.4896,6.4496,6.4535,6.4496,6.4535,6.4496,6.4535,6.4496,6.4457,6.2151,6.0728,6.0291,0.0,0.0,0.0,0.0,0.0,0.0,0.0,0.0,0.0,0.0,0.0,0.0,0.0,0.0,0.0,6.3349,0.0,6.6375,6.6495,0.0,0.0,0.0,6.8529,7.0573,7.1879,7.3328,7.5291,0.0,0.0,7.6758,7.6747,7.6494,7.5954,7.5155,7.4867,7.557,7.4866,7.4783,7.5464,7.5657,7.6,7.6646,7.6797,7.6756,7.6788,7.6926,7.6802,7.6663,7.6626,7.66,7.6332,7.636,7.5919,7.4276,7.4604,7.4884,7.4092,7.3825,7.3712,7.3513,7.342,7.3099,8.1616,8.0953,7.9642,7.7606,7.5194,7.5,7.4522,7.388,7.3681,7.3657,7.369,7.2651,7.1335,6.9811,6.9961,7.0161,7.0409,7.0545,7.1068,7.1755,7.113,7.0922,7.1025,7.1058,7.1125,7.1291,7.1291,7.0755,6.9711,6.9081,6.7604,6.5469,6.5827,6.4164,6.056,6.1127,6.2478,6.4376,6.5782,6.7097,6.8217,6.8102,6.8,6.8,6.8,6.8,6.8,6.8,6.8,6.7961,6.7359,6.5857,6.3181,6.0239,0.0,0.0,0.0,0.0,0.0,0.0,0.0,0.0,0.0,6.3983,6.0383,0.0,6.5752,0.0,6.6652,6.8127,6.9153,6.9212,0.0,0.0,7.2496,7.2948,7.7132,7.5723,7.5561,7.8567,7.8018,7.7638,7.8406,7.7922,7.7516,7.7427,7.6211,7.5148,7.4696,7.4516,7.4709,7.5404,7.563,7.5929,7.6683,7.6833,7.6851,7.679,7.6711,7.6467,7.5792,7.5575,7.5304,7.48,7.5028,7.5113,7.478,7.5381,7.5536,7.4822,7.4153,7.3517,7.2899,7.2694,7.2373,8.2556,8.2068,8.1569,8.0004,7.7916,7.7656,7.6997,7.615,7.6136,7.566,7.4801,7.384,7.2924,7.2051,7.2342,7.2501,7.2589,7.251,7.2728,7.3121,7.2651,7.2402,7.2379,7.2026,7.1844,7.1872,7.149,7.0871,7.0059,7.002,6.9133,6.7507,6.7957,6.6762,6.4039,6.3735,6.4314,6.5712,6.6672,6.8032,6.9728,6.9491,6.8927,6.8154,6.7764,6.722,6.6447,6.6096,6.6055,6.6406,6.643,6.5675,6.4144,6.1931,6.0211,0.0,0.0,0.0,0.0,0.0,0.0,0.0,0.0,0.0,0.0,0.0,6.7985,6.7818,6.9484,7.0883,7.1701,7.2418,7.3673,7.5625,7.5529,7.6185,7.822,7.744,7.7355,7.8863,7.8584,7.8317,7.8463,7.8392,7.8375,7.8445,7.7343,7.6393,7.5995,7.5942,7.6013,7.5996,7.6027,7.6167,7.667,7.6704,7.6687,7.6671,7.6638,7.64,7.5896,7.5714,7.5541,7.5131,7.5264,7.5407,7.5092,7.5581,7.5837,7.5064,7.476,7.4266,7.3163,7.2893,7.2562,8.239,8.2221,8.2213,8.1707,8.0863,8.0349,7.9442,7.8347,7.824,7.7205,7.5592,7.463,7.4157,7.4113,7.3938,7.387,7.3926,7.3864,7.3832,7.3839,7.3839,7.3838,7.3745,7.2999,7.2681,7.27,7.1965,7.1236,7.0512,7.0518,7.0052,6.9271,6.9323,6.8933,6.7989,6.7376,6.7064,6.6955,6.7746,6.9064,7.085,6.983,6.8562,6.7164,6.6149,6.4902,6.3386,6.2722,6.2722,6.3464,6.3645,6.4179,6.5074,6.3271,6.2639,0.0,6.19,0.0,0.0,0.0,0.0,0.0,0.0,0.0,0.0,6.9314,6.9811,7.064,7.2152,7.3367,7.4159,7.5593,7.6275,7.5811,7.7588,7.8386,7.7281,7.8332,7.8912,7.8254,7.8873,7.8989,7.826,7.8718,7.9144,7.9123,7.859,7.8142,7.821,7.7868,7.7281,7.6677,7.6589,7.6497,7.6573,7.6558,7.6558,7.6596,7.6553,7.6477,7.6183,7.6121,7.6073,7.5839,7.5748,7.5696,7.4995,7.5512,7.5719,7.4877,7.5126,7.5087,7.3843,7.3406,7.3118,8.4582,8.3925,8.393,8.3407,8.2513,8.244,8.1134,7.9054,7.8342,7.7395,7.632,7.5937,7.5381,7.4757,7.4616,7.4609,7.4707,7.4641,7.4635,7.4649,7.4649,7.4308,7.3748,7.3549,7.3478,7.3491,7.3342,7.3174,7.3079,7.3087,7.2367,7.1062,7.1775,7.1373,6.9922,0.0,0.0,0.0,6.899,7.0211,7.2486,6.9817,6.8539,6.8814,6.6743,0.0,6.5144,6.5651,6.5964,6.6199,6.7446,0.0,0.0,0.0,0.0,0.0,0.0,0.0,0.0,0.0,0.0,0.0,7.2694,7.2347,7.0195,7.2225,7.4101,7.5014,7.538,7.5945,7.6871,7.7225,7.7927,7.9087,7.9087,7.9364,8.0337,8.0221,8.0143,8.0724,8.0917,8.0685,7.9834,7.9873,7.995,7.9944,7.9846,7.9748,7.9745,7.8175,7.6834,7.6477,7.6505,7.6455,7.6438,7.6438,7.6444,7.6438,7.6438,7.6133,7.5526,7.5353,7.4956,7.4352,7.4553,7.499,7.474,7.528,7.5549,7.4704,7.4689,7.4458,7.3499,7.3261,7.2824,8.4626,0.0,8.4111,8.3811,0.0,8.3388,8.2464,8.0827,7.9608,7.853,7.7575,7.744,7.7161,7.6764,7.6661,7.6654,7.671,7.6647,7.6633,7.6668,7.6668,7.6496,7.61,7.5714,7.5542,7.5536,7.4687,7.4282,7.4359,7.4417,7.4055,7.3345,7.4303,7.4393,7.3621,7.3679,7.2934,7.131,7.1708,7.2962,7.4954,7.3443,7.2163,7.1308,6.9662,0.0,0.0,0.0,0.0,0.0,0.0,0.0,0.0,7.087,0.0,7.2651,7.1931,7.21,7.3638,7.4226,7.4995,7.6201,7.6681,7.6043,7.3966,7.5713,7.708,7.7531,7.7544,7.7846,7.8728,7.8851,7.9198,7.9971,8.0126,8.0357,8.066,8.0776,8.0737,8.0782,8.1162,8.1085,8.0235,8.0512,8.0744,8.0705,8.0351,8.0126,8.0023,7.9156,7.8125,7.7222,7.7022,7.6856,7.6439,7.6356,7.6338,7.6313,7.6301,7.607,7.5587,7.549,7.5249,7.4716,7.4919,7.5188,7.5188,7.5448,7.5569,7.5138,7.4708,7.4156,7.3289,7.2839,7.2188,8.4456,8.4341,8.4284,8.417,8.4009,8.4001,8.3538,8.2644,0.0,0.0,0.0,7.8602,7.8602,7.8658,7.8544,7.8514,7.8604,7.8507,7.8484,7.8484,7.8484,7.8514,7.8566,7.7918,7.76,7.7585,7.6236,7.5548,7.5561,7.5843,7.6011,7.6151,7.7064,7.761,7.7742,7.7955,7.7025,7.5066,7.5025,7.5853,7.7437,7.7087,7.588,7.3933,7.2592,7.0909,6.8812,6.8061,6.8374,6.9777,7.0236,7.1216,7.2835,7.3534,7.4595,7.6206,7.6388,7.7588,8.0093,7.9308,7.9327,8.0763,8.0074,7.9128,7.8129,7.869,7.9179,7.9295,7.9351,7.9664,8.0397,8.059,8.0674,8.0667,8.1291,8.1407,8.0674,8.1091,8.1214,8.0513,8.0905,8.106,8.0404,8.0867,8.1284,8.1214,8.0719,8.0127,8.0025,7.981,7.9146,7.7864,7.751,7.7304,7.6533,7.6282,7.6257,7.6212,7.6192,7.6131,7.602,7.5954,7.5879,7.5601,7.566,7.5652,7.5644,7.5644,7.5658,7.5591,7.5077,7.4295,7.3433,7.2743,7.2049,8.6066,8.6044,8.6037,8.5575,8.4859,8.4813,8.4312,8.3256,8.0952,7.9432,7.864,7.8529,7.8507,7.8514,7.8492,7.8492,7.8538,7.8492,7.8484,7.8484,7.8484,7.8484,7.8499,7.8384,7.8353,7.836,7.8129,7.8005,7.8185,7.8924,7.9346,7.9482,8.0298,8.0793,8.0981,8.1713,8.195,8.1656,7.8411,7.7521,7.9073,7.6975,7.5947,7.6091,7.3313,7.1513,7.1126,7.174,7.2124,7.2435,7.4454,7.6416,7.8073,7.8206,7.8971,8.0639,8.1316,8.1548,8.1278,8.2266,8.3042,8.321,8.2603,8.1471,7.9932,7.9796,8.0179,8.0881,8.1561,8.2094,8.2249,8.275,8.309,8.3174,8.3329,8.3097,8.2249,8.228,8.2087,8.1277,8.1207,8.1323,8.1161,8.1239,8.127,8.1284,8.1109,8.0814,8.0081,7.9369,7.8572,7.7768,7.7537,7.7144,7.643,7.6205,7.6179,7.6198,7.6131,7.6055,7.5976,7.5856,7.5747,7.5633,7.5557,7.5523,7.5553,7.5544,7.5506,7.5489,7.5306,7.4915,7.4087,7.3777,7.3012,8.6547,8.6925,8.6454,8.6268,8.6228,8.5342,8.4703,8.4178,8.2594,8.1686,8.1339,8.127,8.1254,8.1254,8.1254,8.1293,8.1254,8.1293,8.1254,8.1254,8.1293,8.1293,8.1293,8.1254,8.1254,8.1216,8.0785,8.0577,8.0654,8.1111,8.1375,8.1494,8.2361,8.2881,8.2979,8.3353,8.3596,8.3615,8.1929,8.1422,8.2093,8.101,8.0291,8.0177,7.8556,7.7606,7.7136,7.746,7.8067,7.8923,8.0073,8.1279,8.2405,8.246,8.2825,8.3596,8.394,8.4159,8.4236,8.4446,8.4537,8.4455,8.3715,8.2936,8.2126,8.202,8.2152,8.2576,8.2963,8.3133,8.3133,8.348,8.3711,8.3672,8.3711,8.3557,8.3249,8.3133,8.2979,8.2586,8.2124,8.1854,8.1823,8.1477,8.1199,8.1199,8.1199,8.0853,8.0036,7.9469,7.8714,7.774,7.741,7.6948,7.6174,7.5862,7.5871,7.5947,7.5887,7.5849,7.5833,7.5739,7.5633,7.554,7.5457,7.5403,7.5474,7.5421,7.5403,7.5424,7.5042,7.4622,7.424,7.3896,7.2979,8.7154,8.7685,8.6987,8.6898,8.7188,8.5766,8.5104,8.5027,8.4382,8.4113,8.4036,8.3715,8.3561,8.3544,8.3561,8.3569,8.3569,8.3593,8.3563,8.3601,8.3601,8.3601,8.3601,8.3601,8.3601,8.3524,8.2909,8.2593,8.2609,8.2871,8.3123,8.3369,8.4143,8.4656,8.4862,8.4869,8.4939,8.5163,8.5341,8.517,8.4664,8.4975,8.4853,8.4247,8.4141,8.3844,8.3213,8.3092,8.3647,8.4824,8.5081,8.5453,8.597,8.5903,8.5821,8.5821,8.5614,8.5794,8.6353,8.5661,8.5217,8.529,8.4474,8.4058,8.4235,8.4227,8.4034,8.3765,8.3795,8.3909,8.3955,8.4101,8.417,8.414,8.4178,8.4148,8.3947,8.3901,8.3777,8.3538,8.28,8.2245,8.2098,8.1505,8.0997,8.0973,8.0926,8.0564,7.9835,7.948,7.8823,7.7908,7.7278,7.6716,7.5862,7.5595,7.5498,7.5578,7.5502,7.5502,7.5536,7.551,7.5506,7.5436,7.5376,7.5349,7.5418,7.5403,7.5376,7.5407,7.5042,7.4584,7.4545,7.3934,7.3055,8.8496,8.8556,8.8315,8.7833,8.707,8.615,8.5775,8.5728,8.5613,8.5604,8.543,8.408,8.3427,8.3329,8.3436,8.3508,8.3508,8.3561,8.3632,8.367,8.3601,8.3601,8.3678,8.364,8.3601,8.3678,8.3601,8.364,8.3678,8.4379,8.5079,8.5695,8.5865,8.6353,8.7063,8.7156,8.758,8.8428,8.8458,8.7445,8.5536,8.6788,8.7538,8.7468,8.7429,8.7423,8.712,8.7272,8.7262,8.7519,8.8033,8.8444,8.8436,8.7788,8.7364,8.7332,8.6578,8.6146,8.612,8.5429,8.536,8.5865,8.5328,8.5135,8.5733,8.5833,8.5217,8.4178,8.4371,8.4747,8.4816,8.5363,8.567,8.5632,8.5701,8.5593,8.4931,8.4786,8.4445,8.3516,8.2893,8.2152,8.2091,8.1366,8.0699,8.0616,8.0505,8.0171,7.9444,7.9076,7.8628,7.7797,7.7202,7.6426,7.5659,7.5327,7.5263,7.517,7.5114,7.5152,7.5245,7.5208,7.5142,7.532,7.5347,7.5301,7.5439,7.5483,7.5436,7.5492,7.5356,7.5318,7.528,7.469,7.3849,8.8862,8.9276,8.8678,8.823,8.7809,8.7464,8.7349,8.7273,8.6765,8.6545,8.6307,8.5271,8.4762,8.478,8.4816,8.4834,8.4834,8.4878,8.4929,8.5019,8.5019,8.5044,8.5055,8.5055,8.5093,8.5132,8.5593,8.5824,8.5978,8.6717,8.7325,8.7594,8.7632,8.7841,8.8183,8.823,8.84,8.878,8.878,8.8313,8.7632,8.8115,8.8478,8.8487,8.8487,8.848,8.848,8.845,8.8652,8.9069,8.9455,8.964,8.9546,8.8784,8.8112,8.7611,8.6778,8.6724,8.76,8.6469,8.626,8.7525,8.6388,8.578,8.6055,8.6082,8.5711,8.5219,8.5368,8.5632,8.5624,8.5893,8.6094,8.6085,8.6052,8.5894,8.5634,8.5458,8.5253,8.4834,8.4061,8.3461,8.3179,8.2072,8.1003,8.0526,8.0248,7.9846,7.9142,7.8755,7.8311,7.7617,7.7093,7.6599,7.5842,7.5155,7.4945,7.4909,7.4859,7.4907,7.5027,7.4988,7.4939,7.5076,7.5056,7.5104,7.5255,7.5339,7.532,7.5421,7.5509,7.5509,7.5509,7.5151,7.4678,8.9532,8.9936,8.9075,8.8663,8.8644,8.8414,8.8337,8.8261,8.7638,8.7332,8.7159,8.6623,8.6356,8.6374,8.622,8.623,8.6421,8.6487,8.6581,8.6652,8.6652,8.6688,8.674,8.674,8.6748,8.6825,8.7363,8.7632,8.7756,8.8282,8.8637,8.8645,8.8701,8.8795,8.9017,8.9017,8.9133,8.9372,8.9363,8.9436,8.9456,8.9522,8.9424,8.9308,8.947,8.9586,8.9578,8.9563,8.9793,9.0307,9.0416,9.0447,9.0312,8.9591,8.8783,8.7973,8.7357,8.7526,8.8694,8.7578,8.7399,8.8419,8.7478,8.6808,8.6782,8.6731,8.6679,8.6652,8.6661,8.6537,8.5979,8.594,8.5923,8.584,8.5768,8.5788,8.5825,8.577,8.5704,8.5684,8.4786,8.405,8.3428,8.2172,8.1032,8.0269,7.9996,7.9744,7.9132,7.882,7.8477,7.7894,7.7561,7.6972,7.6322,7.5788,7.5216,7.501,7.5069,7.5036,7.4993,7.4839,7.4809,7.4929,7.4839,7.4839,7.5036,7.5085,7.5114,7.5255,7.5347,7.5347,7.5264,7.5189,7.5133,9.08,9.0704,8.985,8.9444,8.9228,8.8588,8.8255,8.8494,8.8178,8.8092,8.8168,8.8053,8.8015,8.7997,8.7398,8.7351,8.7973,8.8098,8.8097,8.8116,8.8164,8.8241,8.8317,8.8317,8.825,8.8124,8.8287,8.8422,8.8422,8.8543,8.8502,8.8578,8.8782,8.9133,8.9739,8.9855,9.0239,9.0825,9.0902,9.1018,9.1018,9.1035,9.0736,9.0326,9.0852,9.1152,9.1191,9.1195,9.1193,9.1223,9.1155,9.1103,9.1056,9.0295,8.9466,8.8735,8.8543,8.8581,8.8726,8.8526,8.8547,8.8662,8.8466,8.8427,8.8102,8.8037,8.7991,8.8231,8.7809,8.7194,8.5932,8.5808,8.5672,8.5443,8.5266,8.5426,8.5588,8.5664,8.5609,8.5561,8.4812,8.3656,8.1789,8.1181,8.0785,8.0091,7.9664,7.9482,7.9395,7.9184,7.9049,7.8897,7.836,7.7611,7.694,7.641,7.6143,7.5909,7.5625,7.5507,7.5073,7.4809,7.4826,7.4778,7.4757,7.4757,7.4798,7.4829,7.4859,7.4959,7.5114,7.5114,7.5018,7.4889,7.4839,9.1472,9.1424,9.1052,9.0905,9.0937,9.1166,9.1281,9.1243,9.0718,9.0478,9.0364,8.9944,8.9982,9.0451,9.0176,8.9317,8.8209,8.8172,8.8221,8.827,8.828,8.8318,8.8414,8.8423,8.8422,8.8545,8.9024,8.9552,9.006,9.019,9.0198,9.0115,9.0133,9.037,9.0645,9.0648,9.0831,9.1163,9.1201,9.1201,9.124,9.1201,9.1322,9.1651,9.1382,9.1266,9.1266,9.1232,9.1215,9.1224,9.1227,9.1201,9.1124,9.0393,8.9517,8.8833,8.8679,8.891,8.9308,8.8827,8.8651,8.9046,8.849,8.8114,8.7916,8.7843,8.778,8.7786,8.7834,8.7323,8.6757,8.6653,8.6807,8.6693,8.6577,8.6479,8.6595,8.6285,8.5931,8.5774,8.4995,8.3923,8.2831,8.2004,8.1198,8.0358,7.9686,7.935,7.9251,7.9165,7.9129,7.9128,7.889,7.8565,7.8376,7.7236,7.6533,7.6406,7.6253,7.6239,7.5966,7.5441,7.5354,7.5112,7.4967,7.4703,7.4714,7.4726,7.4726,7.4757,7.4917,7.4917,7.4829,7.4705,7.4643,9.209,9.2079,9.2039,9.205,9.2155,9.2727,9.2956,9.288,9.2357,9.2111,9.2019,9.1528,9.1626,9.2138,9.2155,9.1364,8.9752,8.9457,8.9335,8.9348,8.9358,8.9551,8.9879,8.9927,8.9966,9.0024,9.0263,9.0877,9.15,9.125,9.1259,9.1654,9.149,9.1547,9.1824,9.1816,9.1816,9.191,9.1919,9.1919,9.1919,9.1919,9.2188,9.261,9.2226,9.1801,9.1624,9.1364,9.1201,9.1201,9.1201,9.1201,9.1124,9.0571,8.9997,8.9498,8.9329,8.9484,8.9936,8.943,8.9236,8.9623,8.9096,8.8554,8.8349,8.8258,8.8212,8.8226,8.8168,8.8062,8.7827,8.7927,8.7719,8.7113,8.6776,8.6776,8.681,8.6329,8.5877,8.5451,8.4924,8.4245,8.3517,8.2745,8.1768,8.0678,7.9916,7.9516,7.9204,7.9116,7.9116,7.9116,7.9079,7.9041,7.8866,7.8127,7.7471,7.7319,7.7119,7.7071,7.6761,7.6221,7.577,7.5495,7.5128,7.4768,7.4627,7.4654,7.4659,7.4659,7.468,7.4653,7.4627,7.4552,7.4487,9.2729,9.2729,9.2717,9.2717,9.2767,9.2893,9.2805,9.2931,9.2855,9.2962,9.303,9.2787,9.2943,9.3077,9.3087,9.2918,9.2602,9.1964,9.1614,9.1597,9.1586,9.2007,9.264,9.2612,9.2584,9.2644,9.2115,9.223,9.2797,9.1715,9.1717,9.2779,9.2352,9.2439,9.3331,9.3129,9.3244,9.3197,9.3159,9.3236,9.3369,9.3236,9.3274,9.3418,9.3312,9.3006,9.2529,9.1778,9.1423,9.1355,9.1278,9.124,9.1157,9.0914,9.0839,9.0695,9.0546,9.0472,9.0423,9.0326,9.0126,9.0133,9.0149,8.979,8.9493,8.9533,8.9535,8.9401,8.9339,8.9235,8.9145,8.8926,8.8028,8.5939,8.5995,8.6124,8.6052,8.5801,8.5386,8.4744,8.4491,8.4127,8.3401,8.3,8.2359,8.1193,8.0592,8.0167,7.9516,7.9341,7.9191,7.9116,7.9116,7.9116,7.9116,7.9053,7.8673,7.8328,7.8165,7.798,7.7556,7.7055,7.6608,7.6247,7.5798,7.5429,7.4775,7.4786,7.4549,7.4523,7.4518,7.4465,7.4398,7.4331,7.4312,9.3509,9.3581,9.3497,9.3509,9.3695,9.4164,9.443,9.443,9.443,9.4454,9.4477,9.4442,9.4477,9.4524,9.4501,9.4208,9.3709,9.3416,9.3114,9.2766,9.2608,9.2771,9.3093,9.3142,9.312,9.3155,9.2998,9.2988,9.31,9.2751,9.2858,9.3065,9.2964,9.2998,9.3406,9.3266,9.3235,9.3388,9.3398,9.3398,9.3398,9.3398,9.3705,9.4175,9.3743,9.3552,9.3966,9.3255,9.2907,9.2855,9.2301,9.1651,9.1126,9.0944,9.0809,9.0641,9.0569,9.0404,9.0203,9.0083,8.9944,8.9801,8.9654,8.9464,8.932,8.932,8.9307,8.9267,8.9294,8.9358,8.9109,8.8724,8.8205,8.7879,8.7865,8.7667,8.7499,8.6886,8.5812,8.4756,8.4381,8.4167,8.3904,8.3552,8.2736,8.2134,8.1595,8.0931,8.023,7.9917,7.9679,7.9266,7.9191,7.9116,7.9116,7.9116,7.8927,7.8736,7.8647,7.8596,7.8196,7.7883,7.7447,7.6923,7.6462,7.5962,7.5298,7.5021,7.4931,7.4556,7.45,7.4402,7.4258,7.4186,7.4186,9.4801,9.4829,9.475,9.4763,9.488,9.541,9.5513,9.5363,9.5338,9.5275,9.512,9.507,9.5107,9.5155,9.5143,9.5067,9.4913,9.4877,9.4846,9.4578,9.3629,9.3679,9.4231,9.4357,9.415,9.3884,9.3731,9.3753,9.3961,9.3447,9.3447,9.3901,9.3917,9.3955,9.4086,9.4282,9.4321,9.4135,9.4139,9.4133,9.4143,9.4175,9.4474,9.4885,9.439,9.4407,9.4871,9.4401,9.3941,9.3525,9.2699,9.1759,9.0884,9.0648,9.0453,9.029,9.0129,9.0003,8.9849,8.9729,8.9579,8.9438,8.928,8.9133,8.9033,8.8992,8.8992,8.9033,8.9143,8.9197,8.8986,8.8729,8.8681,8.8944,8.8579,8.8428,8.8053,8.749,8.6406,8.5297,8.4718,8.4654,8.4492,8.3952,8.3158,8.2821,8.237,8.1745,8.1031,8.0556,8.0092,7.9604,7.9304,7.9229,7.9116,7.9116,7.9116,7.9053,7.9003,7.894,7.8752,7.8539,7.8202,7.7488,7.6976,7.6488,7.5899,7.5899,7.5786,7.5249,7.4798,7.476,7.476,7.431,7.4235,9.6239,9.6284,9.6261,9.6171,9.6186,9.6223,9.5963,9.5635,9.5663,9.5507,9.5174,9.5224,9.5249,9.5323,9.5451,9.5755,9.6336,9.6287,9.6565,9.6538,9.5485,9.5053,9.6179,9.6293,9.5962,9.5353,9.4744,9.4753,9.5265,9.4204,9.3765,9.5242,9.5303,9.5307,9.5408,9.6106,9.5893,9.5333,9.5315,9.5248,9.526,9.5311,9.5367,9.5394,9.5157,9.506,9.5119,9.4887,9.4357,9.3447,9.2574,9.1677,9.071,9.0205,8.9958,8.9814,8.9566,8.9451,8.9386,8.9373,8.9307,8.9238,8.9211,8.9157,8.9019,8.8992,8.8992,8.8992,8.9019,8.9019,8.9006,8.8944,8.8944,8.893,8.8503,8.7828,8.6889,8.7339,8.6892,8.5789,8.5387,8.5312,8.5226,8.4574,8.3885,8.3196,8.2933,8.2483,8.1857,8.1256,8.0668,8.0143,7.9679,7.9341,7.9266,7.9116,7.9116,7.9116,7.9116,7.9116,7.9116,7.8966,7.8853,7.814,7.7577,7.7051,7.6713,7.6713,7.6563,7.615,7.5812,7.5587,7.5324,7.4986,7.4648,9.598,9.6299,9.6284,9.6284,9.6284,9.6284,9.6049,9.572,9.6262,9.6203,9.5942,9.6398,9.655,9.6742,9.664,9.6867,9.7058,9.707,9.712,9.7273,9.6868,9.6718,9.7286,9.7386,9.721,9.6893,9.6514,9.6535,9.6255,9.6056,9.6156,9.6205,9.6362,9.6523,9.6703,9.655,9.6478,9.6244,9.5731,9.5482,9.5395,9.5033,9.4781,9.4794,9.4857,9.4921,9.4958,9.4857,9.4452,9.3642,9.2817,9.1909,9.0955,9.0266,8.983,8.9591,8.9449,8.928,8.9157,8.9116,8.9088,8.9061,8.9075,8.9033,8.9006,8.8992,8.8992,8.8992,8.8992,8.8992,8.8992,8.8992,8.8992,8.8992,8.8729,8.8316,8.7677,8.7589,8.7377,8.6401,8.6175,8.595,8.5524,8.5073,8.4623,8.396,8.3622,8.3434,8.2683,8.2195,8.167,8.0706,8.0105,7.9679,7.9379,7.9191,7.9116,7.9116,7.9116,7.9116,7.9116,7.9041,7.9004,7.8778,7.8478,7.8027,7.7727,7.7589,7.7276,7.7051,7.6638,7.6338,7.63,7.6063,7.5624,9.6166,9.6441,9.6441,9.6441,9.6479,9.6815,9.6706,9.6389,9.6674,9.6626,9.6394,9.6787,9.7107,9.712,9.7228,9.7509,9.7812,9.7812,9.8053,9.8367,9.8196,9.7845,9.7535,9.7613,9.7636,9.7137,9.7137,9.6847,9.6571,9.6936,9.6823,9.6644,9.7016,9.7092,9.6757,9.6986,9.6801,9.6513,9.6082,9.5814,9.5522,9.5152,9.4756,9.4594,9.4545,9.4478,9.45,9.4775,9.457,9.3745,9.3113,9.2405,9.1445,9.0536,9.0004,8.9741,8.9464,8.9157,8.9047,8.8992,8.8992,8.8992,8.8992,8.8992,8.8992,8.8992,8.8992,8.8992,8.8992,8.8992,8.8992,8.8992,8.8992,8.8992,8.8992,8.8654,8.7903,8.8128,8.7865,8.7339,8.7001,8.6926,8.6312,8.5786,8.5162,8.4673,8.4185,8.3885,8.3434,8.3083,8.2558,8.1632,8.0706,8.0218,7.9754,7.9529,7.9191,7.9154,7.9116,7.9116,7.9116,7.9116,7.9079,7.9079,7.9079,7.9004,7.8553,7.829,7.829,7.794,7.7464,7.7164,7.7126,7.6964,7.6563,9.6663,9.674,9.674,9.674,9.6886,9.7537,9.7495,9.715,9.7232,9.6974,9.6697,9.6873,9.7252,9.7002,9.7563,9.7894,9.8561,9.8506,9.8926,9.9145,9.9079,9.8398,9.7421,9.7936,9.7722,9.7079,9.6629,9.6696,9.6829,9.6711,9.6644,9.6883,9.7366,9.7282,9.6981,9.7183,9.7055,9.6664,9.6088,9.5803,9.5456,9.5115,9.4622,9.4279,9.4387,9.4183,9.4284,9.4645,9.4712,9.3603,9.336,9.2736,9.1922,9.1059,9.0398,9.0024,8.9484,8.9019,8.8992,8.8992,8.8992,8.8992,8.8992,8.8992,8.8992,8.8992,8.8992,8.8992,8.8992,8.8992,8.8992,8.8992,8.8992,8.8992,8.8992,8.8654,8.8278,8.8579,8.8691,8.8053,8.794,8.7903,8.7401,8.6537,8.5374,8.5011,8.4561,8.4073,8.3772,8.3509,8.3083,8.2558,8.167,8.0781,8.033,7.988,7.9454,7.9191,7.9116,7.9116,7.9116,7.9116,7.9116,7.9116,7.9116,7.9116,7.9004,7.8928,7.8916,7.8766,7.8215,7.8065,7.799,7.7727,7.7351,9.7238,9.7632,9.7632,9.7632,9.7669,9.7835,9.7597,9.7188,9.7764,9.7681,9.7529,9.8005,9.8298,9.8298,9.8328,9.8591,9.8726,9.8764,9.8892,9.8915,9.896,9.8617,9.8058,9.837,9.8425,9.8107,9.8213,9.7928,9.759,9.7732,9.7928,9.7447,9.7723,9.8044,9.7803,9.716,9.7163,9.7126,9.5851,9.5283,9.5289,9.4488,9.3893,9.3708,9.4377,9.44,9.41,9.47,9.4735,9.3958,9.3271,9.2843,9.2387,9.1179,9.0498,9.0207,8.9555,8.9029,8.8992,8.9029,8.8992,8.8992,8.8992,8.8992,8.8992,8.8992,8.8992,8.8992,8.8992,8.8992,8.8992,8.8992,8.8992,8.8992,8.8992,8.8917,8.8804,8.8893,8.8841,8.8766,8.8654,8.8503,8.7889,8.7001,8.61,8.5424,8.4824,8.4223,8.4035,8.3922,8.3547,8.3121,8.2445,8.1632,8.1181,8.0656,8.0017,7.9567,7.9417,7.9154,7.9154,7.9116,7.9116,7.9116,7.9116,7.9116,7.9116,7.9116,7.9029,7.8966,7.8928,7.8741,7.8553,7.8365,7.8177,9.7172,9.7297,9.7297,9.7297,9.7372,9.7706,9.7735,9.759,9.7905,9.7985,9.7904,9.8365,9.8557,9.8573,9.8714,9.877,9.8807,9.8792,9.8714,9.8604,9.8541,9.8401,9.8192,9.8275,9.839,9.8369,9.8336,9.8091,9.7979,9.8107,9.8058,9.7792,9.8005,9.8033,9.8108,9.7475,9.748,9.7629,9.6703,9.6068,9.5855,9.4925,9.4003,9.4142,9.5028,9.5491,9.4934,9.5313,9.5165,9.4497,9.3716,9.331,9.3122,9.2108,9.147,9.1207,9.0193,8.963,8.9555,8.9217,8.8992,8.8992,8.8992,8.8992,8.8992,8.8992,8.8992,8.8992,8.8992,8.8992,8.8992,8.8992,8.8992,8.8992,8.8992,8.8992,8.8992,8.8992,8.8992,8.8992,8.8954,8.8766,8.8241,8.7452,8.7114,8.6575,8.5336,8.4786,8.4561,8.4411,8.396,8.3509,8.3046,8.2483,8.207,8.1482,8.0693,8.0255,7.9917,7.9492,7.9191,7.9154,7.9116,7.9116,7.9116,7.9116,7.9116,7.9116,7.9116,7.9079,7.9041,7.9079,7.9041,7.8778,7.8666,9.7098,9.6777,9.6814,9.6814,9.6926,9.7595,9.7909,9.7872,9.7892,9.7924,9.7944,9.8142,9.8275,9.8287,9.8461,9.862,9.862,9.8589,9.8434,9.8254,9.8275,9.8125,9.8012,9.7978,9.7995,9.7892,9.7978,9.7904,9.7904,9.7909,9.7955,9.7906,9.7889,9.7961,9.7909,9.7743,9.7669,9.7743,9.7223,9.6903,9.6579,9.573,9.5003,9.4917,9.5851,9.629,9.5822,9.5853,9.5685,9.4899,9.428,9.4016,9.3769,9.3235,9.2709,9.2582,9.1019,9.0179,8.9968,8.9592,8.9217,8.9067,8.9179,8.9104,8.9067,8.8992,8.8992,8.8992,8.8992,8.8992,8.8992,8.8992,8.8992,8.8992,8.8992,8.8992,8.8992,8.8992,8.8992,8.8992,8.8992,8.8879,8.8616,8.809,8.794,8.7589,8.6312,8.5374,8.5148,8.4848,8.4448,8.3998,8.3509,8.2971,8.252,8.2257,8.1482,8.0781,8.0443,8.0092,7.9679,7.9905,7.9905,7.9229,7.9116,7.9154,7.9154,7.9116,7.9116,7.9116,7.9116,7.9116,7.9116,7.9116,7.9116,9.7955,9.7669,9.7669,9.7669,9.7706,9.7855,9.7892,9.7892,9.7892,9.7892,9.7909,9.7924,9.7975,9.7992,9.7992,9.8044,9.8145,9.8162,9.8095,9.7992,9.7992,9.7944,9.7926,9.7892,9.7892,9.7892,9.7892,9.7892,9.7892,9.7892,9.7892,9.7892,9.7892,9.7892,9.7706,9.7297,9.7372,9.7669,9.6963,9.6514,9.6551,9.6105,9.5531,9.5412,9.6406,9.6564,9.6071,9.5902,9.5587,9.4781,9.4098,9.3837,9.362,9.3109,9.2815,9.2521,9.1357,9.0517,9.0442,9.0142,8.9667,8.9367,8.963,8.963,8.9292,8.9029,8.9104,8.9029,8.9029,8.9029,8.8992,8.8992,8.8992,8.8992,8.8992,8.8992,8.8992,8.8992,8.8992,8.8992,8.8992,8.8992,8.8729,8.8503,8.8278,8.7903,8.7077,8.6162,8.5786,8.5411,8.4974,8.4486,8.3998,8.3421,8.2896,8.2708,8.222,8.1332,8.0969,8.0931,8.0731,8.1031,8.0843,8.0092,7.9567,7.9492,7.9417,7.9379,7.9454,7.9679,7.9454,7.9191,7.9492,7.9792,7.9529,9.8142,9.7909,9.7892,9.7892,9.7892,9.7892,9.7892,9.7892,9.7892,9.7892,9.7892,9.7892,9.7892,9.7892,9.7892,9.7892,9.7892,9.7892,9.7892,9.7892,9.7892,9.7892,9.7892,9.7892,9.7892,9.7892,9.7892,9.7892,9.7892,9.7892,9.7892,9.7892,9.7892,9.7892,9.7855,9.7557,9.7483,9.7595,9.7112,9.6814,9.7223,9.6777,9.6517,9.6365,9.6863,9.712,9.691,9.6485,9.6045,9.5294,9.46,9.4043,9.364,9.3364,9.317,9.3078,9.2131,9.1456,9.1357,9.1169,9.0681,9.047,9.0681,9.0681,9.0268,8.9968,8.9517,8.9217,8.948,8.9442,8.9067,8.9029,8.8992,8.8992,8.8992,8.8992,8.8992,8.8992,8.8992,8.8992,8.8992,8.8992,8.8954,8.8729,8.8503,8.809,8.7602,8.7077,8.6462,8.6087,8.5687,8.5274,8.4824,8.426,8.3722,8.3496,8.3083,8.2195,8.167,8.1632,8.1519,8.167,8.1444,8.0881,8.043,8.0393,8.0393,8.0656,8.0468,8.0318,8.0393,8.043,8.043,8.0393,8.0205,9.8142,9.7892,9.7892,9.7892,9.7892,9.7892,9.7892,9.7892,9.7892,9.7892,9.7892,9.7892,9.7892,9.7892,9.7892,9.7892,9.7892,9.7892,9.7892,9.7892,9.7892,9.7892,9.7892,9.7892,9.7892,9.7892,9.7892,9.7892,9.7892,9.7892,9.7892,9.7892,9.7892,9.7892,9.7855,9.778,9.7892,9.7892,9.7892,9.7892,9.7892,9.7855,9.7595,9.6963,9.752,9.7835,9.7666,9.7062,9.6348,9.5616,9.4894,9.426,9.3603,9.3485,9.3625,9.374,9.3086,9.2763,9.2478,9.2146,9.162,9.1259,9.1582,9.162,9.1334,9.0719,9.0231,8.978,8.9743,8.9968,8.9442,8.9104,8.9029,8.8992,8.8992,8.8992,8.8992,8.8992,8.8992,8.8992,8.8992,8.8992,8.8954,8.8954,8.8729,8.8691,8.8203,8.7828,8.7302,8.7001,8.6588,8.6175,8.5687,8.5162,8.4749,8.4472,8.3947,8.3171,8.2796,8.2683,8.2383,8.2158,8.2007,8.212,8.212,8.2083,8.2007,8.167,8.1219,8.1106,8.1444,8.1482,8.1144,8.1106,8.1031,9.8142,9.7892,9.7892,9.7892,9.7874,9.7874,9.7874,9.7874,9.7874,9.7892,9.7874,9.7892,9.7892,9.7892,9.7892,9.7892,9.7892,9.7892,9.7892,9.7892,9.7892,9.7892,9.7892,9.7892,9.7892,9.7892,9.7892,9.7892,9.7892,9.7892,9.7892,9.7892,9.7892,9.7892,9.7892,9.7892,9.7892,9.7892,9.7892,9.7892,9.7892,9.7892,9.778,9.7743,9.7817,9.7892,9.7817,9.72,9.642,9.5619,9.4859,9.4084,9.3408,9.3423,9.3485,9.337,9.296,9.2541,9.2593,9.2555,9.2313,9.2013,9.2177,9.2094,9.1793,9.162,9.1409,9.1259,9.0756,9.0329,9.0043,8.9442,8.9142,8.9029,8.9067,8.9029,8.8992,8.8992,8.8992,8.8992,8.8992,8.8992,8.8992,8.8992,8.8954,8.8954,8.8841,8.8428,8.8128,8.779,8.7339,8.6851,8.6513,8.5988,8.5575,8.5312,8.4974,8.4185,8.4035,8.3885,8.3697,8.3585,8.3697,8.3772,8.3772,8.3472,8.3059,8.2571,8.1932,8.2158,8.2834,8.2383,8.1594,8.1707,8.227,9.768,9.7538,9.7575,9.7575,9.7575,9.7575,9.7538,9.7593,9.7699,9.7697,9.777,9.7857,9.7892,9.7892,9.7892,9.7892,9.7892,9.7892,9.7892,9.7892,9.7892,9.7892,9.7892,9.7892,9.7892,9.7892,9.7892,9.7892,9.7892,9.7892,9.7892,9.7892,9.7892,9.7892,9.7892,9.7892,9.7892,9.7892,9.7892,9.7892,9.7892,9.7892,9.7892,9.7892,9.7892,9.7892,9.778,9.7595,9.6926,9.6163,9.5375,9.4628,9.3846,9.3465,9.3216,9.3195,9.3077,9.2978,9.3071,9.3109,9.2855,9.278,9.2908,9.2811,9.2375,9.2515,9.2333,9.1522,9.162,9.138,9.0855,9.0156,8.9855,8.9578,8.9175,8.9001,8.8964,8.8992,8.8992,8.8992,8.8978,8.895,8.8922,8.8936,8.8936,8.8964,8.8926,8.8725,8.8588,8.8579,8.8015,8.7415,8.7114,8.6814,8.6401,8.6063,8.6025,8.5537,8.55,8.5349,8.5274,8.5274,8.5162,8.5274,8.5387,8.4899,8.4223,8.396,8.3772,8.4035,8.4411,8.3947,8.3596,8.421,8.4548,9.7175,9.7138,9.7248,9.7285,9.7285,9.7285,9.7285,9.7321,9.7448,9.7557,9.7575,9.7681,9.777,9.7822,9.7822,9.784,9.7892,9.7892,9.7892,9.7892,9.7892,9.7892,9.7892,9.7892,9.7892,9.7892,9.7892,9.7892,9.7892,9.7892,9.7892,9.7892,9.7892,9.7892,9.7892,9.7892,9.7892,9.7892,9.7892,9.7892,9.7892,9.7892,9.7892,9.7892,9.7892,9.7892,9.7892,9.7855,9.7446,9.6591,9.5774,9.4953,9.4173,9.3446,9.3074,9.3054,9.3056,9.3136,9.3248,9.3342,9.3485,9.3501,9.3501,9.3257,9.296,9.3485,9.3567,9.221,9.215,9.2075,9.1655,9.0726,9.0074,8.9647,8.9287,8.909,8.8879,8.8851,8.8823,8.8794,8.878,8.8808,8.8808,8.8837,8.8879,8.8908,8.8922,8.8894,8.8819,8.8795,8.8495,8.7792,8.7506,8.7421,8.7476,8.7138,8.6988,8.6763,8.6688,8.6513,8.6213,8.6138,8.6063,8.6326,8.6626,8.6438,8.58,8.5762,8.5725,8.5537,8.55,8.591,8.6097,8.6524,8.6387,9.676,9.6762,9.7119,9.7266,9.7266,9.7285,9.7266,9.723,9.7285,9.7358,9.7339,9.7339,9.7466,9.7573,9.7664,9.7734,9.7892,9.7892,9.7892,9.7892,9.7892,9.7892,9.7892,9.7892,9.7892,9.7892,9.7892,9.7892,9.7892,9.7892,9.7892,9.7892,9.7892,9.7892,9.7892,9.7892,9.7892,9.7892,9.7892,9.7892,9.7892,9.7892,9.7892,9.7892,9.7892,9.7892,9.7892,9.7892,9.7632,9.6777,9.5886,9.518,9.44,9.3471,9.3062,9.3004,9.3021,9.3086,9.3135,9.3296,9.3454,9.3485,9.3485,9.3432,9.3255,9.3383,9.3361,9.3145,9.2802,9.2472,9.1821,9.0954,9.0431,9.0109,8.9764,8.9165,8.8904,8.865,8.8606,8.8562,8.8592,8.865,8.8635,8.8664,8.8708,8.8751,8.8722,8.8671,8.8492,8.8455,8.846,8.8123,8.7829,8.7923,8.8537,8.8298,8.7717,8.7431,8.7383,8.7087,8.6776,8.6776,8.7077,8.7001,8.7227,8.7339,8.7415,8.7114,8.6851,8.6551,8.6612,8.7049,8.7083,8.7107,8.6961,9.6722,9.6741,9.6894,9.6914,9.6914,9.6914,9.6914,9.6951,9.7063,9.7193,9.7266,9.7285,9.7321,9.7394,9.7412,9.7502,9.768,9.7697,9.7805,9.7874,9.7892,9.7892,9.7892,9.7892,9.7892,9.7892,9.7892,9.7892,9.7892,9.7892,9.7892,9.7892,9.7892,9.7892,9.7892,9.7892,9.7892,9.7892,9.7892,9.7892,9.7892,9.7892,9.7892,9.7892,9.7892,9.7892,9.7892,9.7892,9.7669,9.7149,9.6071,9.5403,9.4771,9.3731,9.3136,9.3025,9.3025,9.2988,9.3025,9.3119,9.3184,9.3216,9.3264,9.3344,9.336,9.3423,9.3485,9.3352,9.3171,9.2857,9.2776,9.2007,9.135,9.0961,9.0296,8.9496,8.9033,8.8794,8.8496,8.8481,8.8488,8.8562,8.8503,8.8459,8.8518,8.8577,8.8547,8.8466,8.8287,8.8212,8.8309,8.8353,8.8083,8.8051,8.8601,8.8503,8.8227,8.812,8.7989,8.7768,8.7585,8.8053,8.8241,8.8053,8.7903,8.809,8.8203,8.8166,8.7978,8.7715,8.7828,8.8152,8.8073,8.7806,8.7571,9.6722,9.6722,9.6722,9.6722,9.6722,9.6722,9.6722,9.6741,9.6838,9.697,9.7101,9.7101,9.7156,9.7193,9.7211,9.7321,9.7484,9.7573,9.7699,9.7787,9.7857,9.7892,9.7892,9.7892,9.7892,9.7892,9.7892,9.7892,9.7892,9.7892,9.7892,9.7892,9.7892,9.7892,9.7892,9.7892,9.7892,9.7892,9.7892,9.7892,9.7892,9.7892,9.7892,9.7892,9.7892,9.7892,9.7892,9.7892,9.7892,9.7409,9.6703,9.5923,9.5217,9.4437,9.3545,9.3302,9.3136,9.3025,9.3025,9.3248,9.3211,9.3128,9.3437,9.3391,9.3253,9.328,9.3296,9.3312,9.3291,9.336,9.3285,9.238,9.1805,9.1311,9.0581,8.9821,8.9389,8.9075,8.8681,8.8398,8.8391,8.8354,8.8323,8.8263,8.8308,8.8391,8.8323,8.8293,8.8256,8.8234,8.8294,8.8339,8.8309,8.8376,8.8495,8.839,8.8322,8.8388,8.8334,8.8518,8.8575,8.8908,8.8978,8.8654,8.8616,8.8917,8.8841,8.8616,8.8729,8.8841,8.8814,8.8622,8.8649,8.8382,8.8396,9.6722,9.6722,9.6722,9.6722,9.6722,9.6722,9.6722,9.6722,9.6705,9.6743,9.6762,9.6762,9.6857,9.697,9.7007,9.7119,9.7285,9.7466,9.7573,9.7644,9.7787,9.7857,9.7892,9.7892,9.7892,9.7892,9.7892,9.7892,9.7892,9.7892,9.7892,9.7892,9.7892,9.7892,9.7892,9.7892,9.7892,9.7892,9.7892,9.7892,9.7892,9.7892,9.7892,9.7892,9.7892,9.7892,9.7892,9.7892,9.7892,9.7669,9.6963,9.6406,9.6183,9.4957,9.4214,9.4028,9.3508,9.3211,9.3136,9.3805,9.3917,9.3508,9.3892,9.3818,9.3281,9.3112,9.3219,9.3358,9.3161,9.3054,9.2723,9.2405,9.2087,9.1731,9.1041,9.0499,9.0068,8.9547,8.9228,8.876,8.8363,8.8152,8.8152,8.8115,8.8131,8.8131,8.8115,8.8115,8.8162,8.8208,8.8269,8.8263,8.8308,8.8323,8.8369,8.8444,8.8466,8.8518,8.8562,8.8635,8.8693,8.8751,8.8837,8.8936,8.8964,8.8936,8.8964,8.8954,8.8992,8.8978,8.8894,8.8814,8.8894,8.8898,8.88,9.6722,9.6722,9.6722,9.6722,9.6722,9.6722,9.6722,9.6722,9.6722,9.6722,9.6722,9.6722,9.676,9.6818,9.6856,9.6914,9.7082,9.7138,9.7266,9.7573,9.7699,9.7787,9.7857,9.7892,9.7892,9.7892,9.7892,9.7892,9.7892,9.7892,9.7892,9.7892,9.7892,9.7892,9.7892,9.7892,9.7892,9.7892,9.7892,9.7892,9.7892,9.7892,9.7892,9.7892,9.7892,9.7892,9.7892,9.7892,9.7892,9.7817,9.7112,9.674,9.6554,9.5477,9.4808,9.4585,9.4177,9.4622,9.4771,9.5254,9.5403,9.4883,9.4362,9.4474,9.4437,9.3471,9.3434,9.3508,9.3322,9.3174,9.2856,9.2819,9.2612,9.2463,9.1943,9.146,9.0977,9.0419,8.9952,8.9357,8.8917,8.8567,8.8418,8.8567,8.8567,8.836,8.8323,8.8174,8.8168,8.8131,8.8162,8.8162,8.8177,8.8208,8.8239,8.8278,8.8339,8.8369,8.8399,8.8459,8.8518,8.8592,8.8693,8.8794,8.8837,8.8865,8.8922,8.8964,8.8992,8.8964,8.8908,8.8879,8.8936,8.8964,8.894,9.6722,9.6722,9.6722,9.6722,9.6722,9.6722,9.6722,9.6722,9.6722,9.6722,9.6722,9.6722,9.6722,9.6722,9.6741,9.6724,9.6895,9.6989,9.7063,9.7412,9.7556,9.7681,9.7787,9.7874,9.7892,9.7892,9.7892,9.7892,9.7892,9.7892,9.7892,9.7892,9.7892,9.7892,9.7892,9.7892,9.7892,9.7892,9.7892,9.7892,9.7892,9.7892,9.7892,9.7892,9.7892,9.7892,9.7892,9.7892,9.7892,9.7706,9.7409,9.7037,9.6814,9.6257,9.5588,9.5365,9.5105,9.5551,9.5848,9.6108,9.622,9.6294,9.5477,9.518,9.518,9.414,9.414,9.4102,9.3768,9.3545,9.3434,9.3397,9.3248,9.3099,9.2691,9.2171,9.1576,9.1019,9.061,9.0053,8.957,8.9198,8.8976,8.9013,8.9161,8.8827,8.8545,8.8397,8.8211,8.8137,8.81,8.81,8.81,8.8131,8.8146,8.8146,8.8208,8.8217,8.8263,8.8308,8.8384,8.8459,8.8547,8.8635,8.8679,8.8737,8.8865,8.8936,8.8964,8.8978,8.8978,8.8978,8.8992,8.8992,8.8992,9.6722,9.6722,9.6722,9.6722,9.6722,9.6722,9.6722,9.6722,9.6722,9.6722,9.6722,9.6722,9.6722,9.6722,9.6722,9.6741,9.6724,9.6895,9.7007,9.7138,9.7394,9.752,9.7699,9.7805,9.7874,9.7892,9.7892,9.7892,9.7892,9.7892,9.7892,9.8003,9.7966,9.7929,9.7892,9.7892,9.7892,9.7892,9.7892,9.7892,9.7892,9.7892,9.7892,9.7892,9.7892,9.7892,9.7892,9.7892,9.7892,9.7855,9.7817,9.7817,9.7595,9.7074,9.6777,9.6443,9.5923,9.6034,9.6517,9.6814,9.7037,9.726,9.6926,9.6294,9.5588,9.4883,9.4622,9.4734,9.4585,9.4362,9.4214,9.4065,9.3917,9.3582,9.3211,9.2653,9.2022,9.1576,9.1279,9.087,9.0424,9.0127,9.0016,9.0016,8.983,8.9533,8.9236,8.8901,8.8657,8.8121,8.8121,8.81,8.81,8.81,8.8137,8.8174,8.8115,8.8177,8.8162,8.8193,8.8247,8.8308,8.8384,8.8459,8.8518,8.8606,8.8722,8.8851,8.895,8.8964,8.9001,8.8992,8.8992,8.8992,8.8992,9.6722,9.6722,9.6722,9.6722,9.6722,9.6722,9.6722,9.6722,9.6722,9.6722,9.6722,9.6722,9.6722,9.6722,9.6722,9.6722,9.6705,9.6762,9.6876,9.7045,9.7248,9.743,9.7628,9.7787,9.7874,9.7892,9.7892,9.7892,9.7892,9.7892,9.8263,9.8635,9.8115,9.7966,9.7892,9.7892,9.7929,9.7892,9.7892,9.7892,9.7892,9.7892,9.7892,9.7892,9.7892,9.7892,9.7892,9.7892,9.7892,9.7892,9.7892,9.7892,9.7855,9.7632,9.752,9.7409,9.6889,9.6591,9.7334,9.752,9.7595,9.78,9.7577,9.7557,9.674,9.572,9.5035,9.5369,9.5149,9.4781,9.4855,9.4818,9.4444,9.3904,9.357,9.3178,9.2621,9.2282,9.1985,9.1576,9.1167,9.0945,9.087,9.0759,9.0573,9.0313,8.9979,8.9607,8.9198,8.8753,8.8344,8.8344,8.8493,8.8641,8.836,8.8323,8.8211,8.81,8.8248,8.8323,8.8406,8.8447,8.8307,8.842,8.866,8.8638,8.8577,8.8843,8.9385,8.9044,8.8969,8.8987,8.9029,8.9179,8.9217,9.6722,9.6722,9.6722,9.6722,9.6722,9.6722,9.6722,9.6722,9.6722,9.6722,9.6722,9.6722,9.6722,9.6722,9.6722,9.6722,9.6722,9.6741,9.6762,9.6876,9.7101,9.7266,9.7484,9.7699,9.7822,9.7857,9.7892,9.7892,9.7929,9.7929,9.8226,9.8412,9.804,9.7966,9.8003,9.8189,9.8189,9.804,9.7892,9.7892,9.7892,9.7892,9.7892,9.7892,9.7892,9.7892,9.7892,9.7892,9.7892,9.7892,9.7892,9.7892,9.7874,9.784,9.768,9.7551,9.7344,9.7196,9.7602,9.782,9.7802,9.7805,9.7787,9.766,9.7161,9.6199,9.6288,9.6491,9.5643,9.5089,9.5386,9.5514,9.4861,9.4191,9.3965,9.3722,9.3347,9.3025,9.2653,9.2245,9.1948,9.1725,9.1576,9.1465,9.1316,9.1093,9.0833,9.0499,9.009,8.9644,8.9124,8.8864,8.9087,8.931,8.8976,8.8827,8.8976,8.8976,8.8843,8.888,8.879,8.8524,8.8363,8.8642,8.8994,8.9018,8.91,8.9571,8.9951,8.9598,8.9497,8.9681,8.9813,8.9818,8.978,9.6722,9.6722,9.6722,9.6722,9.6722,9.6722,9.6722,9.6722,9.6722,9.6722,9.6722,9.6722,9.6722,9.6722,9.6722,9.6722,9.6722,9.6722,9.6722,9.6705,9.6951,9.7156,9.7339,9.7502,9.7752,9.7857,9.7929,9.8003,9.8003,9.8003,9.7966,9.7966,9.7929,9.7892,9.7966,9.8598,9.8635,9.83,9.8189,9.8152,9.7929,9.7892,9.7892,9.7892,9.7892,9.7892,9.7892,9.7892,9.7892,9.7892,9.7892,9.7892,9.7857,9.7787,9.761,9.7484,9.7462,9.7498,9.7625,9.777,9.7787,9.7717,9.7591,9.7556,9.7148,9.6499,9.6552,9.6868,9.6222,9.5984,9.6169,9.6242,9.5813,9.4921,9.4362,9.3971,9.356,9.3465,9.358,9.3226,9.2963,9.272,9.2691,9.2616,9.2133,9.191,9.1725,9.1428,9.1019,9.061,9.0127,8.9607,8.9681,8.9904,8.9942,8.9867,9.009,9.0053,8.9681,8.9607,8.9681,8.9124,8.8397,8.8958,8.9631,8.9737,8.9911,9.0257,9.0475,9.0513,9.0452,9.0607,9.0642,9.0587,9.0554,9.6722,9.6722,9.6722,9.6722,9.6722,9.6722,9.6722,9.6722,9.6722,9.6722,9.6722,9.6722,9.6722,9.6722,9.6722,9.6685,9.6631,9.6705,9.6685,9.6725,9.6858,9.7063,9.7285,9.7466,9.7699,9.784,9.7966,9.8152,9.8375,9.8226,9.8189,9.8598,9.83,9.7892,9.7966,9.8709,9.9006,9.8672,9.8895,9.856,9.8077,9.7929,9.7892,9.7892,9.7892,9.7892,9.7892,9.7892,9.7892,9.7892,9.7892,9.7892,9.7892,9.784,9.7734,9.7573,9.752,9.7538,9.7556,9.7609,9.7664,9.768,9.7644,9.7591,9.7296,9.6684,9.6519,9.6873,9.7004,9.6876,9.6765,9.6782,9.6596,9.5632,9.4741,9.422,9.3718,9.4017,9.4336,9.4148,9.3903,9.3783,9.3718,9.3434,9.3025,9.2802,9.2728,9.2468,9.2059,9.165,9.1279,9.0759,9.035,9.0462,9.0685,9.0833,9.1056,9.0833,9.0462,9.0462,9.0536,9.0276,8.9942,8.9942,9.0287,9.0483,9.0605,9.0609,9.0792,9.1161,9.1125,9.1156,9.1395,9.1469,9.1407,9.6722,9.6722,9.6722,9.6722,9.6722,9.6722,9.6722,9.6722,9.6722,9.6722,9.6722,9.6722,9.6722,9.6685,9.6722,9.6505,9.645,9.6614,9.645,9.6434,9.6728,9.6933,9.7175,9.7376,9.7575,9.7734,9.7894,9.8115,9.8486,9.8263,9.8189,9.8486,9.8077,9.7929,9.8077,9.8895,9.9415,9.9118,9.9675,9.9452,9.8523,9.8189,9.7929,9.7892,9.7892,9.7892,9.7892,9.7892,9.7892,9.7892,9.7892,9.7734,9.7717,9.7699,9.7539,9.7339,9.7285,9.7412,9.7394,9.7412,9.7484,9.7502,9.743,9.7285,9.7138,9.664,9.6822,9.7118,9.7027,9.6898,9.686,9.6821,9.6452,9.5693,9.5027,9.4527,9.436,9.4473,9.4603,9.4547,9.4227,9.3866,9.3708,9.3363,9.3009,9.2914,9.2951,9.2988,9.2691,9.2616,9.2245,9.1985,9.1576,9.1539,9.1873,9.191,9.191,9.1613,9.1205,9.0945,9.087,9.139,9.1576,9.113,9.1019,9.1407,9.1455,9.1556,9.1785,9.2215,9.1995,9.1647,9.2015,9.2406,9.2346,9.6722,9.6722,9.6722,9.6722,9.6722,9.6722,9.6722,9.6722,9.6722,9.6722,9.6722,9.6722,9.6685,9.6614,9.6705,9.625,9.6177,9.6522,9.6341,9.6304,9.6541,9.6821,9.7045,9.7193,9.7394,9.7646,9.7805,9.7874,9.804,9.7929,9.7929,9.7892,9.7892,9.7892,9.8375,9.9229,9.9898,9.9712,9.9972,10.0344,9.9563,9.856,9.8263,9.8077,9.7966,9.7966,9.7966,9.7892,9.7892,9.7892,9.7892,9.777,9.7646,9.7628,9.7321,9.7156,9.7138,9.7175,9.7119,9.7193,9.7175,9.7138,9.7026,9.6951,9.6838,9.6876,9.7027,9.7101,9.7045,9.7009,9.6935,9.6841,9.6434,9.5973,9.5382,9.4996,9.4978,9.4978,9.5015,9.4996,9.4566,9.4133,9.3846,9.3465,9.3215,9.3083,9.3062,9.3062,9.3062,9.3211,9.3099,9.3025,9.2839,9.2914,9.2914,9.2691,9.2468,9.2431,9.2022,9.1502,9.1279,9.191,9.2096,9.1688,9.1688,9.2319,9.2728,9.2926,9.314,9.3333,9.3349,9.3189,9.3317,9.3597,9.3339,9.6722,9.6722,9.6722,9.6722,9.6722,9.6722,9.6722,9.6722,9.6722,9.6722,9.6722,9.6668,9.6468,9.5994,9.6522,9.6359,9.5976,9.6414,9.6631,9.6631,9.6614,9.6801,9.697,9.7063,9.7285,9.7557,9.7787,9.7874,9.7892,9.7892,9.7892,9.7892,9.7892,9.8003,9.8226,9.9192,10.0084,10.0046,10.0567,10.1087,10.0492,9.9638,9.9006,9.8746,9.8523,9.83,9.8115,9.7929,9.7892,9.7892,9.7874,9.7805,9.7717,9.761,9.7358,9.7101,9.7082,9.7026,9.7026,9.7026,9.7007,9.7101,9.7045,9.6951,9.6857,9.6762,9.6932,9.7063,9.7082,9.7156,9.7155,9.7153,9.6856,9.6341,9.5787,9.5699,9.5645,9.57,9.5755,9.5459,9.5032,9.4786,9.4667,9.414,9.3553,9.3512,9.3586,9.3512,9.3099,9.3434,9.3917,9.3879,9.3879,9.3471,9.3099,9.2951,9.2802,9.2839,9.2802,9.2319,9.2208,9.2579,9.2616,9.2208,9.2765,9.3545,9.3917,9.3879,9.4379,9.4557,9.4859,9.4946,9.4892,9.4617,9.4271]}]]